Date StartTime U_cm/s V_cm/s W_cm/s Ustd_cm/s Vstd_cm/s Wstd_cm/s Uvar_(cm/s)^2 Vvar_(cm/s)^2 Wvar_(cm/s)^2 KE_(m/s)^2 TurbulentKE_(m/s)^2 HorizWindSpeed_cm/s FrictionSpeec_cm/s DragCoef SpeedOfSound_m/s SonicTemperature_C Pressure_mb 
09/12/2013  00:00:00      -93.466      -18.120       -9.183       25.652       33.675       21.447      658.041     1133.976      459.986        0.570        0.113       95.207       11.694        0.015      345.649       23.331      861.218
09/12/2013  00:01:00     -152.515      -14.530       -9.449       49.578       29.871       20.260     2457.991      892.262      410.467        1.366        0.188      153.206       20.836        0.018      345.638       23.311      861.217
09/12/2013  00:02:00     -165.477      -40.826       -8.905       53.131       43.397       27.438     2822.869     1883.338      752.824        1.729        0.273      170.439       22.305        0.017      345.652       23.335      861.212
09/12/2013  00:03:00     -134.144      -31.785       -3.554       63.549       38.991       26.278     4038.466     1520.334      690.526        1.263        0.312      137.858       27.311        0.039      345.647       23.327      861.208
09/12/2013  00:04:00     -120.507      -48.073       -0.512       52.351       30.389       25.716     2740.590      923.467      661.315        1.058        0.216      129.742       23.457        0.033      345.671       23.367      861.206
09/12/2013  00:05:00      -83.111       26.687       -4.729       27.263       30.740       22.623      743.254      944.959      511.792        0.492        0.110       87.291       19.268        0.049      345.494       23.064      861.222
09/12/2013  00:06:00      -86.513        9.753      -11.780       32.070       47.118       21.728     1028.460     2220.083      472.102        0.572        0.186       87.061       16.684        0.037      345.511       23.093      861.232
09/12/2013  00:07:00     -138.278      -35.182      -14.165       49.414       44.493       33.581     2441.765     1979.589     1127.682        1.305        0.277      142.683       31.152        0.048      345.546       23.155      861.233
09/12/2013  00:08:00     -130.838       -6.844      -14.995       51.394       38.912       29.813     2641.341     1514.106      888.827        1.122        0.252      131.017       27.197        0.043      345.546       23.151      861.205
09/12/2013  00:09:00     -250.859        1.598      -33.085       84.169       84.016       37.900     7084.484     7058.609     1436.388        3.980        0.779      250.864       39.103        0.024      345.524       23.112      861.200
09/12/2013  00:10:00     -211.334      -12.249       -9.307       85.914       61.299       42.381     7381.147     3757.561     1796.138        2.891        0.647      211.688       37.749        0.032      345.684       23.388      861.172
09/12/2013  00:11:00     -212.294      -89.157       -9.160       53.342       77.299       35.650     2845.388     5975.137     1270.942        3.159        0.505      230.256        9.465        0.002      345.622       23.280      861.152
09/12/2013  00:12:00     -173.011      -74.989       -4.110       66.124       56.818       34.212     4372.411     3228.261     1170.481        2.217        0.439      188.564       30.079        0.025      345.622       23.282      861.134
09/12/2013  00:13:00     -129.444      -12.939       -2.738       61.784       64.840       35.407     3817.289     4204.281     1253.688        1.310        0.464      130.089       29.622        0.052      345.627       23.292      861.124
09/12/2013  00:14:00     -277.594      -31.490      -14.034      118.291       87.889       56.629    13992.739     7724.404     3206.849        5.158        1.246      279.375       61.876        0.049      345.730       23.466      861.107
09/12/2013  00:15:00     -290.334      -19.872      -19.735       81.327       71.283       42.568     6614.131     5081.324     1812.036        4.929        0.675      291.013       35.265        0.015      345.697       23.408      861.105
09/12/2013  00:16:00     -260.161      -68.446      -20.000      101.629       72.643       33.391    10328.470     5276.966     1114.978        4.474        0.836      269.014       32.840        0.015      345.781       23.552      861.104
09/12/2013  00:17:00     -188.327     -107.913      -15.801       88.181       91.109       49.534     7775.892     8300.778     2453.590        3.294        0.927      217.054       44.951        0.043      345.769       23.534      861.090
09/12/2013  00:18:00      -87.485      -38.573       -1.557       73.937       47.044       34.455     5466.620     2213.103     1187.119        0.900        0.443       95.611       34.978        0.134      345.559       23.176      861.087
09/12/2013  00:19:00     -133.601      -32.750      -12.956       62.297       45.989       27.265     3880.873     2115.029      743.355        1.291        0.337      137.556       29.044        0.045      345.588       23.224      861.087
09/12/2013  00:20:00     -180.161      -40.844      -11.275       58.087       48.863       32.336     3374.125     2387.632     1045.596        2.053        0.340      184.733       27.024        0.021      345.626       23.289      861.081
09/12/2013  00:21:00     -288.637      -20.373      -19.304       66.821       68.242       48.948     4465.023     4656.921     2395.901        4.781        0.576      289.356       45.793        0.025      345.595       23.233      861.081
09/12/2013  00:22:00     -320.014      -33.547       -9.983      130.175       83.568       49.796    16945.422     6983.532     2479.676        6.502        1.320      321.768       56.048        0.030      345.677       23.375      861.070
09/12/2013  00:23:00     -287.950      -63.370       -1.089      117.139       76.803       47.138    13721.458     5898.755     2221.990        5.438        1.092      294.840       48.905        0.028      345.678       23.375      861.058
09/12/2013  00:24:00     -160.774        3.667        1.931       81.818       78.269       52.652     6694.244     6126.096     2772.241        2.073        0.780      160.816       44.973        0.078      345.607       23.258      861.045
09/12/2013  00:25:00     -257.558      -41.905      -15.076       67.960       84.769       35.730     4618.585     7185.827     1276.639        4.070        0.654      260.945       28.261        0.012      345.692       23.401      861.035
09/12/2013  00:26:00     -202.241      -77.290       -3.729       76.081       67.911       39.284     5788.249     4611.901     1543.210        2.941        0.597      216.506       33.735        0.024      345.645       23.319      861.017
09/12/2013  00:27:00     -193.210      -16.862        3.413      103.715       81.157       49.169    10756.754     6586.423     2417.628        2.869        0.988      193.944       48.268        0.062      345.610       23.259      861.025
09/12/2013  00:28:00     -183.684      -46.136       -6.321       99.243       54.701       42.600     9849.270     2992.157     1814.765        2.528        0.733      189.390       47.603        0.063      345.640       23.312      861.032
09/12/2013  00:29:00     -183.567      -46.321        6.348       81.869       70.292       46.246     6702.462     4941.004     2138.718        2.483        0.689      189.321       47.478        0.063      345.608       23.256      861.027
09/12/2013  00:30:00     -234.801      -45.291      -12.882       96.198       56.942       47.475     9254.133     3242.426     2253.862        3.605        0.738      239.130       52.834        0.049      345.618       23.273      861.015
09/12/2013  00:31:00     -212.852      -28.663      -13.377       82.651       79.083       38.453     6831.235     6254.164     1478.660        3.043        0.728      214.773       35.231        0.027      345.591       23.227      860.996
09/12/2013  00:32:00     -236.020     -100.124       -8.494       70.280       57.928       38.545     4939.220     3355.656     1485.722        3.779        0.489      256.379       32.456        0.016      345.576       23.200      860.993
09/12/2013  00:33:00     -199.947      -55.106       -1.482       78.824       97.646       46.353     6213.225     9534.743     2148.594        3.045        0.895      207.401       44.022        0.045      345.594       23.232      860.987
09/12/2013  00:34:00     -234.851      -80.132       -4.699       95.264       77.759       44.512     9075.314     6046.536     1981.295        3.935        0.855      248.146       48.661        0.038      345.580       23.207      860.972
09/12/2013  00:35:00     -157.800      -77.461        6.772       85.410       86.169       42.594     7294.863     7425.035     1814.251        2.374        0.827      175.787       38.979        0.049      345.556       23.168      860.956
09/12/2013  00:36:00     -307.228      -94.592      -14.582       85.687       88.725       51.977     7342.307     7872.086     2701.620        6.073        0.896      321.460       40.420        0.016      345.687       23.392      860.951
09/12/2013  00:37:00     -266.892      -42.952      -20.617       91.263       78.135       46.257     8329.004     6105.045     2139.730        4.503        0.829      270.326       45.871        0.029      345.636       23.305      860.939
09/12/2013  00:38:00     -263.354      -64.101        0.341       96.730       63.051       44.129     9356.749     3975.428     1947.355        4.437        0.764      271.043       48.967        0.033      345.644       23.317      860.938
09/12/2013  00:39:00     -280.489      -36.677       -4.811       99.730       84.545       53.194     9946.117     7147.831     2829.579        4.998        0.996      282.877       55.535        0.039      345.674       23.369      860.929
09/12/2013  00:40:00     -259.908      -40.917      -16.543      178.702       83.614       56.101    31934.272     6991.317     3147.376        5.578        2.104      263.109       72.433        0.076      345.641       23.313      860.934
09/12/2013  00:41:00     -155.214      -29.825       -5.853       79.538       89.565       43.735     6326.244     8021.815     1912.752        2.063        0.813      158.054       41.464        0.069      345.579       23.208      860.939
09/12/2013  00:42:00     -123.494      -35.740       -4.250       70.536       53.816       36.200     4975.302     2896.206     1310.448        1.286        0.459      128.562       29.634        0.053      345.558       23.171      860.924
09/12/2013  00:43:00     -193.468      -43.936        7.643      124.622       68.911       49.448    15530.534     4748.695     2445.099        3.107        1.136      198.394       58.274        0.086      345.575       23.202      860.914
09/12/2013  00:44:00     -209.878      -48.205       -0.986      115.329       58.677       42.049    13300.794     3443.034     1768.085        3.244        0.926      215.343       50.120        0.054      345.638       23.309      860.910
09/12/2013  00:45:00     -169.393      -41.723       -5.353      101.124       64.548       35.830    10226.080     4166.404     1283.773        2.307        0.784      174.456       30.042        0.030      345.643       23.318      860.908
09/12/2013  00:46:00     -118.171      -17.704       13.385       81.252       78.370       53.209     6601.913     6141.929     2831.193        1.501        0.779      119.490       48.292        0.163      345.596       23.238      860.911
09/12/2013  00:47:00     -233.546      -57.697       -8.153       87.705       70.966       39.873     7692.184     5036.174     1589.841        3.613        0.716      240.567       40.924        0.029      345.645       23.320      860.926
09/12/2013  00:48:00     -251.888      -76.323      -11.304       61.149       58.707       38.485     3739.192     3446.514     1481.095        3.903        0.433      263.197       25.637        0.009      345.689       23.394      860.929
09/12/2013  00:49:00     -157.747      -79.819       -4.732       71.585       70.200       34.297     5124.463     4928.013     1176.264        2.125        0.561      176.791       35.706        0.041      345.627       23.290      860.919
09/12/2013  00:50:00     -151.741      -44.871        1.389       63.630       69.182       44.529     4048.802     4786.174     1982.875        1.793        0.541      158.237       38.921        0.060      345.689       23.399      860.908
09/12/2013  00:51:00      -73.661      -22.718       12.253       60.978       50.474       40.568     3718.320     2547.598     1645.742        0.700        0.396       77.085       40.786        0.280      345.613       23.267      860.898
09/12/2013  00:52:00     -112.665      -86.446        0.893       65.822       58.238       36.824     4332.550     3391.686     1355.990        1.462        0.454      142.008       37.837        0.071      345.755       23.513      860.911
09/12/2013  00:53:00      -86.969      -53.291        2.284       81.271       64.863       39.319     6604.929     4207.193     1546.004        1.138        0.618      101.998       34.643        0.115      345.713       23.439      860.915
09/12/2013  00:54:00     -287.053      -86.871      -10.449       90.772       92.276       51.727     8239.598     8514.774     2675.687        5.474        0.972      299.910       46.781        0.024      345.856       23.683      860.921
09/12/2013  00:55:00     -224.430      -62.796       -6.173       89.742       62.388       34.176     8053.673     3892.254     1168.018        3.373        0.656      233.050       24.598        0.011      345.873       23.711      860.927
09/12/2013  00:56:00     -171.106      -41.222      -19.342      109.665       73.827       40.994    12026.393     5450.438     1680.503        2.525        0.958      176.001       47.772        0.074      345.875       23.716      860.940
09/12/2013  00:57:00     -167.684      -38.767      -17.329       60.827       72.028       33.757     3699.947     5188.016     1139.560        1.997        0.501      172.107       27.415        0.025      345.873       23.713      860.955
09/12/2013  00:58:00      -94.142      -11.917        2.510       34.911       44.322       20.003     1218.807     1964.429      400.127        0.630        0.179       94.893       19.698        0.043      345.832       23.643      860.961
09/12/2013  00:59:00     -182.679      -18.049      -15.175       66.002       65.256       38.111     4356.201     4258.372     1452.480        2.200        0.503      183.569       31.867        0.030      345.862       23.695      860.961
09/12/2013  01:00:00      -89.659       24.212        0.853       60.315       42.933       28.927     3637.947     1843.209      836.768        0.747        0.316       92.871       27.795        0.090      345.776       23.548      860.955
09/12/2013  01:01:00      -60.941       52.914       -3.878       29.160       35.137       23.619      850.310     1234.578      557.843        0.459        0.132       80.708       15.359        0.036      345.743       23.492      860.966
09/12/2013  01:02:00      -15.724       90.742      -15.956       89.039       39.519       30.328     7927.978     1561.768      919.805        0.957        0.520       92.095       31.652        0.118      345.429       22.954      860.988
09/12/2013  01:03:00      109.408       75.961        0.588       37.856       41.723       33.978     1433.041     1740.774     1154.508        1.103        0.216      133.192       16.937        0.016      345.279       22.696      860.980
09/12/2013  01:04:00       73.641       34.657       30.798       29.822       24.850       25.216      889.375      617.542      635.871        0.486        0.107       81.388       14.598        0.032      345.148       22.472      860.978
09/12/2013  01:05:00       87.743       44.265       31.057       43.562       27.890       25.199     1897.673      777.878      635.005        0.697        0.166       98.276       13.831        0.020      344.979       22.183      860.987
09/12/2013  01:06:00       89.473       52.368       16.283       40.900       29.937       30.042     1672.832      896.214      902.495        0.724        0.174      103.672       20.733        0.040      344.887       22.026      861.000
09/12/2013  01:07:00       24.408        5.710        5.646       24.922       33.279       32.939      621.095     1107.467     1084.977        0.174        0.141       25.067       26.267        1.098      344.658       21.633      860.992
09/12/2013  01:08:00       27.627        2.694       15.500       34.628       41.566       26.181     1199.087     1727.755      685.441        0.231        0.181       27.758       11.490        0.171      344.475       21.321      860.973
09/12/2013  01:09:00       36.400      -37.312        8.270       52.251       40.140       37.266     2730.194     1611.181     1388.746        0.426        0.287       52.127       31.766        0.371      344.210       20.867      860.955
09/12/2013  01:10:00       34.083      -49.804       16.102       35.987       36.069       24.558     1295.054     1300.994      603.111        0.355        0.160       60.350       21.445        0.126      344.370       21.141      860.949
09/12/2013  01:11:00       14.979       -8.444       22.977       29.380       52.972       24.053      863.205     2806.043      578.537        0.253        0.212       17.196       28.216        2.692      344.458       21.292      860.961
09/12/2013  01:12:00       33.924       36.583       36.497       25.066       21.874       21.526      628.285      478.459      463.376        0.270        0.079       49.891       14.550        0.085      344.580       21.499      860.969
09/12/2013  01:13:00       44.558       45.335       26.187       28.428       26.128       20.704      808.135      682.674      428.671        0.332        0.096       63.567       11.514        0.033      344.583       21.506      860.974
09/12/2013  01:14:00       36.406       19.898       16.260       25.581       18.678       15.587      654.371      348.855      242.958        0.162        0.062       41.489        9.534        0.053      344.595       21.525      860.974
09/12/2013  01:15:00       16.997       21.003        8.755       18.806       20.090       20.702      353.684      403.619      428.572        0.100        0.059       27.019       13.737        0.258      344.492       21.348      860.976
09/12/2013  01:16:00        4.239       16.253       -1.392       25.077       24.043       14.486      628.879      578.060      209.847        0.085        0.071       16.797        6.464        0.148      344.337       21.085      860.981
09/12/2013  01:17:00       15.312       29.349      -22.054       16.733       25.034       24.745      280.003      626.711      612.326        0.155        0.076       33.103       15.235        0.212      344.200       20.849      860.976
09/12/2013  01:18:00       25.428       35.939       -6.713       12.705       19.020       19.591      161.429      361.752      383.813        0.144        0.045       44.025       14.698        0.111      344.704       21.713      860.979
09/12/2013  01:19:00        1.256       11.951        6.185       15.423       11.137        8.299      237.882      124.025       68.876        0.031        0.022       12.017        3.916        0.106      344.547       21.441      860.972
09/12/2013  01:20:00       13.898        1.681       11.757       21.087       10.016       13.423      444.663      100.317      180.174        0.053        0.036       13.999        4.432        0.100      344.178       20.813      860.953
09/12/2013  01:21:00       28.191      -15.196        4.639       29.885       13.235       20.216      893.084      175.166      408.693        0.126        0.074       32.026        8.788        0.075      344.440       21.260      860.943
09/12/2013  01:22:00        5.979      -10.105       -0.567       17.240       13.443       10.544      297.229      180.724      111.177        0.036        0.029       11.741       14.052        1.432      345.528       23.122      860.940
09/12/2013  01:23:00       29.955       79.375       -3.238       15.631       24.650       20.079      244.326      607.613      403.168        0.423        0.063       84.839       17.105        0.041      344.918       22.077      860.924
09/12/2013  01:24:00       44.141       47.120      -15.133       11.322       18.519        7.618      128.179      342.939       58.032        0.246        0.026       64.566        1.918        0.001      345.008       22.232      860.915
09/12/2013  01:25:00       42.174        7.905        1.630       16.940       20.468       10.378      286.973      418.936      107.710        0.133        0.041       42.908       11.727        0.075      344.723       21.744      860.914
09/12/2013  01:26:00       -6.548       -0.422        6.512       10.963        7.107       10.305      120.183       50.510      106.186        0.018        0.014        6.562        7.832        1.424      344.603       21.539      860.920
09/12/2013  01:27:00      -15.276       -1.308       -4.516       16.940       14.924        5.870      286.959      222.739       34.453        0.040        0.027       15.332        6.454        0.177      344.646       21.613      860.927
09/12/2013  01:28:00       33.356      -30.316       -0.858       11.042        7.649        6.899      121.918       58.508       47.591        0.113        0.011       45.074        5.072        0.013      344.987       22.199      860.934
09/12/2013  01:29:00       52.733       24.818       21.844       16.284       34.222       22.501      265.176     1171.158      506.316        0.291        0.097       58.281       22.549        0.150      344.954       22.138      860.947
09/12/2013  01:30:00        3.250       65.935       72.864       28.584       26.949       20.245      817.055      726.229      409.862        0.581        0.098       66.015       16.943        0.066      344.728       21.752      860.944
09/12/2013  01:31:00       -7.347       37.268       70.312       15.750       36.539       18.857      248.067     1335.120      355.575        0.416        0.097       37.986       21.328        0.315      344.553       21.455      860.942
09/12/2013  01:32:00       21.949      -20.024       41.421       32.908       62.912       35.863     1082.929     3957.936     1286.179        0.446        0.316       29.710       36.453        1.505      344.782       21.843      860.960
09/12/2013  01:33:00       26.296      -96.583        9.809       32.261       44.606       23.413     1040.749     1989.665      548.191        0.685        0.179      100.099       10.623        0.011      344.839       21.944      860.984
09/12/2013  01:34:00        0.615      -33.926        4.147       15.715       37.169       15.366      246.956     1381.570      236.099        0.152        0.093       33.932       11.361        0.112      344.629       21.583      860.996
09/12/2013  01:35:00        2.114      -47.375       -5.894       20.338       20.640       13.920      413.623      426.011      193.764        0.166        0.052       47.422        6.582        0.019      344.587       21.510      860.986
09/12/2013  01:36:00      -24.347      -30.993        4.382       18.611       19.218       12.265      346.354      369.318      150.435        0.122        0.043       39.412        7.756        0.039      344.529       21.413      860.988
09/12/2013  01:37:00        1.574      -65.538       -3.237       15.753       18.510       15.217      248.148      342.614      231.568        0.257        0.041       65.557        6.002        0.008      344.727       21.751      861.007
09/12/2013  01:38:00       13.108      -56.388       -0.604       19.947       16.299       12.724      397.871      265.655      161.898        0.209        0.041       57.892        4.677        0.007      344.642       21.605      861.015
09/12/2013  01:39:00        5.699        2.849        2.950       12.277       19.351       13.326      150.730      374.470      177.587        0.038        0.035        6.372        6.890        1.169      344.524       21.404      861.023
09/12/2013  01:40:00       10.172      -19.521        2.250       14.564       18.712       10.885      212.116      350.148      118.483        0.059        0.034       22.012       10.658        0.234      344.412       21.213      861.023
09/12/2013  01:41:00       13.053      -27.301        5.825       14.767       22.060       14.151      218.072      486.628      200.256        0.093        0.045       30.261        9.342        0.095      344.349       21.104      861.038
09/12/2013  01:42:00       17.033      -40.689       -0.314       20.688       21.079       13.645      427.975      444.330      186.188        0.150        0.053       44.110       12.171        0.076      344.352       21.110      861.038
09/12/2013  01:43:00       26.198      -36.416       -1.776       23.355       33.739       16.510      545.463     1138.322      272.585        0.199        0.098       44.861       15.965        0.127      344.309       21.036      861.023
09/12/2013  01:44:00        3.853      -30.211       10.884       11.398       29.267       16.455      129.909      856.562      270.783        0.115        0.063       30.456       13.956        0.210      344.338       21.085      861.006
09/12/2013  01:45:00        8.622      -52.762       -8.215       19.150       19.738        9.147      366.721      389.581       83.674        0.188        0.042       53.461        7.794        0.021      344.506       21.373      861.010
09/12/2013  01:46:00      -24.874      -23.448       -8.008        8.799        5.205        4.932       77.427       27.095       24.328        0.068        0.006       34.184        3.520        0.011      344.376       21.151      861.017
09/12/2013  01:47:00      -31.245      -25.751       -7.387       14.660       10.299        7.698      214.904      106.061       59.265        0.104        0.019       40.489        3.466        0.007      344.452       21.281      861.021
09/12/2013  01:48:00      -67.991      -26.140       -4.933       18.952       16.678       10.325      359.180      278.157      106.610        0.304        0.037       72.843        7.366        0.010      344.091       20.665      861.041
09/12/2013  01:49:00      -69.653      -23.339       -1.217       21.267       33.205       10.986      452.286     1102.560      120.701        0.354        0.084       73.459        8.412        0.013      344.056       20.603      861.057
09/12/2013  01:50:00      -33.387       44.770       -7.054       18.217       16.331        8.506      331.843      266.711       72.354        0.192        0.034       55.848        6.209        0.012      344.299       21.017      861.078
09/12/2013  01:51:00        3.499       65.758        1.244       11.316       16.899       16.801      128.041      285.583      282.259        0.252        0.035       65.851        8.529        0.017      344.261       20.953      861.088
09/12/2013  01:52:00        9.928      109.208      -19.404       12.794       14.565       10.797      163.696      212.146      116.582        0.645        0.025      109.659        7.683        0.005      344.371       21.141      861.092
09/12/2013  01:53:00       16.602       82.816      -19.744       10.504       11.164        6.980      110.334      124.632       48.714        0.390        0.014       84.463        6.012        0.005      344.474       21.318      861.100
09/12/2013  01:54:00       38.293       50.910       -4.031       24.255       16.764       12.983      588.312      281.021      168.568        0.256        0.052       63.704       12.293        0.037      344.360       21.125      861.097
09/12/2013  01:55:00       51.629       34.298        8.291       15.676       12.832       11.177      245.752      164.649      124.928        0.222        0.027       61.984        6.381        0.011      344.390       21.174      861.100
09/12/2013  01:56:00       51.961       28.128        7.961       12.950       14.817       12.161      167.706      219.530      147.881        0.204        0.027       59.086        5.973        0.010      344.220       20.886      861.108
09/12/2013  01:57:00       23.933        5.462        4.891        9.875        9.599        7.528       97.510       92.146       56.676        0.044        0.012       24.548        5.962        0.059      344.059       20.610      861.104
09/12/2013  01:58:00       26.303        6.918        8.514       19.867       15.951        9.738      394.704      254.424       94.823        0.078        0.037       27.198        5.471        0.040      343.972       20.460      861.094
09/12/2013  01:59:00       14.435        2.458        3.442       23.771        9.682        9.144      565.046       93.741       83.610        0.048        0.037       14.642       10.251        0.490      343.803       20.173      861.089
09/12/2013  02:00:00       -9.051       -9.265        3.623       10.052       11.939       10.944      101.040      142.529      119.769        0.027        0.018       12.952        7.550        0.340      344.051       20.596      861.078
09/12/2013  02:01:00       -8.301      -31.612        4.788       12.955       10.218        7.550      167.824      104.413       57.006        0.071        0.016       32.683        6.046        0.034      344.124       20.721      861.058
09/12/2013  02:02:00       13.351      -29.731       -5.444       11.495       10.564        8.224      132.134      111.605       67.629        0.070        0.016       32.591        3.177        0.010      344.056       20.605      861.041
09/12/2013  02:03:00      -26.537      -29.377       -5.543       21.238       13.206        7.468      451.070      174.402       55.775        0.114        0.034       39.588        5.921        0.022      344.009       20.526      861.036
09/12/2013  02:04:00      -54.190       -8.271       -4.516        7.148       11.827        6.566       51.093      139.875       43.117        0.163        0.012       54.817        4.708        0.007      343.997       20.501      861.035
09/12/2013  02:05:00      -61.932        2.975       -8.871        3.735        4.072        4.424       13.953       16.583       19.572        0.199        0.003       62.004        2.102        0.001      344.003       20.509      861.037
09/12/2013  02:06:00      -65.532       -3.040      -11.464        6.953        6.097        5.037       48.341       37.178       25.370        0.227        0.006       65.602        2.973        0.002      344.137       20.741      861.035
09/12/2013  02:07:00     -107.092        3.842      -11.646       19.225        9.018        8.653      369.608       81.328       74.876        0.607        0.026      107.161        4.868        0.002      343.958       20.438      861.044
09/12/2013  02:08:00     -161.581        3.530      -17.418       58.300       48.719       28.305     3398.884     2373.555      801.150        1.650        0.329      161.620       26.051        0.026      343.610       19.841      861.064
09/12/2013  02:09:00      -84.796      -20.700        2.598       56.063       46.115       28.021     3143.059     2126.604      785.201        0.684        0.303       87.286       25.372        0.084      343.521       19.691      861.052
09/12/2013  02:10:00      -33.701      -69.454      -13.822       52.323       27.594       18.507     2737.702      761.430      342.517        0.500        0.192       77.199       19.268        0.062      343.609       19.840      861.025
09/12/2013  02:11:00       -2.945      -43.274       -4.003       20.433       27.274       19.469      417.500      743.881      379.038        0.172        0.077       43.374       16.208        0.140      343.648       19.906      861.013
09/12/2013  02:12:00      -97.004      -38.606       -4.386       44.312       26.846       15.205     1963.557      720.691      231.191        0.692        0.146      104.404       15.736        0.023      343.903       20.341      861.022
09/12/2013  02:13:00     -132.760       11.677       -8.406       31.453       26.380       15.093      989.320      695.900      227.807        0.987        0.096      133.272       17.088        0.016      343.613       19.847      861.029
09/12/2013  02:14:00     -111.603       -5.419      -11.434       50.128       29.553       17.852     2512.778      873.403      318.685        0.816        0.185      111.735       17.167        0.024      343.525       19.698      861.032
09/12/2013  02:15:00     -102.862       32.006       -6.074       70.482       30.163       23.293     4967.667      909.785      542.569        0.903        0.321      107.727       26.051        0.058      343.505       19.664      861.017
09/12/2013  02:16:00     -131.593        6.493      -14.582       29.384       28.746       17.639      863.448      826.329      311.127        0.979        0.100      131.753       13.094        0.010      343.555       19.750      861.012
09/12/2013  02:17:00     -115.664      -24.128      -10.093       31.116       44.627       22.583      968.234     1991.557      509.979        0.877        0.173      118.154       15.841        0.018      343.523       19.695      861.009
09/12/2013  02:18:00     -192.386       41.620       -7.065       46.622       30.352       24.475     2173.595      921.269      599.032        2.124        0.185      196.836       13.214        0.005      343.689       19.976      861.002
09/12/2013  02:19:00     -160.944       33.504      -12.226       43.227       40.791       31.137     1868.574     1663.905      969.503        1.584        0.225      164.395       21.632        0.017      343.643       19.899      860.994
09/12/2013  02:20:00     -129.100      -41.128      -14.207       47.117       42.285       27.211     2219.996     1788.037      740.412        1.165        0.237      135.493       26.524        0.038      343.654       19.917      860.986
09/12/2013  02:21:00      -85.167      -30.980       -5.419       32.544       25.617       17.724     1059.135      656.256      314.127        0.514        0.101       90.626       10.724        0.014      343.703       19.999      860.960
09/12/2013  02:22:00      -87.843      -11.464       -1.982       22.023       15.702       13.188      485.030      246.567      173.915        0.438        0.045       88.588        7.363        0.007      343.601       19.828      860.947
09/12/2013  02:23:00     -125.048       -0.328      -16.337       18.747       10.587       12.188      351.447      112.087      148.552        0.826        0.031      125.049        6.915        0.003      343.565       19.768      860.953
09/12/2013  02:24:00     -137.225      -30.672      -12.885       51.528       28.953       22.447     2655.174      838.250      503.864        1.197        0.200      140.611       23.767        0.029      343.483       19.626      860.986
09/12/2013  02:25:00     -130.449      -18.969       -4.238       77.347       47.672       34.522     5982.596     2272.597     1191.778        1.342        0.472      131.821       41.267        0.098      343.573       19.778      861.013
09/12/2013  02:26:00      -92.238      -21.437      -10.675       38.532       31.296       22.033     1484.716      979.470      485.440        0.601        0.147       94.696       12.522        0.017      343.601       19.827      861.013
09/12/2013  02:27:00      -67.341      -44.269       -5.478       34.823       30.139       21.015     1212.653      908.336      441.620        0.454        0.128       80.589        7.409        0.008      343.638       19.889      860.997
09/12/2013  02:28:00     -104.034      -39.792      -12.710       19.717       21.804       15.564      388.756      475.416      242.227        0.684        0.055      111.384        9.168        0.007      343.573       19.780      861.006
09/12/2013  02:29:00     -152.829       21.268      -17.529       63.191       54.282       26.498     3993.046     2946.529      702.170        1.588        0.382      154.301       24.208        0.025      343.476       19.613      861.021
09/12/2013  02:30:00     -195.256       66.812      -18.071       64.759       32.975       25.643     4193.708     1087.350      657.557        2.443        0.297      206.371       20.638        0.010      343.540       19.720      861.019
09/12/2013  02:31:00     -149.401        8.460      -11.852       49.967       48.114       26.033     2496.727     2314.940      677.696        1.401        0.274      149.640       18.766        0.016      343.471       19.605      861.014
09/12/2013  02:32:00     -103.983      -14.402      -10.160       37.789       39.884       20.960     1428.027     1590.745      439.303        0.729        0.173      104.976       17.791        0.029      343.621       19.862      861.003
09/12/2013  02:33:00      -49.915      -12.890       -0.496       42.477       40.202       20.777     1804.306     1616.233      431.681        0.325        0.193       51.552       16.576        0.103      343.522       19.692      860.998
09/12/2013  02:34:00     -115.982       27.177      -14.466       35.946       38.598       22.033     1292.121     1489.821      485.458        0.883        0.163      119.123       17.242        0.021      343.586       19.801      861.012
09/12/2013  02:35:00     -175.714       -3.822      -24.835       47.221       33.040       24.971     2229.856     1091.648      623.541        1.773        0.197      175.756       26.922        0.023      343.541       19.725      861.018
09/12/2013  02:36:00     -143.852      -42.670       -7.355       34.765       34.536       26.345     1208.638     1192.703      694.066        1.283        0.155      150.047       19.089        0.016      343.340       19.384      861.005
09/12/2013  02:37:00     -131.751      -63.595      -11.007       25.418       23.063       17.529      646.098      531.885      307.266        1.150        0.074      146.296       15.749        0.012      343.405       19.492      860.988
09/12/2013  02:38:00     -140.937      -36.465      -10.742       29.632       26.594       17.294      878.037      707.248      299.075        1.160        0.094      145.578       18.381        0.016      343.362       19.420      860.973
09/12/2013  02:39:00     -139.514      -11.604      -17.544       33.374       26.704       14.728     1113.802      713.093      216.906        1.097        0.102      139.995       16.520        0.014      343.381       19.451      860.971
09/12/2013  02:40:00     -144.259      -15.230      -14.339       17.022       23.897       13.460      289.763      571.085      181.171        1.114        0.052      145.061        7.809        0.003      343.392       19.473      860.963
09/12/2013  02:41:00     -155.918        6.706      -14.422       24.625       27.498       14.224      606.386      756.165      202.329        1.306        0.078      156.062       12.124        0.006      343.529       19.704      860.957
09/12/2013  02:42:00     -193.125       50.849      -21.587       36.934       33.353       23.839     1364.099     1112.447      568.280        2.170        0.152      199.707        7.548        0.001      343.711       20.014      860.969
09/12/2013  02:43:00     -186.808       54.237      -12.258       32.486       29.983       19.305     1055.322      898.979      372.667        2.016        0.116      194.522        9.245        0.002      343.815       20.192      860.977
09/12/2013  02:44:00      -89.716        6.663       -4.161       44.651       33.635       20.542     1993.687     1131.339      421.976        0.583        0.177       89.963       17.376        0.037      343.690       19.979      860.960
09/12/2013  02:45:00     -127.885      -38.378       -9.242       46.551       28.789       18.500     2167.020      828.798      342.249        1.062        0.167      133.520       13.514        0.010      343.477       19.616      860.951
09/12/2013  02:46:00     -151.588        6.663       -5.870       80.481       57.076       32.048     6477.181     3257.687     1027.102        1.691        0.538      151.734       35.221        0.054      343.397       19.477      860.982
09/12/2013  02:47:00     -199.582       55.479      -22.559       63.654       42.096       29.359     4051.879     1772.039      861.976        2.505        0.334      207.149       27.950        0.018      343.636       19.885      861.008
09/12/2013  02:48:00     -108.262       -0.343      -10.270       52.784       40.224       30.167     2786.181     1617.976      910.054        0.857        0.266      108.262       24.511        0.051      343.528       19.704      861.001
09/12/2013  02:49:00      -96.412      -54.927      -19.947       34.252       31.801       27.176     1173.181     1011.330      738.521        0.782        0.146      110.961       22.438        0.041      343.491       19.639      860.990
09/12/2013  02:50:00      -36.225      -30.566        0.303       37.921       29.332       18.614     1437.982      860.395      346.497        0.245        0.132       47.397       23.032        0.236      343.601       19.827      860.971
09/12/2013  02:51:00      -39.161      -12.535        4.628       23.169       24.734       12.343      536.818      611.750      152.347        0.151        0.065       41.118       12.078        0.086      343.513       19.678      860.962
09/12/2013  02:52:00     -102.815       40.193       -7.630       43.043       29.535       16.912     1852.729      872.304      286.021        0.763        0.151      110.392       17.032        0.024      343.280       19.280      860.981
09/12/2013  02:53:00     -152.150       57.917      -18.998       49.309       44.046       28.019     2431.344     1940.016      785.041        1.601        0.258      162.800       24.952        0.023      343.481       19.623      861.003
09/12/2013  02:54:00     -115.305       22.895       -6.207       36.082       28.182       18.082     1301.875      794.207      326.963        0.814        0.121      117.556       15.076        0.016      343.772       20.118      861.016
09/12/2013  02:55:00      -62.321      -27.697       -2.056       18.269       30.724       15.546      333.765      943.967      241.668        0.309        0.076       68.199       11.126        0.027      343.540       19.724      861.009
09/12/2013  02:56:00       -7.126      -27.361       -3.267       21.613       19.169       16.985      467.126      367.434      288.486        0.097        0.056       28.274       10.663        0.142      343.532       19.708      860.992
09/12/2013  02:57:00      -71.314        1.111       -3.045       33.345       25.170        8.447     1111.879      633.519       71.345        0.346        0.091       71.323       10.439        0.021      343.593       19.813      860.998
09/12/2013  02:58:00     -145.075       83.536      -27.879       46.812       41.450       32.268     2191.392     1718.136     1041.244        1.688        0.248      167.406       24.743        0.022      343.648       19.906      861.026
09/12/2013  02:59:00     -140.889       13.898      -21.476       49.922       59.999       27.317     2492.231     3599.921      746.198        1.367        0.342      141.573       26.146        0.034      343.510       19.672      861.025
09/12/2013  03:00:00     -102.255      -21.975       -8.982       27.406       28.996       16.667      751.097      840.745      277.796        0.644        0.093      104.589       10.770        0.011      343.458       19.583      861.013
09/12/2013  03:01:00     -108.406        2.887       -8.801       19.324       14.615       10.779      373.414      213.603      116.181        0.627        0.035      108.445        8.196        0.006      344.092       20.668      860.998
09/12/2013  03:02:00      -77.347       -6.593      -10.978       19.064       15.413        6.759      363.426      237.571       45.688        0.340        0.032       77.628        5.669        0.005      343.842       20.239      860.998
09/12/2013  03:03:00      -57.570       45.152       -1.291       12.898       23.898       11.595      166.361      571.123      134.455        0.311        0.044       73.164        5.336        0.005      344.371       21.144      861.009
09/12/2013  03:04:00      -51.703       31.173       -9.044       21.721       18.340       12.400      471.797      336.374      153.771        0.234        0.048       60.374        8.999        0.022      343.473       19.609      861.019
09/12/2013  03:05:00      -66.762       -6.233       -6.277       17.715       31.152       16.519      313.813      970.435      272.873        0.305        0.078       67.052       13.288        0.039      343.376       19.444      861.028
09/12/2013  03:06:00      -71.743      -21.210      -15.341       15.297       15.106        9.311      234.003      228.195       86.701        0.319        0.027       74.813        6.217        0.007      343.106       18.984      861.018
09/12/2013  03:07:00      -50.688        1.673        3.890       22.152       21.418       14.476      490.727      458.723      209.564        0.187        0.058       50.715       10.270        0.041      343.621       19.862      861.009
09/12/2013  03:08:00      -59.760       -1.019       -9.694       15.533       15.459       11.030      241.289      238.984      121.659        0.213        0.030       59.768        7.307        0.015      343.582       19.795      861.003
09/12/2013  03:09:00      -49.774       34.522      -10.031       23.299       21.721       13.458      542.842      471.813      181.109        0.248        0.060       60.574       13.969        0.053      344.643       21.609      860.990
09/12/2013  03:10:00      -67.964      -16.179      -16.856       15.387       29.721        7.997      236.763      883.323       63.954        0.317        0.059       69.863        6.234        0.008      344.110       20.698      860.974
09/12/2013  03:11:00      -74.980        1.743      -10.474       18.174       19.238        7.840      330.293      370.090       61.467        0.325        0.038       75.000        8.345        0.012      344.594       21.524      860.962
09/12/2013  03:12:00     -101.041      -16.880      -10.542       32.022       19.365       12.347     1025.394      375.008      152.446        0.608        0.078      102.441       14.907        0.021      343.726       20.043      860.954
09/12/2013  03:13:00      -80.404       -5.222      -10.046       18.545       14.959        8.430      343.918      223.784       71.061        0.362        0.032       80.574        8.062        0.010      344.226       20.894      860.935
09/12/2013  03:14:00     -107.214      -23.410      -11.976       34.658       23.893       17.753     1201.211      570.878      315.168        0.714        0.104      109.740       20.453        0.035      343.756       20.093      860.943
09/12/2013  03:15:00     -112.790      -11.304       -9.989       38.362       24.673       17.926     1471.680      608.737      321.333        0.767        0.120      113.355       22.380        0.039      343.379       19.451      860.963
09/12/2013  03:16:00     -130.947       46.488      -20.761       58.681       35.890       24.126     3443.492     1288.100      582.052        1.253        0.266      138.954       20.521        0.022      343.460       19.587      860.980
09/12/2013  03:17:00      -92.654       73.783      -16.434       41.019       35.729       25.198     1682.585     1276.574      634.934        0.895        0.180      118.443       24.240        0.042      344.361       21.124      860.979
09/12/2013  03:18:00      -12.727       32.567        0.678       40.126       18.438       11.614     1610.104      339.958      134.885        0.165        0.104       34.965       18.330        0.275      344.659       21.636      860.966
09/12/2013  03:19:00       28.588       15.159       17.565       22.607       13.535       14.480      511.076      183.199      209.672        0.113        0.045       32.359       11.308        0.122      343.728       20.046      860.974
09/12/2013  03:20:00       12.407       29.533       45.924       27.997       31.525       32.254      783.820      993.840     1040.327        0.298        0.141       32.034       30.422        0.902      343.276       19.275      861.013
09/12/2013  03:21:00       57.314       20.289       18.966       62.587       28.994       18.610     3917.085      840.671      346.337        0.458        0.255       60.799       12.518        0.042      343.107       18.985      861.059
09/12/2013  03:22:00       77.088       57.149       -0.089       23.573       16.737       20.983      555.699      280.133      440.305        0.524        0.064       95.961       12.971        0.018      342.988       18.783      861.056
09/12/2013  03:23:00      126.455       62.907       10.529       33.038       25.757       34.197     1091.509      663.409     1169.468        1.149        0.146      141.238       18.089        0.016      343.110       18.991      861.034
09/12/2013  03:24:00       78.549       55.699       34.351       30.779       19.182       16.983      947.350      367.961      288.413        0.603        0.080       96.293        9.987        0.011      343.166       19.086      861.030
09/12/2013  03:25:00       34.003       40.626       -1.002       25.309       11.429       16.424      640.543      130.629      269.750        0.192        0.052       52.978       12.920        0.059      343.229       19.193      861.047
09/12/2013  03:26:00       39.878       34.088       -4.545       15.594       14.023        9.498      243.176      196.634       90.205        0.165        0.027       52.462        8.155        0.024      343.325       19.356      861.056
09/12/2013  03:27:00       60.986       29.411       16.643       16.119       12.390       10.330      259.818      153.514      106.705        0.269        0.026       67.708        8.223        0.015      343.375       19.441      861.063
09/12/2013  03:28:00       33.749       10.300       11.895       18.064       15.433       11.835      326.297      238.174      140.074        0.105        0.035       35.285        7.026        0.040      343.274       19.272      861.066
09/12/2013  03:29:00       -8.468      -31.394        2.093       22.285       17.184       13.638      496.618      295.278      185.986        0.102        0.049       32.516       12.479        0.147      343.312       19.336      861.076
09/12/2013  03:30:00      -95.877        2.907      -12.161       26.990       18.038       10.591      728.478      325.387      112.178        0.526        0.058       95.921        9.582        0.010      343.121       19.009      861.090
09/12/2013  03:31:00     -101.790       29.983      -18.975       45.092       23.800       14.849     2033.274      566.457      220.506        0.722        0.141      106.114       11.528        0.012      342.980       18.771      861.113
09/12/2013  03:32:00      -41.314       -7.761      -12.163       29.805       20.999       15.346      888.357      440.971      235.485        0.174        0.078       42.037       15.762        0.141      343.109       18.989      861.121
09/12/2013  03:33:00      -19.449      -24.272       -3.892       14.041       21.434        7.969      197.151      459.414       63.503        0.085        0.036       31.103        4.734        0.023      343.585       19.801      861.110
09/12/2013  03:34:00       46.058      -42.224        5.818       25.307       15.064       13.902      640.464      226.935      193.254        0.250        0.053       62.484        9.298        0.022      343.624       19.867      861.092
09/12/2013  03:35:00       13.178       30.976       23.985       20.154       12.988       18.938      406.192      168.685      358.629        0.132        0.047       33.663       16.304        0.235      343.171       19.093      861.106
09/12/2013  03:36:00       18.848       39.114       -3.677       12.394       16.236        7.830      153.622      263.593       61.302        0.119        0.024       43.419        9.041        0.043      343.432       19.541      861.131
09/12/2013  03:37:00       61.367       15.278        9.567       22.216       26.001       13.649      493.533      676.036      186.295        0.272        0.068       63.240        8.408        0.018      343.344       19.388      861.134
09/12/2013  03:38:00       45.622      -69.117       -2.923       35.813       21.040       23.850     1282.541      442.674      568.824        0.458        0.115       82.816       19.570        0.056      343.126       19.018      861.110
09/12/2013  03:39:00       19.584      -66.646        1.802       34.073       37.117       32.117     1160.945     1377.645     1031.507        0.420        0.179       69.464       26.629        0.147      343.271       19.265      861.094
09/12/2013  03:40:00        9.765      -49.627        7.583       29.280       41.321       26.356      857.302     1707.448      694.658        0.294        0.163       50.579       13.191        0.068      343.312       19.335      861.110
09/12/2013  03:41:00        3.637      -54.470        5.973       18.159       32.840       14.455      329.738     1078.475      208.954        0.232        0.081       54.591       13.003        0.057      343.218       19.176      861.148
09/12/2013  03:42:00      -11.197      -10.647       -1.347       14.414       11.688        9.753      207.757      136.620       95.130        0.034        0.022       15.451        2.702        0.031      343.125       19.018      861.153
09/12/2013  03:43:00       12.303      -31.579       -2.457       15.104       10.291       10.797      228.137      105.903      116.571        0.080        0.023       33.891        9.046        0.071      343.054       18.895      861.137
09/12/2013  03:44:00        0.144      -61.744       -1.660       20.421       18.388       14.121      417.036      338.105      199.389        0.238        0.048       61.744       10.905        0.031      343.221       19.180      861.115
09/12/2013  03:45:00       16.180      -35.518       29.999       24.766       40.232       24.915      613.361     1618.593      620.777        0.264        0.143       39.030       24.446        0.392      343.220       19.178      861.087
09/12/2013  03:46:00      -18.445       -8.890       16.160       37.169       42.610       33.512     1381.543     1815.643     1123.054        0.250        0.216       20.476       22.841        1.244      343.180       19.111      861.087
09/12/2013  03:47:00      -90.744       35.621       -7.030       26.748       17.622       15.414      715.467      310.528      237.602        0.541        0.063       97.485       11.432        0.014      343.311       19.334      861.104
09/12/2013  03:48:00      -76.009       23.686       -8.918       23.011       24.810       16.324      529.486      615.538      266.483        0.391        0.071       79.614        9.343        0.014      343.011       18.821      861.116
09/12/2013  03:49:00      -14.841      -41.800       -0.671       34.272       14.444       15.002     1174.585      208.629      225.063        0.179        0.080       44.357       17.861        0.162      342.959       18.734      861.093
09/12/2013  03:50:00       23.728      -26.747        4.919       41.816       45.829       29.580     1748.595     2100.259      874.961        0.301        0.236       35.755       34.242        0.917      342.964       18.744      861.045
09/12/2013  03:51:00        7.751      -15.069       21.932       29.209       30.486       31.705      853.169      929.420     1005.228        0.178        0.139       16.946       21.435        1.600      342.959       18.735      861.037
09/12/2013  03:52:00      -35.648       43.592        2.441       50.232       38.619       29.353     2523.205     1491.419      861.579        0.403        0.244       56.312       35.966        0.408      342.823       18.502      861.111
09/12/2013  03:53:00     -128.675       73.438      -21.482       38.463       36.514       28.242     1479.406     1333.247      797.604        1.301        0.181      148.157       19.807        0.018      342.941       18.702      861.187
09/12/2013  03:54:00      -50.317        8.277       -4.539       57.244       32.858       20.490     3276.862     1079.671      419.834        0.370        0.239       50.993       13.773        0.073      342.990       18.788      861.204
09/12/2013  03:55:00       53.596      -63.062       -5.506       32.346       42.519       28.762     1046.259     1807.897      827.236        0.528        0.184       82.761       31.803        0.148      343.030       18.855      861.168
09/12/2013  03:56:00       75.671      -65.163      -17.578       39.462       50.871       31.963     1557.269     2587.880     1021.625        0.772        0.258       99.861       34.708        0.121      343.168       19.089      861.120
09/12/2013  03:57:00        2.534       15.231       39.178       34.286       25.588       20.393     1175.543      654.759      415.863        0.201        0.112       15.440       18.257        1.398      342.698       18.290      861.113
09/12/2013  03:58:00       -6.103       34.337       11.118       16.585       23.375       28.018      275.076      546.406      785.021        0.147        0.080       34.875       12.098        0.120      342.741       18.363      861.144
09/12/2013  03:59:00      -71.739       50.015      -16.609       39.254       19.680       14.563     1540.864      387.311      212.080        0.503        0.107       87.453        8.754        0.010      342.883       18.605      861.193
09/12/2013  04:00:00      -91.331        6.880      -10.291       28.661       26.091       20.248      821.472      680.754      409.996        0.520        0.096       91.589       19.152        0.044      342.710       18.309      861.220
09/12/2013  04:01:00      -61.180      -37.252        3.356       23.831       29.771       17.880      567.927      886.308      319.682        0.346        0.089       71.628       12.379        0.030      342.862       18.569      861.222
09/12/2013  04:02:00      -62.778      -37.265       -5.341       24.793       24.296       10.662      614.693      590.280      113.681        0.334        0.066       73.005        9.650        0.017      342.980       18.771      861.215
09/12/2013  04:03:00      -75.376      -23.653       -3.361       19.124       15.419       11.094      365.715      237.732      123.076        0.349        0.036       79.000        8.901        0.013      342.978       18.768      861.202
09/12/2013  04:04:00      -69.260      -30.496       -4.544       28.164       15.972       16.815      793.206      255.108      282.756        0.354        0.067       75.676       18.475        0.060      342.977       18.764      861.191
09/12/2013  04:05:00     -106.238      -60.566       -4.747       44.402       31.142       19.912     1971.580      969.794      396.501        0.916        0.167      122.290       10.823        0.008      342.966       18.746      861.185
09/12/2013  04:06:00     -129.238      -24.376       -7.543       49.693       29.666       21.216     2469.351      880.060      450.123        1.058        0.190      131.517       22.107        0.028      342.849       18.547      861.206
09/12/2013  04:07:00     -164.301        6.316      -11.655       59.153       37.242       28.778     3499.029     1386.939      828.154        1.644        0.286      164.423       29.125        0.031      342.741       18.361      861.236
09/12/2013  04:08:00     -104.462      -52.497        7.024       39.629       47.173       22.819     1570.485     2225.252      520.690        0.902        0.216      116.912       20.796        0.032      342.920       18.668      861.238
09/12/2013  04:09:00      -82.108      -53.867        5.564       37.282       27.707       22.203     1389.975      767.661      492.981        0.616        0.133       98.200       22.920        0.054      343.080       18.940      861.217
09/12/2013  04:10:00     -138.048      -75.771       -5.488       34.287       37.164       24.982     1175.603     1381.154      624.087        1.400        0.159      157.475       18.373        0.014      343.061       18.908      861.209
09/12/2013  04:11:00     -102.296      -60.951        4.190       47.539       32.472       20.941     2259.936     1054.406      438.536        0.897        0.188      119.078       20.049        0.028      342.999       18.802      861.221
09/12/2013  04:12:00     -100.355      -39.627       -3.178       33.723       21.986       16.105     1137.221      483.379      259.359        0.677        0.094      107.895       17.046        0.025      342.999       18.802      861.210
09/12/2013  04:13:00      -89.434      -48.959        0.606       28.840       24.383       15.571      831.741      594.515      242.449        0.603        0.083      101.958       13.531        0.018      343.029       18.853      861.205
09/12/2013  04:14:00     -103.743      -31.934       -2.837       25.917       29.023       16.243      671.694      842.358      263.826        0.678        0.089      108.547       12.117        0.012      343.026       18.847      861.207
09/12/2013  04:15:00     -115.588      -28.963       -3.280       33.361       25.369       18.217     1112.949      643.579      331.856        0.815        0.104      119.161       18.311        0.024      342.884       18.606      861.201
09/12/2013  04:16:00     -111.451      -41.473       -8.468       25.295       21.240       19.104      639.855      451.140      364.946        0.783        0.073      118.917       15.967        0.018      342.855       18.556      861.180
09/12/2013  04:17:00      -96.766      -48.836       -2.646       21.433       18.932       10.584      459.355      358.425      112.016        0.634        0.046      108.391        9.760        0.008      342.898       18.629      861.153
09/12/2013  04:18:00      -67.276      -21.829       -3.531       25.518       17.997       13.020      651.177      323.879      169.527        0.308        0.057       70.729       10.093        0.020      343.002       18.808      861.136
09/12/2013  04:19:00      -92.732      -15.096       -7.224       21.995       21.159       13.369      483.780      447.685      178.718        0.499        0.056       93.953       12.261        0.017      342.980       18.770      861.139
09/12/2013  04:20:00     -129.334        5.684      -16.041       30.273       23.471       15.820      916.450      550.875      250.265        0.937        0.086      129.459       11.786        0.008      342.767       18.406      861.160
09/12/2013  04:21:00     -117.455      -23.868       -6.152       33.377       24.447       20.622     1114.010      597.678      425.283        0.827        0.107      119.856       20.625        0.030      342.826       18.507      861.165
09/12/2013  04:22:00      -89.153      -19.415        0.404       27.581       17.373       13.858      760.720      301.814      192.058        0.479        0.063       91.242       14.464        0.025      342.896       18.627      861.148
09/12/2013  04:23:00     -112.615      -45.418       -3.422       23.652       18.608       13.386      559.426      346.246      179.180        0.792        0.054      121.429       12.119        0.010      342.896       18.627      861.135
09/12/2013  04:24:00     -108.246      -41.663       -6.736       20.351       16.880       10.595      414.176      284.947      112.246        0.715        0.041      115.987       12.960        0.012      342.778       18.427      861.132
09/12/2013  04:25:00      -63.363      -15.926        0.576       13.132       11.357       10.727      172.444      128.978      115.066        0.234        0.021       65.334        5.497        0.007      342.654       18.213      861.130
09/12/2013  04:26:00      -73.215       -0.540      -11.943       16.487       11.719        8.841      271.818      137.339       78.155        0.300        0.024       73.217        8.396        0.013      342.614       18.146      861.127
09/12/2013  04:27:00     -100.946       -8.756      -11.974       16.951       13.603       10.758      287.335      185.046      115.726        0.550        0.029      101.325        7.771        0.006      342.559       18.053      861.143
09/12/2013  04:28:00     -100.968      -14.950       -5.309       42.833       33.969       18.617     1834.687     1153.917      346.582        0.689        0.167      102.069       15.644        0.023      342.405       17.792      861.155
09/12/2013  04:29:00     -125.268      -23.466        1.627       54.881       50.351       29.747     3011.880     2535.236      884.868        1.134        0.322      127.447       27.728        0.047      342.260       17.545      861.162
09/12/2013  04:30:00      -97.582       -3.825       -0.349       36.803       33.806       22.796     1354.482     1142.861      519.664        0.628        0.151       97.657       23.255        0.057      342.276       17.573      861.151
09/12/2013  04:31:00      -71.628      -37.562        2.764       37.066       22.327       17.999     1373.900      498.515      323.952        0.437        0.110       80.880       18.754        0.054      342.426       17.827      861.140
09/12/2013  04:32:00     -124.285      -34.191       -1.808       33.229       24.945       14.241     1104.169      622.278      202.793        0.927        0.096      128.902       12.485        0.009      342.568       18.070      861.133
09/12/2013  04:33:00     -119.940      -29.413      -12.658       24.244       22.329       15.292      587.788      498.571      233.850        0.837        0.066      123.494        6.059        0.002      342.456       17.878      861.140
09/12/2013  04:34:00      -82.311      -11.158       -2.291       37.891       20.192       17.173     1435.693      407.703      294.911        0.452        0.107       83.064       22.453        0.073      342.389       17.764      861.140
09/12/2013  04:35:00     -104.676       -6.620      -10.523       30.681       19.699       17.682      941.335      388.055      312.652        0.638        0.082      104.886       16.682        0.025      342.403       17.787      861.130
09/12/2013  04:36:00     -133.303      -34.200      -13.344       30.716       25.891       15.632      943.456      670.329      244.359        1.049        0.093      137.620       11.575        0.007      342.452       17.873      861.134
09/12/2013  04:37:00     -113.002       -3.544       -5.713       34.808       30.384       18.163     1211.623      923.164      329.906        0.764        0.123      113.058       13.887        0.015      342.326       17.656      861.127
09/12/2013  04:38:00      -88.838        7.991       -7.559       33.138       20.526       14.791     1098.155      421.304      218.778        0.488        0.087       89.196       16.761        0.035      342.472       17.905      861.106
09/12/2013  04:39:00     -109.596      -16.765      -13.493       26.846       23.624       13.235      720.732      558.092      175.168        0.696        0.073      110.871       12.070        0.012      342.353       17.702      861.109
09/12/2013  04:40:00     -155.056       15.953      -13.150       42.204       32.383       15.906     1781.141     1048.673      252.988        1.378        0.154      155.875       12.352        0.006      342.262       17.548      861.131
09/12/2013  04:41:00     -157.645        0.920      -26.984       47.875       35.858       24.598     2291.992     1285.765      605.079        1.488        0.209      157.648       27.006        0.029      342.369       17.731      861.133
09/12/2013  04:42:00     -104.385      -35.517       -8.177       28.778       27.811       18.423      828.174      773.429      339.415        0.708        0.097      110.262       18.475        0.028      342.490       17.936      861.113
09/12/2013  04:43:00      -94.880      -51.632      -10.973       22.290       20.831       15.575      496.866      433.944      242.584        0.648        0.059      108.019        6.622        0.004      342.448       17.865      861.094
09/12/2013  04:44:00      -75.326      -39.655       -1.042       31.187       31.381       19.242      972.647      984.752      370.265        0.479        0.116       85.126       14.268        0.028      342.443       17.856      861.093
09/12/2013  04:45:00      -98.261        0.058       -0.034       19.402       34.575       13.972      376.453     1195.449      195.218        0.571        0.088       98.261       10.776        0.012      342.806       18.474      861.091
09/12/2013  04:46:00      -34.232      -18.787       -3.255       18.096       16.366       13.683      327.451      267.833      187.234        0.116        0.039       39.048       11.320        0.084      342.523       17.992      861.093
09/12/2013  04:47:00      -61.859        6.694       -7.447       18.512       10.444        8.895      342.692      109.083       79.124        0.223        0.027       62.220        4.694        0.006      342.424       17.824      861.083
09/12/2013  04:48:00     -114.302      -46.229      -18.028       21.090       17.009       10.962      444.803      289.305      120.160        0.819        0.043      123.296        4.411        0.001      342.419       17.816      861.082
09/12/2013  04:49:00      -95.010      -68.669       -4.781       53.719       32.081       22.129     2885.753     1029.172      489.709        0.908        0.220      117.228       18.202        0.024      342.235       17.502      861.096
09/12/2013  04:50:00      -39.961      -16.514        1.972       28.501       24.247       12.572      812.324      587.901      158.048        0.172        0.078       43.239       15.440        0.128      342.152       17.362      861.101
09/12/2013  04:51:00      -60.061      -10.731       -6.199       13.106       14.064       10.037      171.780      197.804      100.747        0.212        0.024       61.012        6.220        0.010      342.326       17.657      861.102
09/12/2013  04:52:00     -104.673      -16.895      -15.963       17.335       11.862        8.936      300.494      140.718       79.860        0.601        0.026      106.028        8.092        0.006      342.428       17.829      861.108
09/12/2013  04:53:00     -107.293      -53.675      -10.493       22.347       17.438       15.985      499.403      304.092      255.529        0.778        0.053      119.970       11.997        0.010      342.323       17.652      861.123
09/12/2013  04:54:00      -62.464      -35.892       -9.262       22.894       14.642       12.343      524.138      214.390      152.341        0.308        0.045       72.041        7.017        0.009      342.280       17.580      861.131
09/12/2013  04:55:00        2.714        0.233        8.656       31.010       12.304       13.161      961.624      151.383      173.224        0.068        0.064        2.724       11.244       17.043      342.200       17.444      861.143
09/12/2013  04:56:00       33.251       18.595      -11.015       23.063       29.922       21.430      531.912      895.321      459.231        0.173        0.094       38.097       16.115        0.179      342.175       17.401      861.149
09/12/2013  04:57:00       35.275       28.969       -6.264       22.790       19.472       25.305      519.379      379.173      640.347        0.183        0.077       45.646       15.378        0.114      342.365       17.726      861.155
09/12/2013  04:58:00       38.650       -7.961        8.006       21.358       36.106       27.788      456.143     1303.644      772.160        0.208        0.127       39.462       24.567        0.388      342.172       17.395      861.168
09/12/2013  04:59:00      -53.244       -4.494       -3.558       36.422        8.526       14.994     1326.530       72.698      224.826        0.225        0.081       53.433       17.120        0.103      342.139       17.341      861.185
09/12/2013  05:00:00      -87.626       -2.250      -15.943        6.638       14.752        6.682       44.066      217.615       44.651        0.412        0.015       87.655        5.219        0.004      342.304       17.620      861.216
09/12/2013  05:01:00      -84.906        8.799      -12.171       14.145       16.675       13.333      200.095      278.064      177.769        0.405        0.033       85.361        9.354        0.012      342.154       17.365      861.226
09/12/2013  05:02:00      -41.581      -25.786       -0.983       32.061       15.394        9.224     1027.887      236.986       85.077        0.187        0.067       48.927        9.904        0.041      342.153       17.363      861.220
09/12/2013  05:03:00       11.134      -15.510        9.022        8.287        9.292        9.701       68.674       86.339       94.115        0.035        0.012       19.092        7.966        0.174      342.277       17.574      861.211
09/12/2013  05:04:00       20.077      -12.192       -3.395       14.277       14.022       14.053      203.831      196.619      197.485        0.058        0.030       23.489        5.710        0.059      342.295       17.604      861.204
09/12/2013  05:05:00       16.414       -0.112       -6.874       20.571       21.165       19.257      423.160      447.947      370.821        0.078        0.062       16.414        9.875        0.362      342.117       17.302      861.195
09/12/2013  05:06:00       20.864      -14.792       -9.029       16.887       14.872       16.500      285.177      221.188      272.238        0.076        0.039       25.576        8.824        0.119      342.309       17.629      861.191
09/12/2013  05:07:00       -2.844        5.409       -5.144       12.325       13.999       15.709      151.910      195.980      246.782        0.033        0.030        6.111       12.678        4.304      342.694       18.283      861.197
09/12/2013  05:08:00        5.683      -33.300      -10.094       20.784       18.531       13.178      431.958      343.390      173.668        0.110        0.047       33.781        7.676        0.052      342.453       17.874      861.205
09/12/2013  05:09:00      -37.350      -23.219       -5.064        9.003        7.231        5.958       81.047       52.292       35.503        0.106        0.008       43.979        5.349        0.015      342.511       17.973      861.198
09/12/2013  05:10:00      -40.902      -28.685       -5.965        8.044        9.616        5.332       64.703       92.474       28.427        0.136        0.009       49.958        3.444        0.005      342.878       18.595      861.178
09/12/2013  05:11:00      -10.004      -12.120       -4.191       15.840       14.299       10.392      250.921      204.451      107.997        0.041        0.028       15.716       11.198        0.508      342.697       18.289      861.168
09/12/2013  05:12:00        8.415      -45.882       -0.678       11.151       12.460        7.737      124.340      155.248       59.860        0.126        0.017       46.647        6.276        0.018      342.827       18.508      861.170
09/12/2013  05:13:00      -33.465      -23.377        1.001       18.918       14.397        7.980      357.884      207.288       63.684        0.115        0.031       40.821        8.864        0.047      342.901       18.635      861.169
09/12/2013  05:14:00      -35.405      -19.529       -3.242        9.960       12.276        9.534       99.192      150.691       90.896        0.099        0.017       40.434        8.530        0.045      342.790       18.445      861.179
09/12/2013  05:15:00      -18.823        3.104        3.469       16.181       10.829        6.148      261.812      117.268       37.802        0.040        0.021       19.077        7.403        0.151      342.775       18.421      861.195
09/12/2013  05:16:00       16.974        4.099        5.621       24.568       13.987       23.517      603.577      195.628      553.067        0.084        0.068       17.462       14.804        0.719      342.529       18.003      861.216
09/12/2013  05:17:00       20.155       -2.303        4.911       17.149       16.738       16.988      294.096      280.156      288.588        0.065        0.043       20.286       10.162        0.251      342.186       17.420      861.232
09/12/2013  05:18:00       -2.096       -7.166       -7.837       12.938       20.518        9.160      167.400      420.993       83.907        0.039        0.034        7.467        7.044        0.890      342.105       17.281      861.238
09/12/2013  05:19:00        2.498      -13.495        0.915       28.660       12.398       11.432      821.409      153.708      130.691        0.065        0.055       13.724        8.166        0.354      342.156       17.367      861.237
09/12/2013  05:20:00      -50.523      -33.151       -5.309       12.939       13.087        6.466      167.417      171.259       41.810        0.203        0.019       60.428        6.704        0.012      342.210       17.460      861.234
09/12/2013  05:21:00      -66.752      -18.050       -6.170       10.236       14.176        6.168      104.772      200.970       38.049        0.258        0.017       69.149        4.849        0.005      342.037       17.167      861.231
09/12/2013  05:22:00      -91.146       -2.239      -10.726       30.655       15.076       12.531      939.745      227.276      157.035        0.488        0.066       91.173       14.776        0.026      341.895       16.925      861.239
09/12/2013  05:23:00      -87.264      -39.938       -6.339       30.177       20.028       15.105      910.626      401.127      228.158        0.539        0.077       95.969       11.891        0.015      341.706       16.605      861.243
09/12/2013  05:24:00      -30.126       -9.062        0.581       30.191       14.399        7.118      911.519      207.345       50.666        0.108        0.058       31.460        5.938        0.036      341.725       16.639      861.238
09/12/2013  05:25:00       -7.801        9.343       -3.890       11.387        5.652        6.178      129.660       31.947       38.172        0.018        0.010       12.172        6.070        0.249      342.483       17.924      861.238
09/12/2013  05:26:00       44.966        5.283        9.112       30.068       19.430       19.381      904.065      377.520      375.634        0.189        0.083       45.275       11.924        0.069      342.111       17.291      861.244
09/12/2013  05:27:00       28.664       -6.720        1.721       26.985       22.705       19.693      728.186      515.520      387.809        0.125        0.082       29.442       13.561        0.212      342.138       17.338      861.261
09/12/2013  05:28:00       13.501       12.939       -0.587       23.973       26.699       19.080      574.699      712.853      364.052        0.100        0.083       18.700        7.081        0.143      342.004       17.112      861.280
09/12/2013  05:29:00      -10.215       15.552       -6.534        8.184        5.824        5.141       66.974       33.920       26.430        0.026        0.006       18.607        3.434        0.034      342.443       17.857      861.287
09/12/2013  05:30:00        5.004       -0.992       11.500        7.817       12.962        8.295       61.102      168.023       68.802        0.023        0.015        5.101        6.328        1.539      342.349       17.697      861.271
09/12/2013  05:31:00       14.859      -34.027        0.315       18.768       25.541       10.763      352.221      652.335      115.851        0.125        0.056       37.130       13.769        0.138      342.294       17.603      861.249
09/12/2013  05:32:00       19.260      -30.539        6.132       24.820       35.192       17.154      616.024     1238.492      294.258        0.174        0.107       36.105       17.961        0.247      342.213       17.466      861.231
09/12/2013  05:33:00        8.488      -48.836        1.694       16.424       20.057       15.545      269.733      402.287      241.646        0.169        0.046       49.569        9.356        0.036      342.360       17.713      861.226
09/12/2013  05:34:00      -23.011       10.163        8.825       13.794       17.520       10.203      190.276      306.937      104.098        0.066        0.030       25.155        6.569        0.068      342.069       17.219      861.232
09/12/2013  05:35:00      -32.210       21.379        4.261       22.503       14.083       14.884      506.386      198.318      221.534        0.122        0.046       38.659       16.657        0.186      341.938       16.998      861.238
09/12/2013  05:36:00      -34.180        9.560       -5.588       15.224       14.342        6.309      231.761      205.704       39.805        0.088        0.024       35.491        8.234        0.054      342.020       17.137      861.241
09/12/2013  05:37:00      -48.307      -13.643       -2.246       14.217       13.803        7.413      202.125      190.524       54.953        0.149        0.022       50.197        5.886        0.014      342.050       17.190      861.247
09/12/2013  05:38:00      -96.132      -33.816       -2.001       22.113       18.736       10.121      488.965      351.024      102.441        0.567        0.047      101.907       10.194        0.010      341.974       17.059      861.255
09/12/2013  05:39:00      -77.895      -49.511       -4.856       26.955       17.562       15.245      726.579      308.410      232.397        0.490        0.063       92.299       14.322        0.024      341.939       17.000      861.259
09/12/2013  05:40:00      -43.770      -41.017       -3.219       34.094       24.923       15.068     1162.389      621.174      227.050        0.281        0.101       59.985       12.057        0.040      341.941       17.004      861.271
09/12/2013  05:41:00      -41.786      -63.574       -5.409       36.138       34.991       16.831     1305.930     1224.342      283.276        0.431        0.141       76.077       17.952        0.056      342.150       17.357      861.279
09/12/2013  05:42:00      -33.516      -50.869        5.829       26.425       40.985       15.443      698.257     1679.778      238.487        0.318        0.131       60.918       12.038        0.039      342.293       17.601      861.280
09/12/2013  05:43:00      -28.394      -45.418        5.454       36.558       38.043       19.022     1336.455     1447.251      361.842        0.302        0.157       53.563       18.646        0.121      342.324       17.654      861.274
09/12/2013  05:44:00        1.783        2.539       19.483       12.254       17.560       15.045      150.170      308.343      226.356        0.054        0.034        3.102        8.616        7.712      342.179       17.406      861.265
09/12/2013  05:45:00      -12.068      -36.012       10.594       23.744       26.829       19.824      563.759      719.789      392.974        0.162        0.084       37.980       18.026        0.225      342.388       17.762      861.264
09/12/2013  05:46:00      -46.058      -29.554        5.364       31.131       29.666       14.806      969.153      880.076      219.208        0.255        0.103       54.725       14.081        0.066      342.469       17.902      861.268
09/12/2013  05:47:00      -51.562      -35.152       -2.867       38.445       25.755       14.015     1477.992      663.324      196.417        0.312        0.117       62.405        8.543        0.019      342.170       17.392      861.280
09/12/2013  05:48:00      -68.890      -51.229       -7.550       32.371       28.349       15.108     1047.883      803.646      228.248        0.475        0.104       85.850       14.078        0.027      342.223       17.482      861.291
09/12/2013  05:49:00      -67.237      -51.751       -2.083       36.667       22.155       19.804     1344.494      490.826      392.216        0.471        0.111       84.847       11.381        0.018      342.131       17.327      861.287
09/12/2013  05:50:00      -57.022      -72.541        3.564       29.579       40.223       19.697      874.926     1617.922      387.980        0.570        0.144       92.270       17.312        0.035      342.161       17.376      861.285
09/12/2013  05:51:00      -92.849      -85.541       -9.914       26.732       29.979       14.927      714.577      898.728      222.810        0.894        0.092      126.246        7.206        0.003      342.134       17.330      861.295
09/12/2013  05:52:00      -90.401      -59.093        5.377       47.979       39.160       30.325     2302.032     1533.541      919.618        0.822        0.238      108.001       26.203        0.059      341.970       17.053      861.325
09/12/2013  05:53:00     -116.049      -44.900        0.282       46.769       34.963       24.119     2187.342     1222.433      581.741        0.974        0.200      124.432       12.968        0.011      341.958       17.034      861.354
09/12/2013  05:54:00      -79.482      -38.733        0.070       37.226       26.512       17.963     1385.762      702.899      322.660        0.511        0.121       88.417       13.020        0.022      341.925       16.977      861.365
09/12/2013  05:55:00      -69.263      -32.412        2.024       20.018       25.498       12.711      400.721      650.165      161.580        0.353        0.061       76.471       10.010        0.017      341.977       17.065      861.358
09/12/2013  05:56:00      -92.300      -14.628       -3.581       16.781       11.230       13.831      281.588      126.110      191.289        0.467        0.030       93.452       10.063        0.012      341.888       16.914      861.350
09/12/2013  05:57:00      -88.115      -12.633       -3.831       22.176       19.748       10.047      491.769      389.999      100.947        0.446        0.049       89.016       10.346        0.014      341.916       16.961      861.356
09/12/2013  05:58:00      -50.227      -40.953        1.272       29.550       19.167       14.947      873.173      367.371      223.422        0.283        0.073       64.807       11.813        0.033      341.902       16.938      861.358
09/12/2013  05:59:00      -12.465      -25.873       -0.385       24.128       19.313       15.711      582.154      373.009      246.841        0.101        0.060       28.719       11.073        0.149      341.967       17.047      861.357
09/12/2013  06:00:00      -51.501      -54.840       -5.908       22.782       26.651       14.577      519.038      710.300      212.499        0.357        0.072       75.231       11.919        0.025      342.063       17.209      861.372
09/12/2013  06:01:00      -89.137      -18.939      -14.544       17.273       17.222       12.324      298.350      296.582      151.888        0.463        0.037       91.127        9.212        0.010      342.164       17.380      861.389
09/12/2013  06:02:00      -50.155       -0.129        1.387       26.374       29.861       18.123      695.610      891.704      328.429        0.222        0.096       50.155       10.933        0.048      342.116       17.302      861.403
09/12/2013  06:03:00      -28.540      -37.493       -5.480       24.398       33.426       14.322      595.252     1117.285      205.134        0.208        0.096       47.120       14.145        0.090      341.985       17.079      861.406
09/12/2013  06:04:00       -1.666      -47.367       -2.886       31.074       17.037       14.540      965.597      290.251      211.399        0.186        0.073       47.396        8.498        0.032      341.867       16.878      861.422
09/12/2013  06:05:00        3.243      -27.036       -2.699       13.628       20.856        8.522      185.723      434.987       72.621        0.072        0.035       27.230        7.290        0.072      341.896       16.926      861.440
09/12/2013  06:06:00      -18.491       18.332        5.526       25.106       29.583       13.928      630.325      875.176      193.976        0.120        0.085       26.038        8.434        0.105      341.823       16.804      861.464
09/12/2013  06:07:00      -73.358       63.468      -14.422       21.779       26.389       15.816      474.337      696.389      250.138        0.552        0.071       97.003        8.589        0.008      341.918       16.965      861.493
09/12/2013  06:08:00      -33.807       32.016        1.805       20.288       20.865       16.342      411.599      435.330      267.055        0.164        0.056       46.561       14.272        0.094      341.828       16.812      861.506
09/12/2013  06:09:00       24.288       17.001       19.577       19.810       18.190       12.829      392.431      330.865      164.594        0.107        0.044       29.647       12.566        0.180      341.828       16.812      861.498
09/12/2013  06:10:00       41.777       14.409       14.088       11.709       16.530       19.295      137.110      273.251      372.285        0.147        0.039       44.192       12.173        0.076      341.656       16.521      861.494
09/12/2013  06:11:00       29.741       19.382       -2.077        6.737        9.789        9.735       45.381       95.821       94.779        0.075        0.012       35.499        7.048        0.039      341.753       16.686      861.501
09/12/2013  06:12:00       30.279       31.420       -5.040       15.721       21.959       15.658      247.151      482.211      245.166        0.145        0.049       43.635       14.408        0.109      341.765       16.706      861.511
09/12/2013  06:13:00       -2.870        2.587       11.599        9.056       10.076       10.789       82.009      101.524      116.403        0.022        0.015        3.864        4.420        1.308      341.607       16.437      861.515
09/12/2013  06:14:00       -0.609      -24.500      -11.568       15.728       15.846       13.451      247.363      251.086      180.940        0.071        0.034       24.508       11.502        0.220      341.501       16.258      861.522
09/12/2013  06:15:00       -0.299      -25.372       -3.868       24.620       19.525       21.244      606.128      381.210      451.305        0.105        0.072       25.374        6.959        0.075      341.539       16.322      861.539
09/12/2013  06:16:00       10.166      -57.927      -10.986       24.344       27.237       21.864      592.622      741.828      478.033        0.270        0.091       58.812       17.931        0.093      341.758       16.692      861.523
09/12/2013  06:17:00        2.105      -51.572       -5.641       26.965       17.684       24.334      727.112      312.731      592.131        0.216        0.082       51.615       18.671        0.131      341.797       16.759      861.510
09/12/2013  06:18:00        4.279      -36.655      -12.321       21.659       21.675       18.898      469.118      469.802      357.117        0.140        0.065       36.904        5.722        0.024      341.802       16.768      861.512
09/12/2013  06:19:00      -16.506       -1.680        1.330       21.809       25.840        9.557      475.617      667.689       91.327        0.076        0.062       16.592        7.724        0.217      341.913       16.954      861.543
09/12/2013  06:20:00      -38.610       24.221        0.948       27.873       33.621       16.834      776.905     1130.402      283.378        0.213        0.110       45.578       15.581        0.117      341.902       16.938      861.566
09/12/2013  06:21:00      -10.854      -30.743       -4.753       44.476       13.160       11.569     1978.118      173.177      133.837        0.168        0.114       32.602       12.960        0.158      341.769       16.713      861.568
09/12/2013  06:22:00       36.250      -46.059        3.240       32.351       46.529       25.297     1046.594     2164.950      639.951        0.365        0.193       58.613       13.240        0.051      341.738       16.660      861.545
09/12/2013  06:23:00       39.483      -50.717        3.802       49.761       47.326       33.197     2476.147     2239.710     1102.015        0.498        0.291       64.274       27.399        0.182      341.604       16.431      861.520
09/12/2013  06:24:00       22.922        7.585       -1.071       27.095       56.078       21.842      734.130     3144.754      477.094        0.247        0.218       24.144       16.527        0.469      341.847       16.843      861.526
09/12/2013  06:25:00       -8.024       28.655       -1.469       20.831       17.400       10.429      433.933      302.761      108.760        0.087        0.042       29.757        9.994        0.113      342.004       17.111      861.561
09/12/2013  06:26:00      -51.878       49.320      -12.344       20.619       26.951       14.190      425.147      726.357      201.346        0.331        0.068       71.580       16.346        0.052      342.034       17.162      861.589
09/12/2013  06:27:00      -22.587       30.243      -11.280       21.025       19.215       14.737      442.059      369.216      217.175        0.129        0.051       37.747       16.399        0.189      342.041       17.173      861.605
09/12/2013  06:28:00       14.848        4.762        1.139       15.989       17.949       13.327      255.648      322.173      177.616        0.050        0.038       15.593        7.927        0.258      341.941       17.003      861.618
09/12/2013  06:29:00       24.059       -5.535       -3.776       16.109       18.897       17.587      259.510      357.105      309.302        0.077        0.046       24.687       10.613        0.185      341.766       16.706      861.632
09/12/2013  06:30:00        7.269       -3.769       -9.494       23.236       32.473       20.495      539.906     1054.470      420.059        0.109        0.101        8.187       12.506        2.333      341.696       16.587      861.644
09/12/2013  06:31:00        5.185       21.579       22.229       19.674       17.175       10.830      387.075      294.985      117.290        0.089        0.040       22.193       10.631        0.229      341.876       16.894      861.673
09/12/2013  06:32:00       10.502        6.199       -1.104       10.432       14.464       16.398      108.831      209.196      268.892        0.037        0.029       12.195        8.114        0.443      341.831       16.818      861.688
09/12/2013  06:33:00       46.094       -8.121       -4.621       16.212       13.790       15.410      262.842      190.174      237.471        0.145        0.035       46.804        8.672        0.034      341.878       16.896      861.704
09/12/2013  06:34:00       22.359       21.931        6.690       15.555       15.083       18.574      241.964      227.495      345.001        0.092        0.041       31.319        9.656        0.095      341.933       16.988      861.710
09/12/2013  06:35:00       -8.762      -29.040      -10.222       18.766       29.169       14.331      352.151      850.813      205.385        0.122        0.070       30.333        4.776        0.025      341.905       16.942      861.713
09/12/2013  06:36:00       -9.701      -31.552       -5.493       16.906       27.187       18.541      285.829      739.142      343.775        0.124        0.068       33.010        4.760        0.021      341.912       16.954      861.716
09/12/2013  06:37:00       -6.956       -4.521        3.057        4.917        6.607        5.562       24.172       43.659       30.933        0.009        0.005        8.296        2.928        0.125      341.986       17.079      861.734
09/12/2013  06:38:00      -72.056      -26.317       -6.876       36.791        9.041       10.008     1353.564       81.747      100.165        0.373        0.077       76.711       16.579        0.047      341.873       16.888      861.748
09/12/2013  06:39:00      -82.454      -32.818        0.095       23.939       13.841       12.337      573.083      191.569      152.201        0.440        0.046       88.745       14.617        0.027      341.864       16.872      861.740
09/12/2013  06:40:00       -1.095      -25.298        9.833       14.319       19.169       12.289      205.039      367.446      151.030        0.073        0.036       25.322       11.075        0.191      341.921       16.968      861.741
09/12/2013  06:41:00      -34.815      -23.989       -2.229       18.521       18.847        9.895      343.034      355.224       97.919        0.129        0.040       42.280        7.932        0.035      342.054       17.196      861.744
09/12/2013  06:42:00      -78.215      -23.626      -12.239       17.705       11.501        9.432      313.470      132.267       88.966        0.368        0.027       81.705        5.164        0.004      342.130       17.322      861.754
09/12/2013  06:43:00      -84.524      -39.348      -10.965       12.107       12.778        9.038      146.589      163.289       81.686        0.460        0.020       93.234        5.069        0.003      342.082       17.244      861.754
09/12/2013  06:44:00      -84.438      -29.837       -6.998       12.482       10.306        8.004      155.792      106.205       64.068        0.420        0.016       89.555        5.989        0.004      342.071       17.223      861.758
09/12/2013  06:45:00      -56.502      -27.942       -2.560       38.564       22.439       11.627     1487.148      503.488      135.180        0.305        0.106       63.034       13.561        0.046      342.080       17.239      861.759
09/12/2013  06:46:00      -16.935      -12.820       -0.551       19.216       11.621       10.817      369.251      135.047      117.017        0.054        0.031       21.240        9.794        0.213      342.084       17.246      861.767
09/12/2013  06:47:00      -74.495      -41.087       -4.901       17.386       14.089       13.446      302.256      198.514      180.802        0.397        0.034       85.074       11.154        0.017      342.089       17.253      861.792
09/12/2013  06:48:00      -88.879      -44.526       -5.436       21.496       17.186       13.754      462.086      295.342      189.164        0.543        0.047       99.409       13.700        0.019      342.066       17.212      861.817
09/12/2013  06:49:00      -73.857      -23.990       -7.581        8.760        8.319        7.123       76.732       69.203       50.744        0.314        0.010       77.655        3.178        0.002      342.010       17.122      861.832
09/12/2013  06:50:00      -64.127      -23.951       -6.918       10.004       10.033        4.857      100.088      100.660       23.591        0.248        0.011       68.454        3.518        0.003      341.989       17.086      861.827
09/12/2013  06:51:00      -55.438      -30.663       -3.902       22.414       14.027       11.991      502.387      196.759      143.780        0.244        0.042       63.353        9.087        0.021      342.037       17.167      861.820
09/12/2013  06:52:00      -84.297      -19.624      -11.730       10.168        9.698        8.602      103.397       94.045       73.987        0.395        0.014       86.551        4.405        0.003      342.080       17.239      861.816
09/12/2013  06:53:00      -67.131      -40.984      -12.418       11.023       11.121        7.716      121.517      123.676       59.530        0.332        0.015       78.652        5.431        0.005      342.114       17.298      861.821
09/12/2013  06:54:00      -44.441      -15.715        2.551       37.847       23.765       18.222     1432.387      564.766      332.027        0.228        0.116       47.138       13.504        0.082      342.058       17.202      861.815
09/12/2013  06:55:00      -75.331      -22.777        4.472       24.875       23.001       13.369      618.783      529.029      178.735        0.377        0.066       78.699        6.057        0.006      342.043       17.175      861.811
09/12/2013  06:56:00      -95.931      -26.822       -9.580       28.194       22.919       12.995      794.875      525.301      168.862        0.575        0.074       99.610        7.194        0.005      341.995       17.095      861.791
09/12/2013  06:57:00      -97.318      -25.163       -1.674       25.127       30.946       16.801      631.377      957.686      282.273        0.599        0.094      100.518       10.579        0.011      341.909       16.949      861.778
09/12/2013  06:58:00      -59.146      -23.076       -2.631       21.867       15.231       12.388      478.170      231.974      153.471        0.245        0.043       63.488        5.526        0.008      341.891       16.919      861.778
09/12/2013  06:59:00      -37.860      -13.308       -4.058       34.971       19.166       11.602     1222.938      367.339      134.615        0.168        0.086       40.131       11.395        0.081      341.848       16.846      861.783
09/12/2013  07:00:00      -77.814       -8.003      -13.823       35.079       19.113       13.030     1230.519      365.294      169.790        0.404        0.088       78.225       15.077        0.037      341.874       16.888      861.798
09/12/2013  07:01:00     -115.050       -8.329      -12.006       30.737       24.676       19.908      944.782      608.919      396.310        0.770        0.098      115.351       18.484        0.026      341.842       16.837      861.819
09/12/2013  07:02:00     -105.796        1.074       -9.676       30.646       23.976       19.741      939.163      574.833      389.703        0.660        0.095      105.801       18.288        0.030      341.835       16.824      861.824
09/12/2013  07:03:00      -78.839      -17.656        2.099       24.170       29.475       16.061      584.178      868.800      257.941        0.412        0.086       80.792       13.456        0.028      341.912       16.953      861.825
09/12/2013  07:04:00      -33.229      -28.192        0.152       36.113       19.704       15.929     1304.138      388.244      253.736        0.192        0.097       43.577       15.757        0.131      342.053       17.191      861.822
09/12/2013  07:05:00      -56.682      -33.132       -3.597       23.678       17.382       11.542      560.639      302.130      133.210        0.266        0.050       65.655        8.647        0.017      342.106       17.282      861.821
09/12/2013  07:06:00      -62.042      -34.371       -1.973       24.336       16.925        8.298      592.246      286.459       68.859        0.299        0.047       70.926       11.756        0.027      342.110       17.291      861.816
09/12/2013  07:07:00      -68.280      -30.816       -0.090       25.179       18.634       17.026      633.990      347.235      289.872        0.344        0.064       74.911       16.278        0.047      342.108       17.287      861.808
09/12/2013  07:08:00      -11.929      -21.049       14.562       33.782       19.390       17.649     1141.257      375.959      311.497        0.131        0.091       24.194       18.168        0.564      342.174       17.398      861.805
09/12/2013  07:09:00      -11.527      -55.729       17.627       50.084       35.356       31.837     2508.381     1250.067     1013.622        0.416        0.239       56.908       31.303        0.303      342.179       17.406      861.817
09/12/2013  07:10:00      -77.547      -94.074       -9.887       56.826       50.802       32.697     3229.183     2580.886     1069.089        1.092        0.344      121.915       26.196        0.046      342.178       17.406      861.833
09/12/2013  07:11:00      -76.060      -50.982        0.188       54.797       39.588       28.574     3002.657     1567.193      816.455        0.688        0.269       91.566       30.237        0.109      342.209       17.457      861.853
09/12/2013  07:12:00     -132.456      -94.004       -9.901       53.493       43.074       29.737     2861.494     1855.356      884.260        1.604        0.280      162.423       24.403        0.023      342.080       17.237      861.880
09/12/2013  07:13:00     -134.715     -119.282       -0.407       72.978       59.442       40.908     5325.720     3533.404     1673.505        2.145        0.527      179.934       40.772        0.051      342.081       17.237      861.900
09/12/2013  07:14:00     -116.254     -123.612        2.266       70.442       48.698       39.728     4962.128     2371.501     1578.310        1.885        0.446      169.690       43.517        0.066      342.156       17.366      861.914
09/12/2013  07:15:00     -134.429      -97.195       -6.286       79.131       66.446       36.911     6261.746     4415.068     1362.457        1.980        0.602      165.885       39.411        0.056      342.192       17.429      861.912
09/12/2013  07:16:00     -111.141      -99.047       -9.434       52.910       46.431       31.354     2799.477     2155.811      983.073        1.409        0.297      148.871       22.055        0.022      342.153       17.363      861.913
09/12/2013  07:17:00      -99.956      -72.259       -8.433       40.942       41.509       24.647     1676.224     1722.970      607.485        0.964        0.200      123.339       20.519        0.028      342.111       17.292      861.913
09/12/2013  07:18:00     -108.020     -105.560      -14.252       42.669       35.929       24.772     1820.618     1290.868      613.673        1.337        0.186      151.034       26.917        0.032      342.080       17.237      861.923
09/12/2013  07:19:00      -95.895      -37.575       -5.674       24.717       40.510       20.870      610.921     1641.064      435.575        0.666        0.134      102.994       15.513        0.023      342.069       17.219      861.926
09/12/2013  07:20:00     -148.231      -46.781        0.378       41.860       32.530       21.307     1752.272     1058.229      453.972        1.371        0.163      155.437       22.251        0.020      342.114       17.296      861.937
09/12/2013  07:21:00     -115.434      -49.502       -0.537       45.304       34.167       22.551     2052.461     1167.379      508.541        0.975        0.186      125.600       23.050        0.034      342.095       17.263      861.940
09/12/2013  07:22:00      -67.056      -47.648        7.220       58.246       43.103       30.136     3392.605     1857.841      908.194        0.649        0.308       82.260       31.754        0.149      342.167       17.387      861.925
09/12/2013  07:23:00      -75.265      -48.887       -2.630       27.926       29.824       21.459      779.851      889.466      460.468        0.510        0.106       89.748       18.668        0.043      342.183       17.416      861.911
09/12/2013  07:24:00      -60.691      -51.677        7.027       33.755       24.378       19.718     1139.378      594.298      388.803        0.426        0.106       79.712       18.829        0.056      342.203       17.449      861.911
09/12/2013  07:25:00     -105.470      -61.737       -3.615       51.327       36.290       22.810     2634.463     1316.942      520.279        0.971        0.224      122.210       27.512        0.051      342.195       17.434      861.925
09/12/2013  07:26:00     -107.826      -60.501       -7.260       38.325       21.546       16.162     1468.781      464.228      261.210        0.877        0.110      123.640       19.040        0.024      342.228       17.491      861.926
09/12/2013  07:27:00      -95.926      -21.883       -6.885       28.398       25.820       14.975      806.447      666.668      224.265        0.571        0.085       98.391       10.523        0.011      342.219       17.477      861.936
09/12/2013  07:28:00      -32.969      -10.815        1.722       28.474       22.424       13.923      810.785      502.834      193.849        0.136        0.075       34.698       10.573        0.093      342.232       17.499      861.939
09/12/2013  07:29:00       -3.517        2.806        6.487       10.667       14.769        8.867      113.775      218.133       78.620        0.024        0.021        4.499        3.489        0.601      342.251       17.531      861.934
09/12/2013  07:30:00      -14.666       -0.934       -1.053        6.271       13.011        6.382       39.323      169.284       40.733        0.023        0.012       14.696        5.864        0.159      342.227       17.489      861.920
09/12/2013  07:31:00       -6.117      -15.745       -0.803       16.344       19.506       10.190      267.125      380.495      103.840        0.052        0.038       16.891       12.341        0.534      342.214       17.468      861.920
09/12/2013  07:32:00      -18.375      -10.143       -8.852       43.450       12.098       10.188     1887.907      146.358      103.789        0.133        0.107       20.989       14.074        0.450      342.140       17.341      861.934
09/12/2013  07:33:00     -100.619      -48.035       -4.205       26.847       20.008       13.645      720.788      400.317      186.191        0.688        0.065      111.497       13.594        0.015      342.331       17.666      861.947
09/12/2013  07:34:00     -137.031      -70.727       -4.473       21.061       22.867       17.862      443.580      522.882      319.041        1.254        0.064      154.207        5.875        0.001      342.281       17.579      861.959
09/12/2013  07:35:00      -45.391      -31.385        0.513       48.703       36.074       26.496     2371.963     1301.330      702.020        0.371        0.219       55.185       27.350        0.246      342.303       17.619      861.967
09/12/2013  07:36:00      -19.666      -32.326       11.723       39.986       25.793       16.348     1598.851      665.257      267.246        0.205        0.127       37.838       21.504        0.323      342.411       17.801      861.961
09/12/2013  07:37:00      -15.271      -26.262       12.259       27.499       20.687       19.680      756.175      427.947      387.307        0.132        0.079       30.379       11.403        0.141      342.537       18.015      861.964
09/12/2013  07:38:00      -33.704      -41.431        9.300       38.094       21.398       20.662     1451.166      457.859      426.918        0.264        0.117       53.409       20.902        0.153      342.625       18.164      861.973
09/12/2013  07:39:00      -63.625      -53.245        2.254       38.717       31.855       19.813     1499.002     1014.769      392.574        0.490        0.145       82.965       18.485        0.050      342.600       18.122      861.982
09/12/2013  07:40:00      -40.872      -27.722       -0.027       37.638       31.380       19.949     1416.594      984.706      397.946        0.262        0.140       49.386       23.424        0.225      342.594       18.113      861.993
09/12/2013  07:41:00      -43.004      -75.095        1.030       28.078       12.865       15.904      788.367      165.511      252.937        0.435        0.060       86.536       12.914        0.022      342.774       18.418      861.995
09/12/2013  07:42:00      -31.055      -69.292        2.484       16.605       12.990        8.765      275.733      168.742       76.832        0.315        0.026       75.933        4.609        0.004      342.727       18.338      861.995
09/12/2013  07:43:00      -70.011      -58.648        0.795       29.848       23.589       20.510      890.912      556.449      420.671        0.510        0.093       91.330       16.469        0.033      342.741       18.363      861.984
09/12/2013  07:44:00      -70.295      -59.044       -0.262       30.139       36.058       20.882      908.352     1300.208      436.043        0.554        0.132       91.802       14.442        0.025      342.728       18.340      861.974
09/12/2013  07:45:00      -91.613      -48.743       -4.787       30.692       20.540       15.814      942.022      421.897      250.095        0.620        0.081      103.773       11.804        0.013      342.682       18.261      861.969
09/12/2013  07:46:00      -66.917      -35.820       -3.580       27.007       27.242       14.465      729.393      742.131      209.226        0.373        0.084       75.901       12.679        0.028      342.693       18.279      861.956
09/12/2013  07:47:00      -16.240      -77.501       -0.529       22.978       24.086       16.685      527.995      580.138      278.396        0.383        0.069       79.184       11.592        0.021      342.743       18.366      861.943
09/12/2013  07:48:00      -32.439      -55.872        4.871       27.845       45.069       15.837      775.337     2031.213      250.820        0.363        0.153       64.606       11.860        0.034      342.799       18.461      861.933
09/12/2013  07:49:00     -102.123      -76.607       -5.921       59.100       30.464       27.464     3492.820      928.028      754.245        1.075        0.259      127.663       30.553        0.057      342.766       18.406      861.940
09/12/2013  07:50:00      -89.177      -84.337       -1.581       42.781       55.423       25.762     1830.197     3071.702      663.694        1.032        0.278      122.741       13.752        0.013      342.734       18.351      861.958
09/12/2013  07:51:00     -119.741      -84.585        3.713       55.733       54.783       33.997     3106.194     3001.123     1155.811        1.438        0.363      146.603       34.161        0.054      342.678       18.256      861.964
09/12/2013  07:52:00     -134.382      -86.429        4.286       48.880       64.702       35.151     2389.299     4186.339     1235.587        1.668        0.391      159.776       32.145        0.040      342.674       18.249      861.974
09/12/2013  07:53:00      -97.440      -74.467        1.124       55.751       41.193       30.640     3108.214     1696.866      938.782        1.039        0.287      122.637       18.705        0.023      342.694       18.282      861.987
09/12/2013  07:54:00      -74.390      -76.709       11.845       48.367       36.303       27.124     2339.358     1317.890      735.699        0.797        0.220      106.856       24.573        0.053      342.732       18.347      861.983
09/12/2013  07:55:00      -87.329      -81.285       -5.641       63.600       53.866       34.582     4045.023     2901.500     1195.894        1.120        0.407      119.305       31.351        0.069      342.735       18.351      861.979
09/12/2013  07:56:00      -77.366      -57.295       -1.992       61.992       42.356       26.927     3843.048     1794.000      725.080        0.782        0.318       96.272       24.373        0.064      342.747       18.374      861.984
09/12/2013  07:57:00      -94.587      -51.696       -0.646       45.403       32.343       23.870     2061.390     1046.052      569.798        0.765        0.184      107.792       20.522        0.036      342.725       18.335      861.988
09/12/2013  07:58:00      -40.292      -42.540        4.010       59.494       31.054       17.634     3539.567      964.368      310.975        0.413        0.241       58.592       20.064        0.117      342.747       18.373      861.981
09/12/2013  07:59:00      -51.635      -64.221       -4.525       36.058       24.432       17.271     1300.177      596.921      298.275        0.450        0.110       82.404       19.237        0.054      342.766       18.406      861.975
09/12/2013  08:00:00      -40.892      -66.683        5.589       29.915       26.808       16.169      894.896      718.681      261.441        0.401        0.094       78.223       16.067        0.042      342.787       18.442      861.985
09/12/2013  08:01:00      -65.897      -54.721       -5.359       23.562       25.718       15.904      555.146      661.418      252.939        0.442        0.073       85.655        6.984        0.007      342.813       18.486      861.989
09/12/2013  08:02:00     -104.848      -45.893       -5.198       28.232       22.234       16.794      797.046      494.350      282.037        0.735        0.079      114.452       15.513        0.018      342.822       18.501      861.997
09/12/2013  08:03:00      -94.451      -57.865       -6.601       27.168       18.798       13.846      738.094      353.378      191.721        0.680        0.064      110.767       14.485        0.017      342.805       18.469      862.013
09/12/2013  08:04:00      -55.857      -54.655       -8.283       27.666       19.011       12.959      765.401      361.426      167.935        0.374        0.065       78.149       14.089        0.033      342.870       18.583      862.034
09/12/2013  08:05:00       -7.281      -29.658      -14.541       15.827       13.489       15.883      250.508      181.951      252.255        0.091        0.034       30.539        8.639        0.080      342.880       18.599      862.038
09/12/2013  08:06:00       -0.584      -47.294       -1.834       20.251       30.780       18.592      410.090      947.392      345.671        0.197        0.085       47.298        2.282        0.002      342.677       18.252      862.051
09/12/2013  08:07:00        1.111      -20.993       -4.494       18.247       14.705        8.525      332.971      216.237       72.684        0.054        0.031       21.023        5.723        0.074      342.835       18.522      862.070
09/12/2013  08:08:00       17.685      -12.415        9.805       31.316       26.668       23.589      980.721      711.201      556.451        0.141        0.112       21.608       17.066        0.624      342.581       18.091      862.083
09/12/2013  08:09:00       12.763      -18.454       -3.687       23.276       15.632       17.586      541.781      244.360      309.265        0.081        0.055       22.438       10.194        0.206      342.554       18.045      862.096
09/12/2013  08:10:00       -0.562      -45.317       -4.830       23.944       26.531       17.953      573.315      703.899      322.302        0.184        0.080       45.320       17.770        0.154      342.686       18.271      862.116
09/12/2013  08:11:00       -2.673      -64.566        2.259       16.624       25.776       12.612      276.367      664.408      159.072        0.264        0.055       64.621       13.935        0.046      343.005       18.814      862.130
09/12/2013  08:12:00       48.309      -28.136       10.663       30.102       21.060       23.891      906.120      443.515      570.759        0.258        0.096       55.905       15.408        0.076      342.493       17.940      862.121
09/12/2013  08:13:00        7.527        0.312        6.062       43.967       22.242       21.144     1933.099      494.689      447.084        0.148        0.144        7.534       18.616        6.106      342.629       18.173      862.136
09/12/2013  08:14:00       15.659        3.010        2.163       25.758       25.810       18.306      663.472      666.148      335.112        0.096        0.083       15.946        9.743        0.373      342.571       18.075      862.184
09/12/2013  08:15:00       22.652       -8.339       22.572       21.666       24.637       16.403      469.428      607.003      269.061        0.122        0.067       24.138       13.364        0.307      342.609       18.138      862.212
09/12/2013  08:16:00       12.514      -19.090       14.015       26.406       23.078       16.314      697.288      532.587      266.161        0.111        0.075       22.826        8.578        0.141      342.609       18.138      862.225
09/12/2013  08:17:00       19.516      -10.693       -1.477       31.936       19.059       21.084     1019.922      363.230      444.542        0.116        0.091       22.254       12.824        0.332      342.512       17.973      862.227
09/12/2013  08:18:00        1.479       -1.247        4.490       15.221       15.868       16.278      231.688      251.802      264.958        0.039        0.037        1.934       10.815       31.266      342.588       18.102      862.238
09/12/2013  08:19:00      -31.258      -12.257       -6.738       11.951        8.581        6.731      142.834       73.638       45.304        0.072        0.013       33.575        2.963        0.008      342.725       18.335      862.237
09/12/2013  08:20:00      -49.231        0.177       -2.454       18.784       12.210        9.542      352.823      149.094       91.052        0.151        0.030       49.231        7.927        0.026      342.839       18.531      862.249
09/12/2013  08:21:00      -22.855      -12.211       -9.003       17.431       19.727        7.567      303.836      389.150       57.267        0.075        0.038       25.913       10.290        0.158      342.898       18.628      862.253
09/12/2013  08:22:00       17.803      -19.808        6.189       25.869       32.100       19.761      669.205     1030.426      390.489        0.142        0.105       26.633       22.082        0.687      342.765       18.404      862.238
09/12/2013  08:23:00       17.236      -19.789      -12.625       19.533       17.299       12.131      381.545      299.269      147.155        0.084        0.041       26.243        5.906        0.051      342.587       18.101      862.245
09/12/2013  08:24:00       15.385      -14.238       13.459       21.414       23.234       23.895      458.561      539.835      570.960        0.109        0.078       20.962       17.070        0.663      342.841       18.533      862.251
09/12/2013  08:25:00      -49.558      -24.758        4.798       46.744       16.253       13.772     2184.982      264.174      189.660        0.286        0.132       55.398        8.927        0.026      343.044       18.879      862.237
09/12/2013  08:26:00      -32.431      -14.436       12.665       33.751       25.282       14.263     1139.104      639.186      203.430        0.170        0.099       35.499       13.889        0.153      343.149       19.058      862.227
09/12/2013  08:27:00      -54.884      -26.121        6.461       45.506       22.257       20.528     2070.807      495.363      421.412        0.336        0.149       60.783       20.140        0.110      343.115       19.001      862.223
09/12/2013  08:28:00      -63.965      -46.517       -2.691       40.199       36.777       18.319     1615.920     1352.524      335.568        0.478        0.165       79.091       19.079        0.058      343.146       19.052      862.208
09/12/2013  08:29:00      -75.135      -51.729        3.836       50.946       26.003       19.612     2595.463      676.132      384.611        0.600        0.183       91.220       21.092        0.053      343.131       19.027      862.195
09/12/2013  08:30:00      -90.563      -73.868        3.952       44.429       46.203       28.805     1973.898     2134.686      829.743        0.931        0.247      116.869       23.900        0.042      343.137       19.037      862.193
09/12/2013  08:31:00      -71.398      -66.013       14.553       66.809       48.023       31.665     4463.411     2306.232     1002.651        0.872        0.389       97.239       37.637        0.150      343.190       19.128      862.183
09/12/2013  08:32:00     -141.188     -106.838       -4.469       46.753       42.650       26.231     2185.813     1819.023      688.053        1.803        0.235      177.055       26.402        0.022      343.142       19.044      862.186
09/12/2013  08:33:00     -123.203     -125.716      -10.881       42.955       40.754       29.935     1845.154     1660.884      896.103        1.775        0.220      176.021       18.846        0.011      343.191       19.126      862.191
09/12/2013  08:34:00     -145.832      -84.130       -7.239       49.812       61.707       31.650     2481.235     3807.707     1001.731        1.784        0.365      168.359       33.295        0.039      343.222       19.181      862.183
09/12/2013  08:35:00     -119.547      -90.387       -4.604       42.286       46.702       33.303     1788.070     2181.035     1109.073        1.378        0.254      149.871       24.986        0.028      343.229       19.193      862.192
09/12/2013  08:36:00     -110.691      -60.136       -3.699       72.160       52.817       29.310     5207.076     2789.675      859.085        1.237        0.443      125.971       31.107        0.061      343.220       19.177      862.185
09/12/2013  08:37:00      -58.888      -59.041        2.488       35.325       29.834       20.690     1247.886      890.067      428.094        0.476        0.128       83.388       16.043        0.037      343.287       19.291      862.192
09/12/2013  08:38:00      -81.565      -39.340        0.092       54.112       42.093       24.040     2928.162     1771.860      577.939        0.674        0.264       90.556       21.650        0.057      343.356       19.409      862.190
09/12/2013  08:39:00      -78.160      -33.754        7.978       41.970       46.989       28.181     1761.452     2207.940      794.160        0.604        0.238       85.137       23.909        0.079      343.351       19.401      862.205
09/12/2013  08:40:00      -97.714      -82.515       -0.100       46.216       48.493       29.267     2135.952     2351.575      856.558        1.085        0.267      127.894       21.973        0.030      343.319       19.346      862.211
09/12/2013  08:41:00      -60.481      -32.491        4.571       32.762       43.735       20.817     1073.348     1912.770      433.352        0.408        0.171       68.656       15.811        0.053      343.354       19.407      862.214
09/12/2013  08:42:00      -35.710      -26.614        4.037       45.151       20.167       19.867     2038.649      406.727      394.717        0.242        0.142       44.537       14.309        0.103      343.420       19.520      862.228
09/12/2013  08:43:00       -5.313       -7.265       -0.495       12.794       13.285       10.724      163.693      176.497      115.001        0.027        0.023        9.000        6.102        0.460      343.568       19.772      862.230
09/12/2013  08:44:00      -38.688       -7.797        0.923       18.999       14.163       14.039      360.970      200.580      197.091        0.116        0.038       39.466        9.250        0.055      343.422       19.522      862.238
09/12/2013  08:45:00      -79.442      -75.250       -2.204       30.189       50.063       18.353      911.390     2506.329      336.831        0.787        0.188      109.423       17.806        0.026      343.382       19.454      862.242
09/12/2013  08:46:00      -90.744     -111.721       -2.048       42.429       44.146       27.009     1800.245     1948.847      729.465        1.260        0.224      143.931       25.584        0.032      343.405       19.492      862.233
09/12/2013  08:47:00      -77.155     -116.718        1.133       31.347       33.428       26.330      982.614     1117.454      693.286        1.118        0.140      139.914       17.802        0.016      343.391       19.471      862.234
09/12/2013  08:48:00      -87.748      -34.113        8.376       38.584       42.108       23.818     1488.730     1773.082      567.286        0.638        0.191       94.146       20.829        0.049      343.449       19.567      862.229
09/12/2013  08:49:00      -75.940      -33.217        5.481       23.848       34.980       16.291      568.749     1223.626      265.383        0.448        0.103       82.887       12.229        0.022      343.481       19.625      862.233
09/12/2013  08:50:00      -69.917        0.525        2.692       36.634       24.879       16.924     1342.069      618.954      286.414        0.357        0.112       69.919       14.580        0.043      343.461       19.587      862.238
09/12/2013  08:51:00      -54.044      -29.878        7.326       30.181       22.244       17.943      910.874      494.801      321.944        0.280        0.086       61.753       10.289        0.028      343.524       19.695      862.236
09/12/2013  08:52:00      -34.635      -41.071       10.217       25.163       34.805       15.130      633.178     1211.374      228.932        0.253        0.104       53.725       13.876        0.067      343.600       19.825      862.251
09/12/2013  08:53:00      -50.648     -103.319        8.944       40.645       47.376       26.454     1652.003     2244.518      699.798        0.896        0.230      115.066       28.233        0.060      343.555       19.749      862.252
09/12/2013  08:54:00      -84.890      -36.577        0.563       44.607       29.359       17.069     1989.751      861.935      291.354        0.584        0.157       92.435       20.851        0.051      343.583       19.796      862.262
09/12/2013  08:55:00      -98.825      -28.389      -10.770       17.033       27.855       12.009      290.129      775.884      144.207        0.595        0.061      102.822        6.764        0.004      343.494       19.644      862.266
09/12/2013  08:56:00      -47.762        1.865        0.828       14.703       21.623       12.478      216.166      467.536      155.688        0.156        0.042       47.798        8.640        0.033      343.547       19.735      862.279
09/12/2013  08:57:00       -5.190       -5.137        1.735        9.483       11.620       11.840       89.920      135.035      140.188        0.021        0.018        7.302        7.693        1.110      343.719       20.030      862.273
09/12/2013  08:58:00       -4.933      -21.139        4.431       23.082       27.506       22.727      532.783      756.605      516.515        0.115        0.090       21.707       22.254        1.051      343.498       19.653      862.275
09/12/2013  08:59:00       32.758      -14.441        9.881       29.684       27.527       27.664      881.126      757.759      765.305        0.189        0.120       35.800       23.842        0.444      343.163       19.081      862.269
09/12/2013  09:00:00       30.236       -9.678        6.339       30.744       23.506       20.124      945.181      552.523      404.974        0.147        0.095       31.747       12.696        0.160      343.183       19.116      862.278
09/12/2013  09:01:00       39.543      -35.752        9.317       34.023       41.212       26.607     1157.536     1698.448      707.911        0.325        0.178       53.309       21.683        0.165      343.126       19.017      862.271
09/12/2013  09:02:00        0.308       10.651        5.133       29.363       30.540       22.645      862.192      932.719      512.799        0.122        0.115       10.655        9.566        0.806      343.515       19.680      862.274
09/12/2013  09:03:00       -6.485       -1.135       21.576       21.940       26.113       17.216      481.344      681.911      296.405        0.098        0.073        6.584       10.709        2.646      343.957       20.435      862.273
09/12/2013  09:04:00       24.520       11.726       19.173       28.564       16.571       20.902      815.914      274.591      436.887        0.132        0.076       27.180       18.877        0.482      344.006       20.519      862.293
09/12/2013  09:05:00       29.071      -11.779       17.039       31.712       29.246       21.629     1005.638      855.334      467.819        0.180        0.116       31.367       11.346        0.131      343.903       20.342      862.303
09/12/2013  09:06:00       52.777       -9.676       21.884       29.409       24.420       28.040      864.875      596.323      786.233        0.280        0.112       53.657       11.865        0.049      343.568       19.772      862.315
09/12/2013  09:07:00       49.096       -4.650       28.886       19.835       20.441       20.891      393.447      417.819      436.430        0.226        0.062       49.315       16.639        0.114      343.715       20.023      862.312
09/12/2013  09:08:00       39.930      -11.805       14.330       20.867       13.369       18.999      435.448      178.736      360.967        0.146        0.049       41.638       13.398        0.104      343.831       20.220      862.321
09/12/2013  09:09:00       24.816        5.501       15.612       34.529       18.638       17.569     1192.229      347.373      308.665        0.137        0.092       25.418       14.472        0.324      343.829       20.217      862.306
09/12/2013  09:10:00        6.542        2.693       14.165       14.928       13.190       12.592      222.846      173.968      158.568        0.040        0.028        7.075        6.918        0.956      344.369       21.140      862.311
09/12/2013  09:11:00       26.798       27.226       12.477       28.255       22.630       20.722      798.341      512.120      429.415        0.168        0.087       38.202       13.649        0.128      344.071       20.629      862.332
09/12/2013  09:12:00       47.058       -8.940       16.062       30.566       38.974       26.226      934.305     1518.956      687.779        0.285        0.157       47.900       14.149        0.087      343.879       20.305      862.341
09/12/2013  09:13:00       20.925      -17.449       10.089       27.411       21.840       24.175      751.366      476.992      584.450        0.133        0.091       27.246       15.015        0.304      343.849       20.250      862.348
09/12/2013  09:14:00       26.350      -41.240        6.859       17.788       34.243       22.950      316.403     1172.609      526.710        0.223        0.101       48.939       23.615        0.233      344.093       20.669      862.342
09/12/2013  09:15:00       25.781       36.431       35.748       33.540       30.037       24.603     1124.944      902.218      605.305        0.295        0.132       44.630       22.563        0.256      344.346       21.101      862.339
09/12/2013  09:16:00       69.259       48.334        8.384       24.263       23.480       23.510      588.693      551.299      552.740        0.445        0.085       84.457       17.722        0.044      344.193       20.839      862.344
09/12/2013  09:17:00       33.103       -6.240       13.513       33.509       51.283       22.198     1122.837     2629.980      492.731        0.278        0.212       33.686       17.483        0.269      344.507       21.374      862.347
09/12/2013  09:18:00       60.030       25.154       15.214       49.926       40.601       25.792     2492.568     1648.420      665.250        0.464        0.240       65.087       18.666        0.082      344.376       21.151      862.343
09/12/2013  09:19:00       67.176       53.754       12.405       33.279       33.930       24.793     1107.480     1151.229      614.690        0.521        0.144       86.035       16.433        0.036      344.198       20.847      862.337
09/12/2013  09:20:00       75.984       54.878       34.870       52.748       36.522       30.257     2782.329     1333.868      915.467        0.752        0.252       93.729       22.855        0.059      344.331       21.073      862.331
09/12/2013  09:21:00       -1.595        8.151       22.797       26.701       32.548       28.142      712.939     1059.404      791.966        0.158        0.128        8.306       19.833        5.702      344.625       21.576      862.329
09/12/2013  09:22:00       25.283       42.679       20.617       42.397       28.415       24.031     1797.540      807.392      577.478        0.303        0.159       49.605       22.547        0.207      344.670       21.654      862.334
09/12/2013  09:23:00       42.883       21.112        6.901       33.124       26.013       23.313     1097.174      676.664      543.516        0.232        0.116       47.798       12.621        0.070      344.692       21.691      862.342
09/12/2013  09:24:00       46.727       44.699       28.992       20.992       22.368       22.715      440.657      500.321      515.976        0.324        0.073       64.664       11.407        0.031      344.669       21.651      862.351
09/12/2013  09:25:00       17.726       27.327       -0.402       29.549       24.861       23.556      873.117      618.049      554.893        0.155        0.102       32.572       12.595        0.150      345.004       22.226      862.359
09/12/2013  09:26:00       -2.188       -8.903       30.496       16.670       36.430       27.910      277.880     1327.163      778.990        0.170        0.119        9.168       25.268        7.596      345.484       23.048      862.370
09/12/2013  09:27:00       16.068      -12.130       14.153       56.181       39.568       24.362     3156.341     1565.588      593.519        0.296        0.266       20.132       15.109        0.563      345.073       22.344      862.374
09/12/2013  09:28:00      111.248       52.146       15.799       46.048       37.920       32.640     2120.427     1437.898     1065.347        0.998        0.231      122.863       13.976        0.013      344.918       22.077      862.373
09/12/2013  09:29:00       81.269       57.569       26.596       30.648       25.752       34.910      939.306      663.189     1218.698        0.672        0.141       99.593       21.437        0.046      344.671       21.657      862.385
09/12/2013  09:30:00       73.040       77.829        7.508       44.735       37.616       41.973     2001.245     1414.942     1761.743        0.831        0.259      106.734       24.907        0.054      344.746       21.784      862.389
09/12/2013  09:31:00       69.477       43.390        7.793       50.066       35.862       23.275     2506.626     1286.081      541.708        0.555        0.217       81.913       19.331        0.056      344.973       22.173      862.391
09/12/2013  09:32:00       59.807       61.581       17.615       54.227       34.649       35.195     2940.541     1200.582     1238.695        0.653        0.269       85.843       21.404        0.062      345.198       22.557      862.387
09/12/2013  09:33:00       54.997       91.614        9.884       45.886       45.952       35.935     2105.526     2111.622     1291.305        0.851        0.275      106.854       22.638        0.045      345.128       22.437      862.388
09/12/2013  09:34:00       37.615       46.749        8.843       37.788       38.515       32.376     1427.902     1483.378     1048.191        0.382        0.198       60.003       24.488        0.167      345.144       22.465      862.386
09/12/2013  09:35:00       30.448      -52.296      -10.881       19.464       49.202       23.014      378.861     2420.853      529.654        0.355        0.166       60.514       22.094        0.133      344.727       21.750      862.388
09/12/2013  09:36:00       -0.129       13.697       35.089       21.290       28.115       18.501      453.270      790.440      342.296        0.150        0.079       13.698       11.630        0.721      345.481       23.042      862.380
09/12/2013  09:37:00      -24.304       -9.035       20.590       18.141       18.558       19.658      329.079      344.387      386.433        0.108        0.053       25.929       16.341        0.397      345.326       22.776      862.378
09/12/2013  09:38:00       -2.723      -49.130       25.975       29.368       46.731       34.186      862.505     2183.783     1168.709        0.365        0.211       49.205       20.797        0.179      345.319       22.764      862.372
09/12/2013  09:39:00        7.252        7.998       43.400       31.681       38.749       24.923     1003.713     1501.508      621.133        0.256        0.156       10.796       26.024        5.811      345.344       22.807      862.371
09/12/2013  09:40:00       50.048      -64.845       -0.110       50.300       38.650       32.392     2530.103     1493.859     1049.267        0.589        0.254       81.912       24.787        0.092      344.883       22.018      862.361
09/12/2013  09:41:00       18.790      -17.705       14.424       25.684       26.758       23.883      659.660      715.993      570.415        0.141        0.097       25.817       20.387        0.624      345.079       22.354      862.358
09/12/2013  09:42:00        8.787       21.953       39.950       24.044       18.808       16.565      578.111      353.742      274.393        0.168        0.060       23.646       15.720        0.442      345.284       22.705      862.359
09/12/2013  09:43:00       13.604        2.748       16.188       19.148       24.901       18.732      366.635      620.041      350.881        0.090        0.067       13.879       12.760        0.845      345.327       22.778      862.357
09/12/2013  09:44:00       32.766       -1.301       15.678       24.163       23.353       23.783      583.859      545.374      565.608        0.151        0.085       32.791       19.134        0.340      344.981       22.186      862.345
09/12/2013  09:45:00       -7.362       37.606       54.544       11.985       26.425       19.178      143.642      698.285      367.797        0.283        0.060       38.320       14.712        0.147      345.327       22.779      862.340
09/12/2013  09:46:00       -6.445      -38.003       20.760       22.693       49.827       26.374      514.988     2482.732      695.574        0.280        0.185       38.546       28.834        0.560      345.240       22.628      862.333
09/12/2013  09:47:00       11.633      -29.997        8.573       25.581       37.850       35.946      654.370     1432.643     1292.130        0.224        0.169       32.173       24.707        0.590      345.282       22.702      862.319
09/12/2013  09:48:00       15.925       40.827       47.913       26.046       24.096       15.742      678.400      580.602      247.812        0.286        0.075       43.823       10.536        0.058      345.178       22.525      862.317
09/12/2013  09:49:00       -8.007       13.595       15.327       26.190       13.255       12.763      685.933      175.704      162.889        0.075        0.051       15.777        4.125        0.068      345.203       22.566      862.310
09/12/2013  09:50:00      -38.268       -3.372        7.021       25.333       22.370       15.950      641.755      500.415      254.388        0.146        0.070       38.417       11.638        0.092      345.169       22.508      862.301
09/12/2013  09:51:00      -44.885      -44.527        1.922       45.405       31.278       25.678     2061.656      978.302      659.380        0.385        0.185       63.224       21.429        0.115      345.125       22.434      862.302
09/12/2013  09:52:00      -29.409      -42.467        2.817       25.438       24.127       15.585      647.077      582.107      242.897        0.207        0.074       51.656        6.219        0.014      345.094       22.378      862.289
09/12/2013  09:53:00      -14.124      -29.185        1.874       30.902       26.682       20.701      954.913      711.914      428.521        0.157        0.105       32.423       11.765        0.132      345.224       22.601      862.281
09/12/2013  09:54:00       -1.537       -0.545       28.120       16.093       30.793       29.443      258.998      948.188      866.913        0.143        0.104        1.631        9.685       35.275      345.641       23.317      862.281
09/12/2013  09:55:00       16.686      -27.186       23.682       41.379       49.068       37.234     1712.196     2407.621     1386.396        0.354        0.275       31.898       26.037        0.666      345.354       22.826      862.272
09/12/2013  09:56:00       50.369      -37.228        4.735       30.147       37.570       28.215      908.834     1411.528      796.069        0.353        0.156       62.634       20.206        0.104      345.044       22.294      862.283
09/12/2013  09:57:00       24.889      -10.158       43.729       57.787       57.338       43.260     3339.327     3287.649     1871.437        0.556        0.425       26.882       51.628        3.688      345.647       23.328      862.284
09/12/2013  09:58:00       23.235       14.927       65.860       57.630       77.039       41.033     3321.175     5934.943     1683.672        0.802        0.547       27.617       43.519        2.483      345.512       23.095      862.285
09/12/2013  09:59:00       86.547      -87.302       -8.293       68.873       79.322       59.450     4743.464     6291.977     3534.248        1.487        0.728      122.931       66.451        0.292      345.223       22.600      862.295
09/12/2013  10:00:00       77.559      -86.901       -5.462       59.359       52.690       41.241     3523.470     2776.216     1700.824        1.080        0.400      116.478       44.078        0.143      345.080       22.356      862.298
09/12/2013  10:01:00       39.955       40.185       74.212       54.333       43.159       32.552     2952.025     1862.685     1059.648        0.730        0.294       56.667       27.983        0.244      345.536       23.136      862.313
09/12/2013  10:02:00       55.490       29.747       52.271       48.121       49.413       35.704     2315.657     2441.627     1274.794        0.636        0.302       62.960       29.332        0.217      345.400       22.904      862.312
09/12/2013  10:03:00       41.234       39.482       46.804       38.051       36.293       33.077     1447.911     1317.163     1094.070        0.465        0.193       57.088       10.500        0.034      345.432       22.958      862.311
09/12/2013  10:04:00       54.902      -69.958       -3.610       53.933       73.094       29.859     2908.765     5342.795      891.574        0.853        0.457       88.929       35.822        0.162      345.437       22.967      862.313
09/12/2013  10:05:00       42.194      -27.790       33.139       47.053       79.568       43.917     2213.968     6331.061     1928.739        0.706        0.524       50.523       51.667        1.046      345.677       23.380      862.312
09/12/2013  10:06:00       57.509      -59.674       13.768       41.514       65.570       40.865     1723.430     4299.453     1669.983        0.737        0.385       82.875       40.218        0.235      345.637       23.309      862.300
09/12/2013  10:07:00       46.159       54.619       58.900       50.999       45.375       30.488     2600.865     2058.888      929.540        0.709        0.279       71.512       24.174        0.114      345.649       23.330      862.306
09/12/2013  10:08:00       -1.288      -34.298       18.854       42.450       54.084       30.403     1802.020     2925.086      924.354        0.359        0.283       34.322       33.539        0.955      345.838       23.655      862.299
09/12/2013  10:09:00        5.809      -85.088       -5.271       53.598       37.187       34.153     2872.705     1382.878     1166.454        0.636        0.271       85.286       26.646        0.098      345.534       23.133      862.300
09/12/2013  10:10:00        5.989        9.659       54.712       40.350       48.209       38.877     1628.159     2324.155     1511.442        0.429        0.273       11.365       31.786        7.822      346.134       24.163      862.284
09/12/2013  10:11:00       22.035      -16.322       20.204       37.400       58.142       47.063     1398.788     3380.495     2214.936        0.408        0.350       27.422       38.026        1.923      345.818       23.620      862.289
09/12/2013  10:12:00       -6.793       49.014       64.086       16.108       38.345       22.499      259.452     1470.330      506.210        0.440        0.112       49.482       19.153        0.150      346.142       24.177      862.278
09/12/2013  10:13:00        5.120      -20.962       22.169       18.279       33.577       29.920      334.111     1127.415      895.188        0.166        0.118       21.578       26.581        1.517      346.153       24.196      862.274
09/12/2013  10:14:00       24.669      -41.881        5.053       24.289       35.322       32.282      589.970     1247.610     1042.128        0.263        0.144       48.607       26.409        0.295      345.924       23.801      862.262
09/12/2013  10:15:00       -4.616      -40.971       20.564       36.900       36.035       31.931     1361.629     1298.531     1019.613        0.290        0.184       41.231       26.485        0.413      346.288       24.427      862.251
09/12/2013  10:16:00       18.196      -95.063        7.272       39.872       56.344       33.487     1589.780     3174.641     1121.395        0.765        0.294       96.788       34.511        0.127      345.723       23.458      862.257
09/12/2013  10:17:00       23.628       -8.885       44.669       32.909       57.948       35.210     1082.983     3357.961     1239.757        0.416        0.284       25.243       32.853        1.694      346.181       24.243      862.244
09/12/2013  10:18:00       56.510      -49.729        7.823       34.178       55.184       39.573     1168.145     3045.323     1566.013        0.575        0.289       75.275       35.357        0.221      345.788       23.568      862.243
09/12/2013  10:19:00       -7.154      -40.049       25.960       41.044       53.848       39.012     1684.588     2899.583     1521.955        0.422        0.305       40.683       26.371        0.420      346.035       23.994      862.237
09/12/2013  10:20:00       21.195       -0.512       33.595       40.543       49.459       40.044     1643.708     2446.239     1603.494        0.363        0.285       21.201       32.315        2.323      346.264       24.388      862.231
09/12/2013  10:21:00       53.834      -60.835       18.735       59.959       88.989       48.619     3595.032     7919.066     2363.807        1.041        0.694       81.234       57.217        0.496      345.945       23.838      862.234
09/12/2013  10:22:00        6.322       30.713       61.470       38.195       49.204       41.405     1458.882     2420.993     1714.346        0.518        0.280       31.357       34.803        1.232      346.183       24.247      862.227
09/12/2013  10:23:00       31.742      -29.963       44.542       49.027       72.728       56.481     2403.635     5289.348     3190.057        0.738        0.544       43.650       56.566        1.679      346.258       24.376      862.212
09/12/2013  10:24:00       -0.076       45.874       89.115       28.131       59.739       31.854      791.350     3568.808     1014.648        0.771        0.269       45.874       24.695        0.290      346.333       24.506      862.208
09/12/2013  10:25:00       28.320       -5.108       40.203       40.055       62.952       42.696     1604.385     3962.956     1822.908        0.492        0.370       28.777       45.946        2.549      346.219       24.310      862.204
09/12/2013  10:26:00       54.267     -103.620       -5.403       72.316       69.113       48.616     5229.667     4776.573     2363.533        1.304        0.618      116.970       50.363        0.185      346.030       23.984      862.186
09/12/2013  10:27:00       89.426     -114.747      -19.570       60.829       37.898       29.044     3700.140     1436.225      843.562        1.376        0.299      145.479       23.508        0.026      345.870       23.710      862.177
09/12/2013  10:28:00       10.619      -59.382        8.474       37.496       44.699       33.575     1405.930     1998.029     1127.298        0.412        0.227       60.324       26.566        0.194      346.111       24.124      862.154
09/12/2013  10:29:00        0.332       16.616       50.306       20.243       35.789       22.426      409.785     1280.868      502.919        0.250        0.110       16.619       13.056        0.617      346.747       25.215      862.147
09/12/2013  10:30:00       43.147       18.176       59.190       57.352       89.297       61.941     3289.290     7973.882     3836.686        1.039        0.755       46.819       56.518        1.457      346.256       24.374      862.126
09/12/2013  10:31:00       72.639      -75.647       -2.577       43.044       58.830       49.844     1852.807     3461.012     2484.441        0.940        0.390      104.875       35.029        0.112      345.827       23.636      862.133
09/12/2013  10:32:00       12.101       16.349       48.061       32.908       27.790       20.806     1082.942      772.280      432.882        0.251        0.114       20.341       14.941        0.540      346.731       25.190      862.124
09/12/2013  10:33:00       22.544      -34.615       41.810       35.555       65.845       35.612     1264.182     4335.520     1268.205        0.516        0.343       41.309       37.677        0.832      346.453       24.713      862.112
09/12/2013  10:34:00       51.039      -30.264       36.800       60.574       80.723       50.756     3669.238     6516.282     2576.183        0.882        0.638       59.337       51.107        0.742      346.266       24.389      862.105
09/12/2013  10:35:00       91.557       -1.853       50.352       60.388       54.058       48.455     3646.722     2922.313     2347.852        0.992        0.446       91.576       42.145        0.212      346.061       24.038      862.103
09/12/2013  10:36:00       41.578       19.988       58.647       62.663       62.360       46.808     3926.638     3888.792     2190.980        0.779        0.500       46.133       35.356        0.587      346.107       24.116      862.095
09/12/2013  10:37:00       71.516      -28.966       53.300       65.586       79.955       72.958     4301.494     6392.730     5322.819        1.240        0.801       77.159       51.243        0.441      346.226       24.321      862.087
09/12/2013  10:38:00       39.255       23.019       81.879       51.795       59.729       39.518     2682.699     3567.586     1561.664        0.829        0.391       45.506       40.421        0.789      346.146       24.182      862.096
09/12/2013  10:39:00       39.512       -3.582       30.032       51.517       57.508       38.574     2653.970     3307.164     1487.956        0.496        0.372       39.674       37.601        0.898      346.290       24.432      862.100
09/12/2013  10:40:00       49.164      -58.966       12.929       60.421       68.908       55.227     3650.695     4748.291     3050.027        0.875        0.572       76.773       52.025        0.459      346.124       24.145      862.090
09/12/2013  10:41:00       55.411      -13.653       24.320       63.816       79.384       54.197     4072.545     6301.796     2937.291        0.858        0.666       57.068       66.224        1.347      346.188       24.257      862.090
09/12/2013  10:42:00       29.492      -47.811       10.956       43.023       60.697       37.370     1850.943     3684.117     1396.500        0.510        0.347       56.175       29.945        0.284      346.181       24.246      862.081
09/12/2013  10:43:00       44.991     -107.676       11.951       51.851       75.732       44.563     2688.577     5735.376     1985.905        1.208        0.520      116.698       47.323        0.164      345.983       23.905      862.084
09/12/2013  10:44:00       26.022      -78.708        8.964       38.880       57.613       36.481     1511.684     3319.231     1330.897        0.656        0.308       82.898       34.130        0.170      346.054       24.026      862.077
09/12/2013  10:45:00       27.223      -11.917       30.927       40.404       47.326       32.777     1632.450     2239.709     1074.303        0.339        0.247       29.717       36.020        1.469      346.359       24.550      862.066
09/12/2013  10:46:00       21.419      -17.179       23.271       34.949       37.089       28.535     1221.452     1375.581      814.247        0.235        0.171       27.457       28.991        1.115      346.451       24.707      862.064
09/12/2013  10:47:00        7.071      -14.482       33.175       24.903       60.130       40.736      620.149     3615.568     1659.413        0.363        0.295       16.116       42.959        7.105      346.388       24.600      862.045
09/12/2013  10:48:00       11.844      -39.198       27.528       24.957       53.389       33.186      622.842     2850.339     1101.338        0.350        0.229       40.949       28.804        0.495      346.598       24.962      862.037
09/12/2013  10:49:00       11.761       -2.155       46.265       38.096       53.565       43.365     1451.285     2869.245     1880.503        0.424        0.310       11.957       44.586       13.905      346.616       24.993      862.028
09/12/2013  10:50:00       10.220      -27.137       20.897       36.371       65.712       43.407     1322.836     4318.094     1884.137        0.440        0.376       28.998       35.934        1.536      346.546       24.871      862.009
09/12/2013  10:51:00       40.801        6.711       56.341       74.868       70.231       38.487     5605.265     4932.447     1481.254        0.845        0.601       41.349       47.826        1.338      346.456       24.716      862.004
09/12/2013  10:52:00       80.135       76.844       48.745       36.519       28.052       38.351     1333.608      786.921     1470.772        0.915        0.180      111.025       25.653        0.053      346.128       24.154      862.006
09/12/2013  10:53:00       15.799       14.251       25.726       49.702       46.999       36.713     2470.256     2208.868     1347.855        0.357        0.301       21.277       31.086        2.135      346.496       24.784      861.999
09/12/2013  10:54:00       13.243        7.528       33.749       28.239       58.046       28.428      797.442     3369.285      808.159        0.317        0.249       15.233       21.834        2.055      346.923       25.520      861.988
09/12/2013  10:55:00       27.535       60.062       77.918       44.546       56.664       44.403     1984.342     3210.835     1971.595        0.880        0.358       66.073       44.097        0.445      346.646       25.043      861.986
09/12/2013  10:56:00       26.888       -1.888       43.141       50.004       56.089       37.159     2500.433     3146.003     1380.815        0.481        0.351       26.954       35.764        1.760      346.659       25.067      861.983
09/12/2013  10:57:00       67.576        8.642       34.431       62.557      101.576       48.525     3913.437    10317.701     2354.691        1.120        0.829       68.126       45.416        0.444      346.477       24.752      861.970
09/12/2013  10:58:00       26.030        3.495       30.808       72.501       87.656       41.517     5256.342     7683.588     1723.656        0.815        0.733       26.264       30.102        1.314      346.621       25.001      861.948
09/12/2013  10:59:00       61.424      -90.780       -6.904       36.340       55.094       30.147     1320.614     3035.322      908.851        0.866        0.263      109.608       16.237        0.022      346.420       24.654      861.937
09/12/2013  11:00:00       44.050      -35.155       27.985       47.286       61.928       34.992     2235.929     3835.072     1224.456        0.563        0.365       56.359       34.098        0.366      346.902       25.484      861.933
09/12/2013  11:01:00       20.521      -67.822        9.369       34.576       46.495       33.856     1195.502     2161.750     1146.196        0.481        0.225       70.859       20.632        0.085      346.605       24.973      861.927
09/12/2013  11:02:00       32.136      -88.814        0.481       31.931       56.593       30.858     1019.620     3202.737      952.228        0.705        0.259       94.449       28.092        0.088      346.625       25.007      861.917
09/12/2013  11:03:00       43.331        3.487       34.875       47.690       70.217       50.726     2274.366     4930.477     2573.101        0.644        0.489       43.471       50.437        1.346      346.855       25.403      861.919
09/12/2013  11:04:00       49.945      -49.064       47.880       57.109       79.778       46.796     3261.410     6364.573     2189.904        0.950        0.591       70.012       52.594        0.564      346.823       25.347      861.921
09/12/2013  11:05:00       38.712       22.727       57.732       43.917       37.523       33.357     1928.719     1407.975     1112.709        0.490        0.222       44.890       27.226        0.368      346.803       25.314      861.913
09/12/2013  11:06:00       43.723      -27.037       43.518       70.237       77.290       46.267     4933.212     5973.743     2140.678        0.879        0.652       51.407       50.851        0.978      346.721       25.172      861.901
09/12/2013  11:07:00      106.850      -56.276        1.633       59.881       73.607       57.234     3585.742     5417.999     3275.703        1.343        0.614      120.764       44.257        0.134      346.772       25.261      861.902
09/12/2013  11:08:00        1.286       35.574       61.880       35.494       48.837       25.752     1259.797     2385.090      663.148        0.470        0.215       35.597       20.607        0.335      347.033       25.709      861.907
09/12/2013  11:09:00      107.453     -123.254       -8.034       84.164      102.051       47.027     7083.595    10414.309     2211.527        2.325        0.985      163.516       59.866        0.134      346.746       25.212      861.895
09/12/2013  11:10:00       46.606      -80.501        1.699       46.863       66.784       48.839     2196.152     4460.127     2385.217        0.885        0.452       93.019       39.256        0.178      346.965       25.592      861.895
09/12/2013  11:11:00       26.369        0.587       33.054       31.412       42.271       29.261      986.690     1786.863      856.187        0.271        0.181       26.376       23.733        0.810      347.424       26.385      861.880
09/12/2013  11:12:00       41.133        8.980       64.059       57.839       90.169       59.373     3345.314     8130.462     3525.096        1.044        0.750       42.102       56.152        1.779      347.327       26.216      861.870
09/12/2013  11:13:00      177.808      -58.335       48.486      117.294       86.579       70.069    13757.874     7495.909     4909.729        3.176        1.308      187.133       58.002        0.096      347.038       25.714      861.845
09/12/2013  11:14:00       90.994       34.182       74.984       77.229       66.334       51.467     5964.380     4400.254     2648.874        1.404        0.651       97.203       47.078        0.235      346.994       25.643      861.855
09/12/2013  11:15:00       51.607       76.006      104.784       67.021       57.848       53.214     4491.868     3346.354     2831.695        1.504        0.533       91.870       46.140        0.252      347.098       25.821      861.855
09/12/2013  11:16:00      130.968      144.678      126.909      105.349      104.700       86.716    11098.435    10962.112     7519.657        4.188        1.479      195.152       90.730        0.216      346.923       25.517      861.831
09/12/2013  11:17:00       75.409      -33.914       29.283       79.311      121.277       67.567     6290.281    14708.206     4565.287        1.662        1.278       82.684       71.147        0.740      347.139       25.892      861.825
09/12/2013  11:18:00      131.105     -137.671        5.495      107.254      154.279       88.965    11503.388    23801.902     7914.694        3.969        2.161      190.110       90.541        0.227      347.244       26.071      861.778
09/12/2013  11:19:00      154.877     -204.350       -2.765      132.712      188.369       83.309    17612.450    35482.829     6940.399        6.288        3.002      256.410      107.662        0.176      347.194       25.985      861.775
09/12/2013  11:20:00      109.275     -152.134      -13.508       96.748       81.475       64.023     9360.251     6638.136     4098.939        2.768        1.005      187.312       57.043        0.093      346.987       25.627      861.789
09/12/2013  11:21:00       51.540      -84.423       26.721       55.289       74.814       49.153     3056.882     5597.206     2416.007        1.078        0.554       98.912       34.733        0.123      347.401       26.343      861.791
09/12/2013  11:22:00       68.844      -72.643       36.924       69.341      117.928       66.131     4808.177    13906.899     4373.345        1.723        1.154      100.083       65.397        0.427      347.566       26.627      861.775
09/12/2013  11:23:00       90.405      -20.922       65.355      123.631      168.652       80.412    15284.635    28443.447     6466.168        3.153        2.510       92.794      101.791        1.203      347.322       26.206      861.760
09/12/2013  11:24:00      206.079     -270.239      -60.614       92.282       97.473       51.348     8516.048     9500.970     2636.596        6.991        1.033      339.849       37.655        0.012      347.066       25.762      861.751
09/12/2013  11:25:00      108.739     -239.141      -46.627       89.967       83.375       59.204     8094.146     6951.436     3505.088        4.486        0.928      262.702       56.677        0.047      347.008       25.663      861.760
09/12/2013  11:26:00       74.176     -174.986      -37.888       66.014       61.617       38.311     4357.790     3796.675     1467.731        2.359        0.481      190.058       19.301        0.010      347.228       26.043      861.755
09/12/2013  11:27:00       25.437      -79.707        4.883       43.351       47.804       46.475     1879.308     2285.267     2159.915        0.667        0.316       83.667       33.294        0.158      347.542       26.588      861.748
09/12/2013  11:28:00       78.744     -101.837       14.389       71.453       79.721       50.883     5105.468     6355.416     2589.044        1.541        0.702      128.730       56.905        0.195      347.472       26.466      861.718
09/12/2013  11:29:00       -2.237     -136.044        7.776       86.536       63.526       42.394     7488.413     4035.510     1797.231        1.594        0.666      136.062       29.037        0.046      347.466       26.456      861.706
09/12/2013  11:30:00      -13.818      -63.506       11.195       55.168       68.741       30.051     3043.547     4725.340      903.077        0.651        0.434       64.992       31.544        0.236      347.800       27.032      861.687
09/12/2013  11:31:00       59.366     -125.982        5.845       52.397       64.436       49.140     2745.465     4151.952     2414.707        1.437        0.466      139.269       37.019        0.071      347.347       26.249      861.678
09/12/2013  11:32:00       38.271     -121.668       19.719       52.331       92.158       53.339     2738.535     8493.086     2845.076        1.536        0.704      127.545       44.652        0.123      347.479       26.479      861.677
09/12/2013  11:33:00       50.185      -58.430       41.442       61.340      100.709       51.984     3762.645    10142.355     2702.291        1.213        0.830       77.023       55.091        0.512      347.332       26.226      861.651
09/12/2013  11:34:00      100.644      -29.105       51.203      106.118       96.938       66.212    11261.012     9396.912     4384.059        1.931        1.252      104.768       51.538        0.242      347.208       26.009      861.644
09/12/2013  11:35:00       79.317       31.078       79.584       81.920       71.964       54.830     6710.932     5178.848     3006.314        1.424        0.745       85.188       52.017        0.373      347.214       26.020      861.655
09/12/2013  11:36:00       51.926      -63.625       31.264       79.570      113.559       52.138     6331.391    12895.733     2718.419        1.483        1.097       82.125       58.949        0.515      347.456       26.437      861.632
09/12/2013  11:37:00      131.222      -68.354       26.034       61.805       78.558       63.135     3819.855     6171.334     3986.022        1.827        0.699      147.958       56.640        0.147      347.043       25.724      861.641
09/12/2013  11:38:00       98.057        4.422       65.946       89.671       98.791       64.339     8040.819     9759.568     4139.490        1.796        1.097       98.157       55.099        0.315      347.168       25.940      861.641
09/12/2013  11:39:00       42.228       17.457       41.916       51.367       93.752       51.476     2638.567     8789.444     2649.813        0.896        0.704       45.694       54.154        1.405      347.292       26.155      861.638
09/12/2013  11:40:00       91.985      -73.191       36.675       82.688      115.266       75.889     6837.380    13286.298     5759.178        2.052        1.294      117.550       82.118        0.488      347.392       26.325      861.619
09/12/2013  11:41:00      147.915     -148.782      -16.944       82.005       83.028       52.801     6724.802     6893.608     2787.987        3.035        0.820      209.797       43.810        0.044      346.998       25.646      861.595
09/12/2013  11:42:00       39.493       27.820       57.981       65.110       78.809       44.864     4239.336     6210.898     2012.774        0.908        0.623       48.308       48.417        1.005      347.298       26.164      861.587
09/12/2013  11:43:00       -2.437      -36.871        7.470       37.113       47.849       32.497     1377.376     2289.515     1056.043        0.307        0.236       36.951       27.241        0.544      347.517       26.543      861.608
09/12/2013  11:44:00        3.155      -71.211       -4.487       33.455       29.225       26.944     1119.232      854.117      725.980        0.390        0.135       71.281       12.420        0.030      347.290       26.154      861.614
09/12/2013  11:45:00       24.717      -21.280       38.036       58.969       86.915       53.219     3477.340     7554.206     2832.230        0.818        0.693       32.616       48.533        2.214      347.370       26.291      861.616
09/12/2013  11:46:00       -2.153     -108.933       11.481       62.466       96.056       54.868     3902.063     9226.703     3010.450        1.407        0.807      108.954       61.102        0.314      347.159       25.926      861.614
09/12/2013  11:47:00       79.856     -111.764       12.235       63.601       79.273       51.988     4045.148     6284.195     2702.788        1.602        0.652      137.362       45.135        0.108      347.258       26.095      861.608
09/12/2013  11:48:00       16.661      -58.550       16.775       39.664       39.246       32.044     1573.196     1540.223     1026.824        0.406        0.207       60.875       22.935        0.142      347.334       26.228      861.616
09/12/2013  11:49:00        5.822      -82.001       20.889       46.377       46.088       38.593     2150.846     2124.118     1489.386        0.648        0.288       82.208       20.961        0.065      347.328       26.218      861.615
09/12/2013  11:50:00       68.122      -52.544       24.752       66.364       66.973       47.684     4404.148     4485.449     2273.772        0.959        0.558       86.032       44.581        0.269      347.201       25.998      861.607
09/12/2013  11:51:00       31.606      -62.204       23.452       41.831       36.165       33.960     1749.871     1307.937     1153.288        0.481        0.211       69.773       20.656        0.088      347.031       25.707      861.616
09/12/2013  11:52:00      -11.268      -10.529       26.055       19.185       32.222       18.115      368.061     1038.240      328.155        0.133        0.087       15.422       17.812        1.334      347.507       26.527      861.610
09/12/2013  11:53:00       11.195       27.750       45.415       26.059       21.636       15.593      679.085      468.133      243.144        0.217        0.070       29.923        8.782        0.086      347.398       26.337      861.618
09/12/2013  11:54:00       44.721      -33.811       -7.123       29.251       57.202       23.279      855.623     3272.123      541.928        0.393        0.233       56.064       13.428        0.057      347.270       26.118      861.607
09/12/2013  11:55:00       44.715        4.515        9.889       78.310       52.949       40.934     6132.444     2803.645     1675.606        0.636        0.531       44.942       33.003        0.539      347.264       26.106      861.602
09/12/2013  11:56:00       64.918       54.348       56.532       92.904       62.767       42.423     8631.230     3939.650     1799.681        1.236        0.719       84.664       46.795        0.305      347.434       26.400      861.600
09/12/2013  11:57:00       10.084      -39.030        6.380       31.386       38.216       28.797      985.057     1460.463      829.249        0.247        0.164       40.311       21.146        0.275      347.136       25.887      861.603
09/12/2013  11:58:00       22.590        7.119       31.349       49.064       73.477       53.696     2407.230     5398.866     2883.246        0.611        0.534       23.685       51.979        4.816      347.261       26.103      861.591
09/12/2013  11:59:00       27.987      -30.731       15.020       44.488       78.959       41.853     1979.211     6234.591     1751.694        0.596        0.498       41.565       23.714        0.326      347.206       26.006      861.581
09/12/2013  12:00:00       38.546      -42.494       10.847       40.472       46.685       29.905     1637.998     2179.521      894.292        0.406        0.236       57.372       24.075        0.176      347.503       26.519      861.580
09/12/2013  12:01:00       19.007      -28.271       35.647       52.910       70.768       26.716     2799.461     5008.118      713.745        0.547        0.426       34.066       31.153        0.836      347.520       26.548      861.572
09/12/2013  12:02:00       77.421       65.430       63.080       59.392       55.551       42.940     3527.434     3085.945     1843.804        1.135        0.423      101.367       27.992        0.076      347.282       26.140      861.574
09/12/2013  12:03:00       49.490       58.436       53.826       74.759       38.924       33.488     5588.936     1515.075     1121.429        0.849        0.411       76.577       22.895        0.089      347.233       26.052      861.561
09/12/2013  12:04:00       77.121       55.899       11.080       34.967       35.428       30.307     1222.684     1255.127      918.494        0.630        0.170       95.249       20.323        0.046      347.396       26.335      861.556
09/12/2013  12:05:00      -60.795       -6.877       22.511       77.626       47.347       33.794     6025.762     2241.704     1142.046        0.683        0.470       61.183       24.671        0.163      347.373       26.296      861.531
09/12/2013  12:06:00       37.380       10.422       13.517       37.007       25.859       27.045     1369.521      668.670      731.420        0.223        0.138       38.805       26.761        0.476      347.205       26.006      861.521
09/12/2013  12:07:00       58.698       39.244       28.257       62.647       57.920       36.530     3924.688     3354.673     1334.461        0.720        0.431       70.609       27.777        0.155      347.603       26.691      861.515
09/12/2013  12:08:00      174.969      132.195       26.778       62.987       62.059       43.454     3967.353     3851.380     1888.273        2.925        0.485      219.294       14.480        0.004      347.410       26.356      861.511
09/12/2013  12:09:00      103.439       91.988       71.935       67.759       46.604       43.817     4591.256     2171.957     1919.906        1.651        0.434      138.425       18.710        0.018      347.473       26.467      861.508
09/12/2013  12:10:00      115.104       67.190       23.380       90.222       59.328       42.295     8139.935     3519.857     1788.879        1.588        0.672      133.280       19.625        0.022      347.679       26.821      861.492
09/12/2013  12:11:00        9.795       35.643       43.735       38.199       46.568       37.930     1459.133     2168.611     1438.659        0.417        0.253       36.965       27.240        0.543      348.104       27.557      861.473
09/12/2013  12:12:00       75.035       89.948       39.449       88.820       70.949       41.282     7888.932     5033.823     1704.208        1.495        0.731      117.136       45.586        0.151      347.611       26.704      861.456
09/12/2013  12:13:00       72.222      128.226       -1.210       77.971       72.176       51.602     6079.453     5209.392     2662.807        1.780        0.698      147.166       23.313        0.025      348.042       27.449      861.491
09/12/2013  12:14:00      105.389      122.725        0.229       65.039       53.492       38.759     4230.045     2861.375     1502.286        1.738        0.430      161.766       35.344        0.048      347.811       27.051      861.474
09/12/2013  12:15:00       73.606      106.454       94.678       66.623       48.037       36.643     4438.653     2307.520     1342.735        1.690        0.404      129.423       11.671        0.008      347.821       27.068      861.442
09/12/2013  12:16:00       52.104       64.768       73.111       58.705       51.574       43.917     3446.289     2659.879     1928.728        1.014        0.402       83.125       30.321        0.133      347.794       27.022      861.446
09/12/2013  12:17:00       19.519       33.476       20.307       57.197       51.709       28.729     3271.491     2673.835      825.353        0.434        0.339       38.751       11.430        0.087      348.105       27.559      861.433
09/12/2013  12:18:00       38.261       71.337       31.651      136.693       61.097       59.813    18684.946     3732.872     3577.599        1.677        1.300       80.950       52.368        0.419      347.988       27.355      861.446
09/12/2013  12:19:00     -125.936      112.732      -23.598       86.682      129.379       42.179     7513.727    16739.049     1779.099        2.757        1.302      169.022       37.423        0.049      347.880       27.168      861.454
09/12/2013  12:20:00      -16.004       83.126       11.489       45.942       58.101       41.142     2110.683     3375.733     1692.677        0.724        0.359       84.653       10.844        0.016      348.103       27.554      861.437
09/12/2013  12:21:00       -9.917       20.771       18.159       74.107       79.674       42.373     5491.858     6347.965     1795.469        0.724        0.682       23.017       39.763        2.984      348.088       27.529      861.419
09/12/2013  12:22:00      -40.505      168.327       -5.194       68.609      124.461       46.259     4707.175    15490.592     2139.868        2.617        1.117      173.132       55.325        0.102      347.879       27.167      861.402
09/12/2013  12:23:00      -71.553      269.723      -25.591       70.623       99.310       47.780     4987.643     9862.499     2282.903        4.783        0.857      279.053       48.477        0.030      347.666       26.797      861.398
09/12/2013  12:24:00      -22.953      269.233      -30.252       75.139      103.828       49.213     5645.891    10780.236     2421.880        4.638        0.942      270.210       57.896        0.046      347.775       26.986      861.382
09/12/2013  12:25:00      -66.231      266.730      -30.041       66.372       90.004       34.433     4405.284     8100.726     1185.647        4.506        0.685      274.830       40.463        0.022      347.558       26.609      861.386
09/12/2013  12:26:00     -142.114      145.529      -37.082       75.537       63.487       38.589     5705.872     4030.610     1489.136        2.699        0.561      203.409       36.814        0.033      347.597       26.678      861.388
09/12/2013  12:27:00      -42.428       83.778       -4.150       47.708       40.827       34.809     2276.044     1666.829     1211.645        0.699        0.258       93.909       25.620        0.074      347.902       27.209      861.372
09/12/2013  12:28:00      -57.236      240.357      -26.145       53.733       93.483       45.983     2887.261     8739.012     2114.462        3.773        0.687      247.077       49.904        0.041      347.880       27.166      861.382
09/12/2013  12:29:00     -104.262      213.117      -16.064       59.249       96.397       43.955     3510.424     9292.372     1932.005        3.564        0.737      237.254       46.066        0.038      347.869       27.149      861.384
09/12/2013  12:30:00      -79.424      285.302      -28.566       49.025       74.788       36.914     2403.473     5593.294     1362.658        4.894        0.468      296.151       31.996        0.012      347.679       26.817      861.369
09/12/2013  12:31:00      -66.293      143.030       -3.675       67.938       96.363       42.418     4615.512     9285.783     1799.277        2.028        0.785      157.647       54.039        0.118      348.164       27.659      861.363
09/12/2013  12:32:00       23.632       84.153        2.563       52.072       53.151       38.658     2711.468     2825.050     1494.446        0.734        0.352       87.409       30.712        0.123      348.181       27.690      861.340
09/12/2013  12:33:00       11.228       84.765        3.505       41.336       58.033       38.598     1708.645     3367.812     1489.776        0.694        0.328       85.506       39.177        0.210      347.932       27.260      861.337
09/12/2013  12:34:00       -3.079      234.256      -18.406       63.371       81.623       52.448     4015.930     6662.310     2750.770        3.432        0.671      234.276       53.368        0.052      347.714       26.881      861.326
09/12/2013  12:35:00       49.487      149.933        2.954       79.234      122.157       66.996     6278.060    14922.372     4488.496        2.531        1.284      157.889       71.516        0.205      347.876       27.161      861.294
09/12/2013  12:36:00      127.689      116.326       17.269       91.908       71.796       62.277     8447.144     5154.694     3878.422        2.380        0.874      172.731       40.621        0.055      347.790       27.013      861.291
09/12/2013  12:37:00       90.347       73.110       23.150       73.056       57.853       56.656     5337.234     3347.011     3209.872        1.297        0.595      116.223       36.242        0.097      347.747       26.941      861.270
09/12/2013  12:38:00       37.805       42.351       -2.274       60.568       54.205       30.050     3668.456     2938.217      902.989        0.537        0.375       56.770       21.964        0.150      347.663       26.795      861.255
09/12/2013  12:39:00       -7.619      -23.174       -3.553       45.639       28.467       27.291     2082.912      810.363      744.803        0.212        0.182       24.394       28.038        1.321      347.850       27.118      861.219
09/12/2013  12:40:00       13.237       44.713       14.583       44.035       68.321       33.313     1939.108     4667.752     1109.775        0.505        0.386       46.632       36.645        0.618      347.894       27.193      861.210
09/12/2013  12:41:00      263.555      121.912       39.641      151.755      111.377       99.126    23029.572    12404.750     9825.902        6.557        2.263      290.385       68.419        0.056      347.724       26.898      861.194
09/12/2013  12:42:00      279.861      168.322       53.392      257.299      173.545      121.535    66202.723    30117.916    14770.720       11.028        5.555      326.580      123.704        0.143      347.847       27.109      861.038
09/12/2013  12:43:00     -206.033     -124.282       44.812      173.948      157.074       85.463    30257.960    24672.276     7303.865        6.106        3.112      240.615       98.930        0.169      347.754       26.949      861.062
09/12/2013  12:44:00     -155.349     -116.582       -8.282       77.723       77.343       40.346     6040.788     5981.925     1627.813        2.572        0.683      194.228       35.848        0.034      347.567       26.627      861.213
09/12/2013  12:45:00      -98.950      -69.368       -0.162       62.419       46.873       26.839     3896.072     2197.079      720.354        1.071        0.341      120.843       19.365        0.026      347.573       26.640      861.202
09/12/2013  12:46:00      -96.090      -89.132       -1.587       46.503       31.655       29.798     2162.566     1002.065      887.940        1.062        0.203      131.064       33.026        0.063      347.507       26.525      861.180
09/12/2013  12:47:00       -5.133      -38.017       15.755       22.220       41.832       21.488      493.712     1749.950      461.720        0.221        0.135       38.362       24.431        0.406      347.887       27.184      861.165
09/12/2013  12:48:00      -19.522     -115.068       17.788       32.131       66.847       21.719     1032.388     4468.503      471.695        0.995        0.299      116.712       19.700        0.028      347.678       26.820      861.150
09/12/2013  12:49:00     -142.426      -59.875       -2.267       91.673       70.134       36.885     8404.028     4918.733     1360.523        1.928        0.734      154.500       38.067        0.061      347.958       27.303      861.146
09/12/2013  12:50:00     -217.789     -107.232      -21.004       55.740       37.499       32.687     3106.913     1406.178     1068.419        3.248        0.279      242.756       29.770        0.015      347.508       26.523      861.143
09/12/2013  12:51:00      -62.357      -28.922        1.885       39.654       28.794       25.716     1572.470      829.106      661.303        0.390        0.153       68.738       22.412        0.106      347.943       27.278      861.125
09/12/2013  12:52:00      -78.067      -19.009        0.041       43.339       27.054       20.990     1878.290      731.894      440.583        0.475        0.153       80.348       18.555        0.053      348.014       27.402      861.098
09/12/2013  12:53:00      -87.608      -59.309        3.588       92.372       81.398       45.086     8532.580     6625.592     2032.780        1.419        0.860      105.796       51.805        0.240      348.265       27.835      861.076
09/12/2013  12:54:00     -162.078      -83.907       -9.867       64.302       42.409       39.433     4134.809     1798.490     1555.000        2.045        0.374      182.510       28.316        0.024      347.524       26.554      861.079
09/12/2013  12:55:00      -98.642      -88.808       -5.486       57.573       46.427       32.885     3314.688     2155.506     1081.419        1.210        0.328      132.729       35.031        0.070      347.624       26.728      861.078
09/12/2013  12:56:00      -49.339      -87.071        3.305       32.871       30.481       22.990     1080.520      929.114      528.524        0.628        0.127      100.079       18.934        0.036      347.585       26.661      861.083
09/12/2013  12:57:00     -147.254      -77.344       -1.624       93.127       83.843       45.395     8672.583     7029.624     2060.746        2.271        0.888      166.330       41.342        0.062      347.834       27.090      861.057
09/12/2013  12:58:00     -160.716      -59.878       -7.702       61.038       44.432       34.443     3725.620     1974.171     1186.338        1.818        0.344      171.508       30.744        0.032      347.710       26.877      861.047
09/12/2013  12:59:00     -135.317      -44.581       -6.614       47.834       48.271       29.987     2288.049     2330.092      899.209        1.293        0.276      142.472       24.521        0.030      347.844       27.108      861.036
09/12/2013  13:00:00     -128.474      -56.292        9.282      124.565       79.614       40.102    15516.322     6338.368     1608.187        2.161        1.173      140.265       56.404        0.162      348.130       27.600      861.015
09/12/2013  13:01:00     -215.433      -48.556       -7.816       89.115       82.685       50.651     7941.470     6836.819     2565.505        3.308        0.867      220.838       54.027        0.060      347.934       27.259      861.003
09/12/2013  13:02:00      -75.332       -1.793       -3.685      104.085       63.125       46.347    10833.691     3984.772     2148.059        1.133        0.848       75.353       58.292        0.598      348.086       27.525      860.969
09/12/2013  13:03:00       12.814      -47.927        0.388       63.335       52.269       39.763     4011.265     2732.050     1581.123        0.539        0.416       49.610       25.378        0.262      348.072       27.500      860.913
09/12/2013  13:04:00       39.790      105.665        9.495      114.020       89.737       76.971    13000.662     8052.667     5924.584        1.990        1.349      112.908       40.173        0.127      348.321       27.930      860.923
09/12/2013  13:05:00      -76.994      164.489      -13.935      103.265       99.440       56.585    10663.665     9888.246     3201.843        2.846        1.188      181.616       53.567        0.087      347.887       27.180      860.949
09/12/2013  13:06:00      -48.019       89.866       -7.980       44.835       53.643       29.760     2010.143     2877.520      885.684        0.811        0.289      101.891       30.038        0.087      348.061       27.483      860.963
09/12/2013  13:07:00       34.455       50.114       21.006       68.611       57.615       48.494     4707.529     3319.502     2351.694        0.726        0.519       60.815       39.088        0.413      348.469       28.188      860.954
09/12/2013  13:08:00       85.982       82.076        6.451       59.752       77.975       45.700     3570.333     6080.035     2088.525        1.295        0.587      118.867       40.338        0.115      348.451       28.156      860.930
09/12/2013  13:09:00      130.021      141.516        5.219      113.340       75.139       58.932    12845.894     5645.875     3473.028        2.946        1.098      192.177       38.759        0.041      348.308       27.907      860.918
09/12/2013  13:10:00      224.167      129.861       33.194      108.459       82.412       64.472    11763.308     6791.796     4156.586        4.546        1.136      259.065       39.586        0.023      347.994       27.364      860.885
09/12/2013  13:11:00      122.078      107.058       87.231       92.061       63.298       70.605     8475.173     4006.634     4985.114        2.572        0.873      162.371       47.298        0.085      348.033       27.431      860.881
09/12/2013  13:12:00      163.539       78.492       42.480       81.602       57.885       51.989     6658.873     3350.697     2702.843        2.371        0.636      181.400       34.268        0.036      347.971       27.326      860.877
09/12/2013  13:13:00      252.719      184.383       53.384      112.982       86.348       84.531    12764.956     7456.027     7145.453        6.403        1.368      312.832       51.911        0.028      347.733       26.912      860.856
09/12/2013  13:14:00       82.256       68.547        9.488       45.647       52.658       41.398     2083.652     2772.902     1713.771        0.906        0.329      107.074       20.669        0.037      347.850       27.119      860.840
09/12/2013  13:15:00       39.046       40.874       13.110       42.635       42.541       29.981     1817.745     1809.768      898.882        0.395        0.226       56.527       12.394        0.048      348.198       27.719      860.830
09/12/2013  13:16:00       42.514       54.582        6.996       40.135       38.616       32.039     1610.858     1491.174     1026.506        0.448        0.206       69.186       21.733        0.099      348.246       27.801      860.798
09/12/2013  13:17:00       52.335       71.339       -1.340       62.052       61.354       36.444     3850.469     3764.360     1328.173        0.838        0.447       88.478       31.864        0.130      348.413       28.090      860.779
09/12/2013  13:18:00      123.468      127.762       28.328      105.384       74.049       52.653    11105.750     5483.246     2772.370        2.586        0.968      177.672       34.342        0.037      348.427       28.115      860.762
09/12/2013  13:19:00       23.175      187.785      -22.396       70.138      120.097       48.058     4919.402    14423.261     2309.618        2.897        1.083      189.210       60.323        0.102      348.466       28.179      860.760
09/12/2013  13:20:00     -116.493      212.545      -17.037      103.290      126.653       58.409    10668.862    16041.004     3411.581        4.457        1.506      242.376       57.882        0.057      348.275       27.849      860.754
09/12/2013  13:21:00      -24.795      340.240      -42.034       59.881       74.957       38.157     3585.746     5618.576     1455.977        6.440        0.533      341.142       35.444        0.011      348.131       27.599      860.750
09/12/2013  13:22:00      -53.223      148.954       -1.442      116.199      138.783       61.513    13502.313    19260.627     3783.828        3.078        1.827      158.177       82.019        0.269      348.276       27.854      860.742
09/12/2013  13:23:00       14.662      121.266      -12.373       93.760       73.294       51.175     8790.917     5372.040     2618.853        1.592        0.839      122.149       45.600        0.139      348.228       27.769      860.710
09/12/2013  13:24:00      -75.740      312.719      -31.107       87.486      151.680       57.725     7653.858    23006.797     3332.222        6.924        1.700      321.760       61.275        0.036      348.225       27.761      860.717
09/12/2013  13:25:00      -29.913      401.499      -45.305       70.366       98.687       44.929     4951.377     9739.083     2018.650        9.043        0.835      402.612       39.778        0.010      348.058       27.473      860.727
09/12/2013  13:26:00       -6.926      236.297      -17.279       57.090       88.737       47.291     3259.244     7874.200     2236.483        3.477        0.668      236.398       45.025        0.036      348.050       27.460      860.698
09/12/2013  13:27:00       -4.090      207.447      -32.346       60.879       78.798       40.812     3706.199     6209.180     1665.610        2.784        0.579      207.487       44.426        0.046      347.838       27.096      860.670
09/12/2013  13:28:00        6.242      125.955       -4.995       39.332       66.287       31.411     1546.984     4393.993      986.652        1.143        0.346      126.110       36.749        0.085      348.077       27.510      860.652
09/12/2013  13:29:00     -102.541      102.346      -35.081       44.596       47.381       20.587     1988.813     2244.953      423.813        1.344        0.233      144.877       15.628        0.012      347.817       27.062      860.632
09/12/2013  13:30:00      -26.152       41.169      -22.150       39.295       54.876       24.078     1544.085     3011.372      579.772        0.400        0.257       48.773       22.465        0.212      348.036       27.440      860.612
09/12/2013  13:31:00       27.929       48.377        3.790       32.637       23.991       18.733     1065.190      575.559      350.931        0.256        0.100       55.860       10.234        0.034      347.926       27.248      860.616
09/12/2013  13:32:00      -37.652      252.668      -19.553       46.060       91.637       44.408     2121.567     8397.251     1972.107        3.906        0.625      255.458       45.985        0.032      348.126       27.592      860.650
09/12/2013  13:33:00     -102.810      302.892      -17.881      123.753      137.965       74.029    15314.891    19034.461     5480.339        7.122        1.991      319.865       79.108        0.061      348.125       27.589      860.614
09/12/2013  13:34:00     -103.374      215.567      -16.535       78.177      112.708       54.786     6111.648    12703.065     3001.481        3.962        1.091      239.071       55.180        0.053      348.170       27.668      860.609
09/12/2013  13:35:00      -95.709      112.406      -14.552       87.531       59.875       42.527     7661.750     3584.996     1808.530        1.753        0.653      147.633       50.749        0.118      348.174       27.675      860.578
09/12/2013  13:36:00      -26.096       37.844        4.697       40.216       35.197       24.472     1617.296     1238.846      598.883        0.279        0.173       45.969       24.234        0.278      348.632       28.471      860.552
09/12/2013  13:37:00     -162.564      137.900      -27.416       89.972       84.289       59.770     8094.913     7104.656     3572.433        3.248        0.939      213.175       57.071        0.072      348.209       27.736      860.551
09/12/2013  13:38:00     -244.156      177.527      -35.523      131.526       94.740       60.980    17299.138     8975.742     3718.535        6.119        1.500      301.874       60.620        0.040      348.050       27.461      860.529
09/12/2013  13:39:00     -133.060      322.598      -32.227       77.140       74.515       49.804     5950.587     5552.537     2480.483        6.840        0.699      348.962       43.452        0.016      347.924       27.242      860.524
09/12/2013  13:40:00      -20.282      198.214      -12.713       47.334       74.534       33.718     2240.539     5555.264     1136.890        2.440        0.447      199.249       34.792        0.030      347.996       27.368      860.488
09/12/2013  13:41:00        1.127      166.949      -14.282       34.877       50.623       33.574     1216.400     2562.728     1127.242        1.649        0.245      166.953       31.465        0.036      347.970       27.325      860.460
09/12/2013  13:42:00     -173.230       49.410      -21.181       65.043       84.370       33.440     4230.528     7118.303     1118.209        2.268        0.623      180.138       21.845        0.015      348.049       27.460      860.472
09/12/2013  13:43:00     -217.018      -48.727      -13.914       82.663       92.449       43.354     6833.091     8546.732     1879.591        3.346        0.863      222.421       36.190        0.026      348.056       27.471      860.453
09/12/2013  13:44:00     -233.587       12.949      -29.756      109.211      107.936       66.650    11927.070    11650.216     4442.238        4.181        1.401      233.945       49.967        0.046      348.211       27.738      860.448
09/12/2013  13:45:00     -276.998      134.205      -48.165      123.579       86.722       53.191    15271.801     7520.662     2829.328        6.133        1.281      307.796       38.984        0.016      348.205       27.728      860.461
09/12/2013  13:46:00     -194.788       38.647      -19.419      148.712       78.003       60.830    22115.145     6084.502     3700.332        3.585        1.595      198.585       70.380        0.126      348.292       27.878      860.440
09/12/2013  13:47:00     -371.063      -80.357      -30.043      103.748      123.508       54.761    10763.718    15254.235     2998.755        8.703        1.451      379.664       54.930        0.021      347.975       27.329      860.424
09/12/2013  13:48:00     -130.927      -58.222       11.387       91.617       63.577       48.665     8393.614     4042.009     2368.243        1.773        0.740      143.289       51.812        0.131      348.374       28.022      860.372
09/12/2013  13:49:00     -204.322      -13.834      -14.620      121.622       64.990       50.840    14791.933     4223.642     2584.702        3.187        1.080      204.790       57.764        0.080      348.484       28.211      860.396
09/12/2013  13:50:00     -408.011     -223.337      -23.122      118.701       99.740       55.874    14089.818     9948.039     3121.884       12.202        1.358      465.137       42.104        0.008      348.073       27.500      860.338
09/12/2013  13:51:00      -92.596       -5.041       49.333      117.884       90.989       60.367    13896.592     8279.020     3644.135        1.842        1.291       92.733       64.421        0.483      348.583       28.383      860.345
09/12/2013  13:52:00      -84.475      267.197      -24.750       83.864      132.364       47.704     7033.147    17520.356     2275.667        5.298        1.341      280.233       62.418        0.050      348.400       28.066      860.391
09/12/2013  13:53:00      -15.213      274.216        0.760       67.966      114.758       61.360     4619.315    13169.361     3765.045        4.849        1.078      274.637       65.186        0.056      348.447       28.147      860.387
09/12/2013  13:54:00      -17.354      261.321       -9.748       41.867       95.212       42.271     1752.859     9065.354     1786.818        4.064        0.630      261.897       45.308        0.030      348.253       27.812      860.353
09/12/2013  13:55:00      -32.266      306.674      -35.081      112.497      168.170       63.080    12655.586    28281.227     3979.034        7.061        2.246      308.367       82.309        0.071      348.110       27.564      860.352
09/12/2013  13:56:00        1.726      380.729      -30.858       91.024      117.247       67.509     8285.409    13746.766     4557.405        8.624        1.329      380.733       66.023        0.030      348.354       27.986      860.333
09/12/2013  13:57:00      219.275      197.702       14.057      148.704      112.753       87.289    22112.744    12713.261     7619.380        6.490        2.122      295.241       55.950        0.036      348.340       27.960      860.270
09/12/2013  13:58:00      -22.632      308.529      -31.262      120.478      170.241       71.838    14514.897    28982.063     5160.697        7.266        2.433      309.357       75.594        0.060      348.800       28.757      860.268
09/12/2013  13:59:00      -61.676      102.309        0.467      115.207      143.078       62.497    13272.691    20471.215     3905.910        2.595        1.882      119.462       67.830        0.322      348.991       29.089      860.293
09/12/2013  14:00:00      -39.701      435.593      -57.403       84.718      129.184       56.165     7177.114    16688.554     3154.551       11.081        1.351      437.398       52.892        0.015      348.368       28.009      860.339
09/12/2013  14:01:00      -55.753      493.209      -60.330       90.852      106.162       48.658     8254.014    11270.368     2367.643       13.594        1.095      496.350       47.441        0.009      347.997       27.368      860.322
09/12/2013  14:02:00      -91.769      446.664      -41.663       83.343      115.520       56.426     6946.107    13344.852     3183.934       11.657        1.174      455.994       59.246        0.017      348.176       27.678      860.327
09/12/2013  14:03:00      -89.035      275.778      -20.581      106.580      145.647       63.085    11359.379    21212.998     3979.736        6.047        1.828      289.794       71.628        0.061      348.337       27.956      860.323
09/12/2013  14:04:00      -82.076      274.451      -27.718       97.168      137.851       49.257     9441.700    19002.930     2426.270        5.684        1.544      286.461       64.947        0.051      348.238       27.785      860.328
09/12/2013  14:05:00      -41.136      132.887       -0.102       66.161      106.979       59.881     4377.306    11444.479     3585.743        1.938        0.970      139.109       52.625        0.143      348.404       28.075      860.298
09/12/2013  14:06:00       24.853       65.835       19.620       53.393       59.328       43.448     2850.855     3519.758     1887.759        0.680        0.413       70.369       40.565        0.332      348.392       28.055      860.265
09/12/2013  14:07:00      -75.770      129.305      -10.354       65.616       60.848       37.418     4305.472     3702.443     1400.113        1.599        0.470      149.869       28.876        0.037      348.355       27.989      860.254
09/12/2013  14:08:00      -93.655       54.752       12.875       85.378       45.637       41.873     7289.376     2082.705     1753.346        1.153        0.556      108.485       44.208        0.166      348.598       28.411      860.242
09/12/2013  14:09:00      -53.917      153.343        5.351       58.450      118.721       54.346     3416.407    14094.607     2953.534        2.345        1.023      162.546       46.426        0.082      348.524       28.281      860.215
09/12/2013  14:10:00      -65.194       79.837       -1.197       36.244       46.893       36.226     1313.623     2198.915     1312.338        0.772        0.241      103.074       24.470        0.056      348.540       28.311      860.187
09/12/2013  14:11:00      -66.024       74.395        6.693       75.000       75.712       45.794     5624.955     5732.350     2097.105        1.169        0.673       99.467       54.509        0.300      348.687       28.564      860.171
09/12/2013  14:12:00     -100.617      103.639      -23.553       62.407       71.395       35.496     3894.628     5097.193     1259.971        1.583        0.513      144.446       43.603        0.091      348.149       27.633      860.169
09/12/2013  14:13:00     -155.064       85.037      -39.202       65.471      134.789       42.003     4286.457    18168.087     1764.284        2.851        1.211      176.851       54.406        0.095      347.952       27.290      860.166
09/12/2013  14:14:00      -28.550       97.423        4.840      105.721       65.435       44.581    11176.986     4281.761     1987.507        1.388        0.872      101.520       44.442        0.192      348.192       27.708      860.132
09/12/2013  14:15:00      -52.592      233.838      -23.715       40.491       87.241       41.287     1639.546     7610.977     1704.639        3.448        0.548      239.679       45.396        0.036      348.242       27.793      860.149
09/12/2013  14:16:00     -170.701       75.571      -11.405      128.536       96.779       61.363    16521.382     9366.119     3765.449        3.231        1.483      186.682       59.534        0.102      348.278       27.855      860.173
09/12/2013  14:17:00     -215.802       44.753      -34.194      136.452       92.430       87.585    18619.117     8543.338     7671.208        4.228        1.742      220.393       85.605        0.151      348.183       27.692      860.141
09/12/2013  14:18:00     -161.624      163.311      -31.475      114.807      122.959       61.701    13180.754    15118.982     3807.020        4.294        1.605      229.766       60.429        0.069      348.231       27.772      860.160
09/12/2013  14:19:00     -240.414      282.844      -50.986      137.802      133.610       71.116    18989.410    17851.530     5057.526        9.114        2.095      371.214       84.199        0.051      348.076       27.503      860.178
09/12/2013  14:20:00     -177.633      204.544      -34.471       75.179      118.201       58.458     5651.885    13971.525     3417.383        4.881        1.152      270.909       58.907        0.047      348.146       27.626      860.171
09/12/2013  14:21:00     -195.975      182.902      -41.473       96.849      107.599       49.477     9379.639    11577.497     2447.959        4.849        1.170      268.066       60.225        0.050      348.101       27.548      860.152
09/12/2013  14:22:00     -182.598      248.098      -34.801       95.244      110.904       60.259     9071.447    12299.644     3631.109        6.055        1.250      308.050       67.273        0.048      348.186       27.696      860.147
09/12/2013  14:23:00     -137.018       77.890      -14.657      148.167       78.390       52.872    21953.460     6145.051     2795.408        2.797        1.545      157.610       36.790        0.054      348.240       27.791      860.130
09/12/2013  14:24:00      -79.385       -6.436       -9.390       90.976       70.969       52.420     8276.710     5036.629     2747.869        1.124        0.803       79.645       49.888        0.392      348.502       28.244      860.101
09/12/2013  14:25:00       17.034      102.461        6.286       56.653       72.617       50.824     3209.529     5273.165     2583.062        1.094        0.553      103.867       48.262        0.216      348.597       28.408      860.090
09/12/2013  14:26:00       19.468      118.619        6.295       79.134       70.216       38.696     6262.226     4930.311     1497.378        1.359        0.634      120.206       41.262        0.118      348.456       28.165      860.065
09/12/2013  14:27:00      -81.203      101.907      -22.049       38.783       40.494       29.745     1504.138     1639.777      884.762        1.075        0.201      130.303       17.554        0.018      348.510       28.260      860.055
09/12/2013  14:28:00      -48.827       81.215      -12.618       36.138       53.336       34.838     1305.985     2844.721     1213.686        0.725        0.268       94.763       22.950        0.059      348.497       28.235      860.048
09/12/2013  14:29:00      -33.004       51.928        6.483       56.512       40.365       28.763     3193.654     1629.351      827.336        0.474        0.283       61.529       29.320        0.227      348.908       28.947      860.046
09/12/2013  14:30:00     -171.809      115.200      -26.171       91.140      160.653       51.733     8306.529    25809.523     2676.278        4.013        1.840      206.856       43.341        0.044      348.598       28.409      860.051
09/12/2013  14:31:00     -184.111      -83.166       -7.585       79.777       90.053       51.009     6364.308     8109.533     2601.947        2.897        0.854      202.023       25.743        0.016      348.373       28.021      860.021
09/12/2013  14:32:00     -306.687     -111.424      -13.965      162.708       90.470       55.181    26473.881     8184.756     3044.905        7.218        1.885      326.301       56.668        0.030      348.329       27.942      859.998
09/12/2013  14:33:00     -210.211      -65.076       -0.805       94.463      105.841       48.516     8923.246    11202.288     2353.788        3.545        1.124      220.054       46.366        0.044      348.322       27.932      859.996
09/12/2013  14:34:00     -277.150       77.800      -24.186      112.410       70.750       43.174    12635.965     5005.557     1864.028        5.147        0.975      287.862       46.560        0.026      348.295       27.883      859.972
09/12/2013  14:35:00     -249.276      -19.366      -10.501      115.834       93.005       47.792    13417.419     8649.896     2284.103        4.348        1.218      250.027       45.849        0.034      348.403       28.068      859.932
09/12/2013  14:36:00      -25.798       45.756       21.726       80.648       67.143       50.804     6504.150     4508.236     2581.028        0.841        0.680       52.528       44.936        0.732      348.723       28.628      859.929
09/12/2013  14:37:00       -4.223      116.911       -9.759       70.302       83.120       39.304     4942.370     6908.855     1544.780        1.359        0.670      116.987       32.766        0.078      348.563       28.350      859.924
09/12/2013  14:38:00      -37.711      122.080       -2.030       71.763       76.074       36.584     5149.873     5787.184     1338.407        1.430        0.614      127.771       43.090        0.114      348.630       28.466      859.925
09/12/2013  14:39:00     -101.728       95.701      -16.499       76.626       53.716       40.129     5871.607     2885.384     1610.348        1.507        0.518      139.668       31.451        0.051      348.581       28.381      859.916
09/12/2013  14:40:00      -80.906      110.715      -12.834       45.896       66.164       34.551     2106.468     4377.713     1193.774        1.332        0.384      137.126       31.965        0.054      348.615       28.440      859.895
09/12/2013  14:41:00     -151.009       41.748      -12.735      165.708       66.625       48.513    27459.224     4438.945     2353.492        2.947        1.713      156.674       60.198        0.148      348.598       28.409      859.859
09/12/2013  14:42:00     -277.292       -3.540      -23.450      110.729       95.188       56.124    12260.823     9060.696     3149.920        5.096        1.224      277.315       56.894        0.042      348.720       28.621      859.852
09/12/2013  14:43:00     -120.933      148.926        5.084      141.648      114.374       83.841    20064.089    13081.469     7029.370        3.849        2.009      191.843       77.222        0.162      348.644       28.488      859.881
09/12/2013  14:44:00     -136.635       39.145       -1.973      109.755       99.767       59.207    12046.191     9953.503     3505.412        2.285        1.275      142.132       51.311        0.130      348.769       28.705      859.874
09/12/2013  14:45:00     -138.611       97.468      -13.317       89.265       66.445       43.935     7968.251     4414.943     1930.251        2.160        0.716      169.449       42.485        0.063      348.561       28.346      859.870
09/12/2013  14:46:00      -97.759       96.556      -15.714       65.379       65.524       45.568     4274.430     4293.344     2076.415        1.488        0.532      137.404       22.180        0.026      348.628       28.461      859.858
09/12/2013  14:47:00     -162.384      169.625      -25.254       73.451      119.821       57.199     5395.107    14357.066     3271.780        3.940        1.151      234.822       45.542        0.038      348.487       28.216      859.868
09/12/2013  14:48:00     -141.441      181.661      -12.799      109.905      145.270       67.577    12079.071    21103.248     4566.699        4.545        1.887      230.231       82.978        0.130      348.436       28.129      859.857
09/12/2013  14:49:00     -132.243      112.426      -13.128       86.108       54.420       42.602     7414.509     2961.544     1814.956        2.124        0.610      173.574       42.254        0.059      348.570       28.360      859.846
09/12/2013  14:50:00      -72.669       88.880       -1.592       76.959       60.333       42.755     5922.642     3640.062     1828.014        1.228        0.570      114.806       53.921        0.221      348.659       28.516      859.831
09/12/2013  14:51:00       -1.284       50.237        3.285       87.715       63.682       29.998     7693.894     4055.446      899.892        0.759        0.632       50.253       41.752        0.690      348.435       28.129      859.805
09/12/2013  14:52:00      -89.553        6.645       -1.689       65.097       65.637       36.548     4237.590     4308.206     1335.771        0.897        0.494       89.799       35.454        0.156      348.492       28.228      859.798
09/12/2013  14:53:00     -114.370       82.155      -14.178       68.099       75.621       39.886     4637.461     5718.568     1590.911        1.599        0.597      140.818       31.324        0.049      348.436       28.129      859.811
09/12/2013  14:54:00     -101.259       63.979       -7.690       57.959       76.968       46.598     3359.292     5924.127     2171.420        1.293        0.573      119.778       49.616        0.172      348.505       28.250      859.812
09/12/2013  14:55:00      -67.909       23.246       14.866       70.051       60.864       41.540     4907.099     3704.406     1725.601        0.785        0.517       71.777       34.585        0.232      348.687       28.564      859.801
09/12/2013  14:56:00      -45.776       82.704      -10.270       71.560       78.721       37.285     5120.798     6197.059     1390.166        1.087        0.635       94.527       42.536        0.202      348.419       28.102      859.793
09/12/2013  14:57:00       28.892       29.439        5.478       31.708       27.157       18.736     1005.402      737.477      351.025        0.191        0.105       41.248        8.041        0.038      348.370       28.017      859.766
09/12/2013  14:58:00      -10.350       -3.063       10.418       22.942       25.772       18.585      526.358      664.198      345.396        0.088        0.077       10.794        9.815        0.827      348.619       28.448      859.751
09/12/2013  14:59:00      -16.477       24.423        8.568       20.746       39.508       17.121      430.388     1560.900      293.116        0.161        0.114       29.461        4.877        0.027      348.574       28.368      859.744
09/12/2013  15:00:00       -7.390       50.080        6.142       56.654       50.764       30.051     3209.694     2576.957      903.058        0.464        0.334       50.622       29.805        0.347      348.513       28.264      859.744
09/12/2013  15:01:00      -61.835       81.744        3.839       61.713       61.132       44.770     3808.545     3737.086     2004.383        1.003        0.478      102.497       42.433        0.171      348.608       28.428      859.759
09/12/2013  15:02:00     -125.800       65.627      -17.482       35.367       70.937       27.400     1250.840     5032.031      750.785        1.373        0.352      141.889       17.963        0.016      348.392       28.053      859.759
09/12/2013  15:03:00     -150.838      -18.212      -17.743       58.832       32.712       24.831     3461.206     1070.097      616.569        1.427        0.257      151.933       24.628        0.026      348.471       28.192      859.747
09/12/2013  15:04:00      -38.396       -2.027       19.242       76.210       83.374       50.903     5807.921     6951.268     2591.071        0.860        0.768       38.449       53.387        1.928      348.635       28.475      859.745
09/12/2013  15:05:00      -24.018       66.786        4.778       58.940       92.804       44.533     3473.946     8612.638     1983.224        0.956        0.703       70.973       16.352        0.053      348.590       28.397      859.757
09/12/2013  15:06:00      -50.313      262.416      -17.186       73.489      105.376       59.906     5400.696    11104.016     3588.688        4.589        1.005      267.195       53.864        0.041      348.453       28.157      859.754
09/12/2013  15:07:00       25.799      268.482      -34.307       60.278       82.460       42.875     3633.453     6799.649     1838.260        4.310        0.614      269.719       45.469        0.028      348.413       28.086      859.735
09/12/2013  15:08:00       -4.641      234.949      -18.295       49.432       91.899       43.754     2443.476     8445.496     1914.403        3.418        0.640      234.995       48.646        0.043      348.345       27.971      859.723
09/12/2013  15:09:00      -97.261      130.104      -24.812      103.793       84.519       44.553    10772.893     7143.378     1984.958        2.345        0.995      162.440       45.253        0.078      348.424       28.107      859.695
09/12/2013  15:10:00       79.749       90.024       11.098       98.333       56.526       39.944     9669.415     3195.170     1595.560        1.452        0.723      120.267       27.005        0.050      348.527       28.288      859.680
09/12/2013  15:11:00      308.933      195.396       36.227      129.108       92.962       98.506    16668.760     8641.973     9703.469        8.497        1.751      365.540       42.334        0.013      348.336       27.954      859.718
09/12/2013  15:12:00      229.405      187.571       30.065      156.803      115.564       98.062    24587.098    13354.941     9616.192        6.813        2.378      296.326       70.328        0.056      348.259       27.821      859.737
09/12/2013  15:13:00      250.284      174.016       21.416      144.041      103.947       78.470    20747.945    10805.009     6157.541        6.554        1.886      304.834       63.181        0.043      348.208       27.734      859.738
09/12/2013  15:14:00      307.118      190.254       61.725      170.169      133.216       83.334    28957.356    17746.501     6944.638        9.398        2.682      361.273       57.960        0.026      348.137       27.611      859.715
09/12/2013  15:15:00      366.426      247.641       45.159      134.767       96.781       95.824    18162.276     9366.483     9182.236       11.717        1.836      442.261       62.986        0.020      348.093       27.534      859.718
09/12/2013  15:16:00      202.904      139.192       20.840      120.395       90.957       78.758    14494.878     8273.206     6202.835        4.497        1.449      246.058       55.371        0.051      348.145       27.624      859.726
09/12/2013  15:17:00      297.792      236.920       42.342      117.168       76.947       80.562    13728.359     5920.787     6490.312        8.637        1.307      380.541       48.197        0.016      348.135       27.607      859.730
09/12/2013  15:18:00      185.667      129.905       18.215       97.027       80.201       66.929     9414.269     6432.242     4479.540        3.600        1.016      226.600       51.403        0.051      348.158       27.647      859.738
09/12/2013  15:19:00      194.066      183.349       -1.532      132.975       92.468       79.470    17682.408     8550.270     6315.535        5.191        1.627      266.981       68.796        0.066      348.150       27.632      859.746
09/12/2013  15:20:00      186.293      180.731        3.308      118.305      104.902       70.412    13996.138    11004.466     4957.867        4.866        1.498      259.555       59.844        0.053      348.088       27.525      859.738
09/12/2013  15:21:00      147.070      124.770       28.083      123.760       76.095       66.180    15316.460     5790.476     4379.786        3.173        1.274      192.866       41.764        0.047      348.168       27.664      859.742
09/12/2013  15:22:00      203.626      164.628       27.514      134.959       81.953       56.159    18213.945     6716.235     3153.842        4.870        1.404      261.852       37.713        0.021      348.154       27.640      859.750
09/12/2013  15:23:00      196.304      149.004       27.483      107.642       85.280       65.725    11586.696     7272.694     4319.828        4.233        1.159      246.450       31.295        0.016      348.171       27.670      859.774
09/12/2013  15:24:00      195.421       92.624       43.089      132.470       88.776       71.288    17548.260     7881.254     5081.929        3.956        1.526      216.260       45.522        0.044      348.102       27.549      859.779
09/12/2013  15:25:00      164.157      182.095       11.100      120.856      105.321       86.788    14606.149    11092.451     7532.228        4.672        1.662      245.166       67.572        0.076      348.085       27.519      859.797
09/12/2013  15:26:00      191.524      147.508       34.694      143.238      100.426       77.466    20517.164    10085.359     6000.965        4.812        1.830      241.743       49.872        0.043      348.016       27.402      859.808
09/12/2013  15:27:00      142.792      205.106        1.756      122.453      136.356       70.776    14994.744    18592.888     5009.177        5.052        1.930      249.916       72.516        0.084      348.003       27.380      859.818
09/12/2013  15:28:00       71.950      164.163       -2.285       76.993      106.218       44.243     5927.910    11282.259     1957.468        2.565        0.958      179.238       50.869        0.081      348.049       27.460      859.815
09/12/2013  15:29:00      166.349      151.736        3.631      102.167       92.366       77.644    10438.002     8531.455     6028.539        3.785        1.250      225.157       55.584        0.061      348.049       27.458      859.811
09/12/2013  15:30:00      164.452      118.868       72.212      108.028       93.830       79.970    11669.971     8804.160     6395.193        3.662        1.343      202.914       53.493        0.069      348.014       27.396      859.792
09/12/2013  15:31:00      121.600      108.889        4.036       91.995      107.107       51.749     8463.082    11471.992     2677.958        2.463        1.131      163.228       35.662        0.048      348.079       27.511      859.811
09/12/2013  15:32:00      135.221      141.191      -15.295       92.611       90.228       62.456     8576.787     8141.139     3900.692        2.953        1.031      195.498       49.405        0.064      348.040       27.443      859.837
09/12/2013  15:33:00      120.270      174.577        6.405      103.864       87.330       62.845    10787.789     7626.487     3949.482        3.367        1.118      211.995       54.104        0.065      347.966       27.314      859.827
09/12/2013  15:34:00       52.561       83.908       16.046       54.395       73.616       49.018     2958.812     5419.378     2402.747        1.042        0.539       99.012       46.376        0.219      348.017       27.405      859.824
09/12/2013  15:35:00       53.779       89.295       -3.615       54.401       57.184       41.486     2959.513     3269.999     1721.050        0.941        0.398      104.239       35.228        0.114      348.038       27.443      859.825
09/12/2013  15:36:00       70.288       86.544       10.309       71.787       69.821       54.822     5153.439     4874.929     3005.404        1.278        0.652      111.491       45.222        0.165      348.063       27.486      859.813
09/12/2013  15:37:00      165.418       90.852       51.565       92.083       72.863       53.197     8479.255     5309.088     2829.870        2.744        0.831      188.725       16.043        0.007      347.968       27.319      859.808
09/12/2013  15:38:00        7.255      202.981      -18.746       93.063       94.287       51.370     8660.665     8890.087     2638.894        3.089        1.009      203.111       60.260        0.088      347.993       27.362      859.797
09/12/2013  15:39:00      115.184      186.411      -12.369      100.333      105.803       67.152    10066.782    11194.264     4509.428        3.696        1.289      219.127       63.603        0.084      348.008       27.388      859.787
09/12/2013  15:40:00      311.725      223.506       21.111      104.230       88.958       84.876    10863.907     7913.446     7203.851        8.677        1.299      383.572       45.245        0.014      347.956       27.296      859.769
09/12/2013  15:41:00      178.362      144.796       -2.668      129.086       92.650       72.289    16663.108     8583.976     5225.703        4.162        1.524      229.737       46.067        0.040      348.009       27.391      859.766
09/12/2013  15:42:00      115.295       87.900       29.654       74.043       51.147       48.053     5482.384     2616.058     2309.045        1.615        0.520      144.981       28.837        0.040      348.069       27.495      859.785
09/12/2013  15:43:00       51.113      156.199      -10.407       70.365       81.974       36.499     4951.212     6719.713     1332.145        2.006        0.650      164.349       23.953        0.021      348.055       27.472      859.778
09/12/2013  15:44:00       18.144      216.187      -11.211       59.560      119.055       53.505     3547.368    14174.179     2862.786        3.388        1.029      216.947       62.637        0.083      348.101       27.548      859.766
09/12/2013  15:45:00       96.840      143.136       12.425      120.528       86.095       62.857    14527.036     7412.311     3950.979        2.795        1.295      172.818       48.869        0.080      348.051       27.463      859.773
09/12/2013  15:46:00      229.007      149.621       15.500      115.779      105.890       70.726    13404.705    11212.631     5002.194        5.234        1.481      273.552       35.835        0.017      347.940       27.270      859.747
09/12/2013  15:47:00      153.388      143.325       -3.951      123.335      105.495       53.333    15211.465    11129.172     2844.420        3.663        1.459      209.928       49.848        0.056      347.944       27.277      859.743
09/12/2013  15:48:00       73.102       92.360       34.138       76.211      102.674       65.092     5808.083    10541.862     4236.966        1.781        1.029      117.789       60.569        0.264      347.978       27.337      859.756
09/12/2013  15:49:00      -21.027      243.840      -28.592       54.905       59.130       36.907     3014.608     3496.340     1362.135        3.429        0.394      244.745       37.102        0.023      347.874       27.156      859.751
09/12/2013  15:50:00       55.017      150.740       -5.085       84.503      104.402       61.999     7140.765    10899.687     3843.819        2.383        1.094      160.466       65.770        0.168      347.929       27.252      859.742
09/12/2013  15:51:00       10.018      171.994      -10.570       97.765       90.946       48.262     9558.023     8271.097     2329.190        2.497        1.008      172.286       47.555        0.076      347.941       27.272      859.749
09/12/2013  15:52:00       52.979      213.659       -6.391       98.249      105.254       61.949     9652.897    11078.442     3837.646        3.653        1.228      220.129       66.756        0.092      347.973       27.326      859.742
09/12/2013  15:53:00       80.738      110.590        6.716       59.527       51.895       40.408     3543.465     2693.140     1632.841        1.333        0.393      136.926       32.846        0.058      347.982       27.346      859.731
09/12/2013  15:54:00       94.163       95.389       17.450       75.342       60.525       63.672     5676.426     3663.225     4054.157        1.583        0.670      134.036       50.779        0.144      348.053       27.469      859.741
09/12/2013  15:55:00      144.891      111.073       16.935      100.764       61.277       59.586    10153.426     3754.891     3550.506        2.553        0.873      182.566       44.369        0.059      347.929       27.253      859.731
09/12/2013  15:56:00      238.230      153.441       29.145      146.969       95.804       85.256    21599.938     9178.388     7268.593        5.959        1.902      283.368       58.678        0.043      347.892       27.189      859.717
09/12/2013  15:57:00      239.718      127.320       18.033       94.350       92.213       67.078     8901.863     8503.235     4499.483        4.795        1.095      271.432       42.372        0.024      347.884       27.172      859.709
09/12/2013  15:58:00      147.216      114.841       18.727       72.479       59.778       47.564     5253.165     3573.398     2262.375        2.315        0.554      186.711       32.146        0.030      347.932       27.257      859.717
09/12/2013  15:59:00       88.325      156.007       -6.342       98.208       74.944       60.123     9644.908     5616.576     3614.732        2.552        0.944      179.275       45.576        0.065      347.961       27.307      859.715
09/12/2013  16:00:00       64.071      146.482      -18.975       80.493       95.192       44.952     6479.118     9061.495     2020.722        2.174        0.878      159.881       39.315        0.060      347.933       27.260      859.726
09/12/2013  16:01:00      121.141      123.475       -2.193       69.557       61.221       51.666     4838.133     3748.001     2669.419        2.059        0.563      172.977       34.511        0.040      347.923       27.242      859.718
09/12/2013  16:02:00      199.785      129.500       29.662      128.323       83.242       66.893    16466.845     6929.218     4474.712        4.271        1.394      238.084       43.600        0.034      347.899       27.199      859.693
09/12/2013  16:03:00      140.305      141.106        9.401      124.903       87.698       66.878    15600.836     7690.962     4472.663        3.372        1.388      198.988       39.513        0.039      347.912       27.221      859.706
09/12/2013  16:04:00       97.139      126.888       -0.196      104.652       78.150       55.338    10952.073     6107.414     3062.306        2.283        1.006      159.802       49.115        0.094      347.912       27.223      859.713
09/12/2013  16:05:00      147.762      132.645       -3.654      111.672       77.507       53.533    12470.593     6007.321     2865.734        3.039        1.067      198.566       33.221        0.028      347.895       27.194      859.702
09/12/2013  16:06:00      177.863      156.754       -8.966      116.035       85.091       60.505    13464.177     7240.524     3660.834        4.032        1.218      237.080       43.636        0.034      347.882       27.168      859.691
09/12/2013  16:07:00      172.157      115.514       15.012      112.260       70.555       63.877    12602.415     4977.997     4080.256        3.243        1.083      207.320       42.558        0.042      347.868       27.147      859.698
09/12/2013  16:08:00      140.579      108.629       17.160       80.642       56.568       53.791     6503.116     3199.933     2893.484        2.222        0.630      177.659       20.625        0.013      347.874       27.158      859.686
09/12/2013  16:09:00      145.237       96.912       24.248       83.605       68.247       54.832     6989.750     4657.690     3006.550        2.286        0.733      174.602       34.028        0.038      347.894       27.193      859.683
09/12/2013  16:10:00      142.774      100.276       19.689       95.169       56.336       51.286     9057.203     3173.690     2630.259        2.284        0.743      174.470       30.558        0.031      347.890       27.184      859.687
09/12/2013  16:11:00      150.262       97.889       16.835       65.638       56.668       47.146     4308.332     3211.281     2222.718        2.109        0.487      179.334       23.650        0.017      347.885       27.176      859.690
09/12/2013  16:12:00       51.035      134.187       -6.448       52.253       86.806       49.384     2730.354     7535.318     2438.778        1.668        0.635      143.565       48.236        0.113      347.929       27.253      859.677
09/12/2013  16:13:00       60.460       69.042        3.552       56.353       48.140       36.406     3175.703     2317.477     1325.410        0.763        0.341       91.772       24.974        0.074      347.967       27.320      859.664
09/12/2013  16:14:00      145.846      118.848       18.900       90.462       67.026       56.581     8183.450     4492.477     3201.444        2.581        0.794      188.139       40.565        0.046      347.961       27.307      859.663
09/12/2013  16:15:00      221.320      153.670       48.382      136.616       89.150       63.197    18664.045     7947.792     3993.841        5.277        1.530      269.438       50.317        0.035      347.876       27.159      859.667
09/12/2013  16:16:00      169.551       97.439       31.080      116.580       75.246       64.741    13590.785     5662.010     4191.453        3.132        1.172      195.555       38.712        0.039      347.862       27.136      859.655
09/12/2013  16:17:00      205.384      125.208       56.112      100.556       90.943       71.112    10111.522     8270.705     5056.957        4.222        1.172      240.540       44.962        0.035      347.863       27.138      859.647
09/12/2013  16:18:00      199.805      115.000       37.558       92.898       68.512       60.601     8630.004     4693.861     3672.429        3.577        0.850      230.537       40.286        0.031      347.850       27.113      859.646
09/12/2013  16:19:00      194.680      119.693       53.286      106.508       80.318       74.329    11343.898     6450.957     5524.854        3.919        1.166      228.531       32.889        0.021      347.824       27.067      859.639
09/12/2013  16:20:00      117.983      107.413        6.773       66.235       55.015       44.769     4387.066     3026.668     2004.256        1.746        0.471      159.554       29.875        0.035      347.947       27.283      859.663
09/12/2013  16:21:00       95.894      134.586        7.573       82.539       72.734       58.310     6812.669     5290.245     3400.057        2.143        0.775      165.255       35.805        0.047      347.978       27.338      859.669
09/12/2013  16:22:00      118.377      142.005       14.345       99.460       86.897       87.760     9892.344     7551.041     7701.761        2.976        1.257      184.874       63.281        0.117      347.942       27.273      859.659
09/12/2013  16:23:00      145.065      107.978        1.412      104.668       58.743       46.066    10955.380     3450.719     2122.068        2.461        0.826      180.840       21.723        0.014      347.910       27.219      859.660
09/12/2013  16:24:00       70.189      132.829        0.657       80.541       80.832       44.511     6486.907     6533.872     1981.206        1.878        0.750      150.233       40.326        0.072      347.935       27.260      859.675
09/12/2013  16:25:00       61.304       76.430       12.577       49.763       61.508       42.027     2476.350     3783.249     1766.305        0.889        0.401       97.978       35.627        0.132      347.998       27.373      859.686
09/12/2013  16:26:00       41.371      139.554        1.928       69.984       80.392       51.080     4897.707     6462.904     2609.195        1.758        0.698      145.557       52.445        0.130      347.967       27.319      859.684
09/12/2013  16:27:00      133.391      109.472       22.776       70.620       52.397       52.391     4987.139     2745.475     2744.789        2.038        0.524      172.561       36.379        0.044      347.941       27.271      859.675
09/12/2013  16:28:00      105.954       82.950       24.628       53.484       36.847       32.775     2860.498     1357.730     1074.192        1.200        0.265      134.563       21.509        0.026      347.902       27.208      859.674
09/12/2013  16:29:00      113.408       83.681       29.602       49.740       32.032       37.399     2474.114     1026.054     1398.714        1.282        0.245      140.940       19.750        0.020      347.926       27.247      859.674
09/12/2013  16:30:00      175.477      126.776       22.091       58.149       57.496       54.353     3381.297     3305.779     2954.285        2.849        0.482      216.481       39.938        0.034      347.880       27.168      859.656
09/12/2013  16:31:00      164.129      140.926       16.760       74.802       48.356       47.874     5595.290     2338.321     2291.903        2.865        0.511      216.330       26.971        0.016      347.902       27.204      859.638
09/12/2013  16:32:00      165.218      111.958       26.546       75.542       50.805       53.421     5706.541     2581.126     2853.819        2.584        0.557      199.579       45.047        0.051      347.926       27.246      859.630
09/12/2013  16:33:00      151.054      121.193        7.737       77.126       49.264       39.896     5948.474     2426.922     1591.669        2.376        0.498      193.662       22.572        0.014      347.938       27.266      859.637
09/12/2013  16:34:00      112.689       74.868       14.163       48.538       44.237       39.117     2355.926     1956.923     1530.152        1.217        0.292      135.292       28.317        0.044      347.948       27.286      859.659
09/12/2013  16:35:00       52.406      142.761      -13.106       43.825       79.236       35.299     1920.614     6278.274     1246.011        1.637        0.472      152.076       42.392        0.078      347.965       27.314      859.671
09/12/2013  16:36:00       56.042      106.574        0.943       55.800       69.877       55.274     3113.691     4882.761     3055.231        1.277        0.553      120.410       46.896        0.152      347.986       27.352      859.681
09/12/2013  16:37:00       44.360       36.281       21.903       63.781       32.417       31.337     4067.967     1050.867      982.004        0.493        0.305       57.307       21.811        0.145      348.037       27.442      859.685
09/12/2013  16:38:00      127.002       70.171       25.217       61.630       45.590       38.853     3798.222     2078.479     1509.542        1.454        0.369      145.098       19.984        0.019      347.967       27.318      859.687
09/12/2013  16:39:00       73.307       50.230       18.377       88.756       48.197       38.200     7877.628     2322.967     1459.269        0.994        0.583       88.865       18.469        0.043      347.990       27.358      859.688
09/12/2013  16:40:00      160.034      122.662       19.562      101.476       77.224       61.709    10297.356     5963.545     3807.943        3.055        1.003      201.636       40.428        0.040      347.939       27.269      859.685
09/12/2013  16:41:00      209.668      130.857       40.356       98.111       71.374       73.572     9625.820     5094.208     5412.794        4.142        1.007      247.152       30.744        0.015      347.897       27.194      859.678
09/12/2013  16:42:00      136.618       60.727        6.685       81.352       51.907       39.605     6618.200     2694.319     1568.583        1.664        0.544      149.507       29.726        0.040      347.960       27.308      859.708
09/12/2013  16:43:00      115.628       94.899       18.127       55.731       44.199       44.223     3105.945     1953.565     1955.693        1.486        0.351      149.585       29.809        0.040      347.916       27.230      859.716
09/12/2013  16:44:00       83.510       46.136       16.893       46.336       39.055       29.073     2147.067     1525.305      845.219        0.695        0.226       95.407       16.748        0.031      347.914       27.228      859.709
09/12/2013  16:45:00       75.582       48.153        5.971       30.720       25.899       21.857      943.689      670.746      477.724        0.508        0.105       89.618       12.369        0.019      347.876       27.165      859.714
09/12/2013  16:46:00       45.605       82.668        4.806       48.956       70.306       32.510     2396.676     4942.895     1056.888        0.866        0.420       94.413       41.478        0.193      347.943       27.277      859.721
09/12/2013  16:47:00       36.449      145.454      -14.236       52.024       82.590       38.879     2706.542     6821.082     1511.548        1.686        0.552      149.952       38.752        0.067      347.902       27.206      859.713
09/12/2013  16:48:00      140.467       96.264       11.020       83.137       57.637       44.463     6911.704     3322.003     1976.961        2.066        0.611      170.288       31.462        0.034      347.927       27.249      859.729
09/12/2013  16:49:00      160.044      120.769        7.846       86.579       73.689       60.861     7495.871     5430.118     3704.094        2.844        0.832      200.498       38.995        0.038      347.912       27.221      859.727
09/12/2013  16:50:00       56.895       61.741       14.463       50.904       57.680       41.854     2591.255     3326.971     1751.743        0.746        0.383       83.958       36.475        0.189      347.939       27.269      859.746
09/12/2013  16:51:00      133.796       88.670       40.685       76.427       46.843       39.554     5841.080     2194.309     1564.514        1.851        0.480      160.511       25.702        0.026      347.865       27.142      859.757
09/12/2013  16:52:00      134.669       99.281       23.710       92.600       65.504       46.051     8574.688     4290.824     2120.705        2.177        0.749      167.310       42.253        0.064      347.886       27.179      859.766
09/12/2013  16:53:00       72.753       81.394        3.347       59.801       44.721       39.689     3576.142     1999.980     1575.181        0.954        0.358      109.170       26.607        0.059      347.931       27.256      859.761
09/12/2013  16:54:00      108.605       85.494        8.014       63.710       60.070       49.658     4058.971     3608.359     2465.897        1.465        0.507      138.218       37.485        0.074      347.908       27.216      859.767
09/12/2013  16:55:00      108.965       64.004       14.523       81.254       63.359       49.519     6602.290     4014.345     2452.124        1.462        0.653      126.372       45.583        0.130      347.923       27.242      859.761
09/12/2013  16:56:00      159.807       90.586       28.992       79.568       64.384       43.932     6331.090     4145.298     1929.995        2.349        0.620      183.696       26.549        0.021      347.880       27.167      859.756
09/12/2013  16:57:00      139.702       81.766       40.749       77.437       56.251       38.698     5996.563     3164.167     1497.564        1.926        0.533      161.871        9.095        0.003      347.871       27.152      859.746
09/12/2013  16:58:00       80.046       83.893        1.788       51.250       47.933       38.049     2626.547     2297.617     1447.757        0.991        0.319      115.955       26.670        0.053      347.882       27.172      859.729
09/12/2013  16:59:00      101.302       54.501       19.575       90.257       60.048       42.459     8146.339     3605.727     1802.785        1.358        0.678      115.032       36.717        0.102      347.945       27.281      859.718
09/12/2013  17:00:00       96.996       90.235       23.382       76.444       51.291       47.140     5843.758     2630.743     2222.199        1.439        0.535      132.479       27.916        0.044      347.940       27.271      859.711
09/12/2013  17:01:00      123.187       75.332       24.922       67.131       39.181       46.326     4506.528     1535.149     2146.097        1.483        0.409      144.395       24.175        0.028      347.907       27.216      859.719
09/12/2013  17:02:00       71.057       45.498       12.804       54.730       42.594       34.586     2995.417     1814.287     1196.181        0.664        0.300       84.375       22.775        0.073      347.926       27.248      859.718
09/12/2013  17:03:00       92.469       99.515       -2.443       56.283       42.565       36.525     3167.786     1811.790     1334.060        1.239        0.316      135.845       28.824        0.045      347.913       27.224      859.723
09/12/2013  17:04:00       65.560      149.532       -8.523       60.420       88.091       53.373     3650.577     7759.965     2848.699        2.049        0.713      163.272       57.228        0.123      347.931       27.253      859.720
09/12/2013  17:05:00      121.771      108.125       16.737       67.725       52.894       53.180     4586.642     2797.769     2828.090        1.850        0.511      162.848       41.606        0.065      347.937       27.264      859.713
09/12/2013  17:06:00       81.054      173.522       -5.697      105.472      117.272       81.990    11124.351    13752.770     6722.298        3.415        1.580      191.520       71.164        0.138      347.932       27.255      859.700
09/12/2013  17:07:00       77.437      179.764       -8.134       81.352       97.347       75.182     6618.102     9476.441     5652.281        3.006        1.087      195.734       64.890        0.110      347.917       27.229      859.701
09/12/2013  17:08:00       67.965      142.578        4.093       62.952      103.833       63.722     3962.952    10781.389     4060.498        2.188        0.940      157.948       59.261        0.141      347.920       27.234      859.704
09/12/2013  17:09:00       55.439       45.696       12.183       49.284       44.394       40.117     2428.884     1970.861     1609.374        0.566        0.300       71.844       22.074        0.094      347.909       27.221      859.712
09/12/2013  17:10:00       17.728      104.893      -14.502       38.712       73.930       34.381     1498.630     5465.654     1182.081        0.984        0.407      106.380       29.190        0.075      347.890       27.187      859.720
09/12/2013  17:11:00       32.892      126.219       -6.855       34.510       53.961       32.316     1190.973     2911.777     1044.320        1.110        0.257      130.434       32.763        0.063      347.897       27.200      859.719
09/12/2013  17:12:00       18.085      133.685      -13.660       35.813       51.738       30.402     1282.604     2676.780      924.255        1.163        0.244      134.902       31.358        0.054      347.895       27.195      859.733
09/12/2013  17:13:00       32.501       82.581        8.611       55.368       60.648       49.042     3065.581     3678.145     2405.137        0.855        0.457       88.747       43.043        0.235      347.912       27.225      859.750
09/12/2013  17:14:00      -14.829      108.178       -6.183       37.577       37.922       29.543     1412.034     1438.112      872.799        0.784        0.186      109.190       25.217        0.053      347.887       27.182      859.779
09/12/2013  17:15:00       -3.595       92.905      -10.514       33.235       51.364       20.097     1104.561     2638.257      403.886        0.645        0.207       92.974       20.908        0.051      347.897       27.198      859.803
09/12/2013  17:16:00       19.752       61.166      -10.016       29.079       31.640       19.305      845.611     1001.095      372.679        0.323        0.111       64.276       17.350        0.073      347.899       27.199      859.828
09/12/2013  17:17:00      -79.577       90.594      -21.351       25.303       37.192       19.452      640.261     1383.279      378.389        0.870        0.120      120.581       22.651        0.035      347.794       27.020      859.864
09/12/2013  17:18:00      -74.044       57.381      -17.054       23.178       23.227       13.069      537.216      539.495      170.797        0.516        0.062       93.676       10.837        0.013      347.805       27.040      859.897
09/12/2013  17:19:00     -140.257      -40.603      -14.037       41.920       44.218       18.650     1757.277     1955.218      347.821        1.279        0.203      146.016       11.583        0.006      347.761       26.964      859.937
09/12/2013  17:20:00     -234.842      -84.277        0.349       63.611       56.021       36.473     4046.330     3138.401     1330.300        3.538        0.426      249.506       34.219        0.019      347.656       26.779      859.978
09/12/2013  17:21:00     -200.104     -114.976        2.025      104.898       79.413       53.337    11003.573     6306.413     2844.882        3.671        1.008      230.784       43.667        0.036      347.342       26.237      860.007
09/12/2013  17:22:00     -292.525      -51.217       -6.584      130.663      114.568       63.397    17072.862    13125.757     4019.232        6.122        1.711      296.975       69.883        0.055      346.981       25.617      860.048
09/12/2013  17:23:00     -218.054     -100.729       -1.665      110.573      160.994       60.236    12226.383    25919.076     3628.396        4.973        2.089      240.195       60.898        0.064      346.766       25.246      860.133
09/12/2013  17:24:00     -165.492      -24.166       15.439      184.157      137.004       66.168    33913.926    18769.975     4378.183        4.262        2.853      167.247       80.244        0.230      346.661       25.067      860.281
09/12/2013  17:25:00      131.138      123.962       -6.696       80.295       65.968       52.144     6447.295     4351.772     2718.954        2.306        0.676      180.454       32.931        0.033      346.643       25.036      860.437
09/12/2013  17:26:00      259.863      214.809       26.643      162.916      102.027       82.508    26541.761    10409.457     6807.493        7.906        2.188      337.152       68.923        0.042      346.815       25.332      860.549
09/12/2013  17:27:00       97.079      302.905      -18.266      122.763      216.537       96.344    15070.812    46888.128     9282.133        8.636        3.562      318.082      103.704        0.106      346.404       24.624      860.568
09/12/2013  17:28:00       63.859      357.475      -27.391      169.699      184.456      107.750    28797.861    34024.166    11610.166       10.351        3.722      363.134       99.331        0.075      346.072       24.054      860.600
09/12/2013  17:29:00       80.251      469.344      -37.685      150.189      307.404      131.623    22556.637    94497.378    17324.564       18.123        6.719      476.155      169.915        0.127      345.941       23.828      860.620
09/12/2013  17:30:00       49.351      358.326       -3.700      136.202      249.477      123.855    18551.094    62238.643    15339.994       11.347        4.806      361.709      139.222        0.148      345.818       23.617      860.605
09/12/2013  17:31:00       43.170      428.366      -34.127      157.718      266.194      119.961    24874.957    70859.369    14390.715       14.830        5.506      430.536      130.938        0.092      345.630       23.294      860.624
09/12/2013  17:32:00       -1.534      561.737      -73.314      182.351      265.259       96.232    33251.942    70362.082     9260.659       21.688        5.644      561.739      114.672        0.042      345.477       23.030      860.681
09/12/2013  17:33:00       83.116      652.741      -38.228      255.455      317.182      142.213    65257.374   100604.255    20224.504       31.023        9.304      658.012      170.799        0.067      345.414       22.923      860.702
09/12/2013  17:34:00       73.379      372.260      -25.461      156.387      230.363      126.334    24456.914    53067.196    15960.206       11.903        4.674      379.423      130.025        0.117      345.408       22.914      860.743
09/12/2013  17:35:00       -0.193      317.000      -25.350      118.833      232.904       91.196    14121.206    54244.053     8316.659        8.889        3.834      317.000      121.164        0.146      345.409       22.915      860.776
09/12/2013  17:36:00      -57.285      368.530      -24.083      148.258      178.361       96.273    21980.304    31812.744     9268.476       10.136        3.153      372.956      106.999        0.082      345.532       23.125      860.796
09/12/2013  17:37:00       24.270      454.689      -42.184      145.662      236.536      112.603    21217.448    55949.060    12679.364       14.946        4.492      455.336      121.749        0.071      345.593       23.230      860.780
09/12/2013  17:38:00       13.098      379.348      -21.755      137.805      201.593      108.514    18990.213    40639.796    11775.323       10.796        3.570      379.574      114.838        0.092      345.577       23.203      860.805
09/12/2013  17:39:00      -21.179      393.855      -27.876      115.540      233.328      105.076    13349.591    54441.727    11041.028       11.757        3.942      394.425      124.912        0.100      345.547       23.153      860.819
09/12/2013  17:40:00       -2.759      488.523      -51.608      130.832      233.802       99.359    17116.915    54663.471     9872.138       16.147        4.083      488.531      120.904        0.061      345.547       23.152      860.861
09/12/2013  17:41:00       19.586      446.965      -60.153       93.208      142.145       79.834     8687.726    20205.110     6373.489       11.952        1.763      447.394       80.501        0.032      345.488       23.050      860.896
09/12/2013  17:42:00      -13.534      299.138      -20.656      109.751      153.490       83.737    12045.371    23559.032     7011.824        6.635        2.131      299.444       80.170        0.072      345.494       23.061      860.922
09/12/2013  17:43:00        8.369      315.689      -23.373      102.486      186.500       75.981    10503.455    34782.315     5773.069        7.566        2.553      315.800       94.767        0.090      345.497       23.068      860.921
09/12/2013  17:44:00      -90.629      496.976      -58.394      120.803      132.074       58.495    14593.359    17443.575     3421.624       14.703        1.773      505.172       57.996        0.013      345.645       23.319      860.952
09/12/2013  17:45:00      -29.168      482.186      -71.360      135.240      138.178       62.013    18289.985    19093.156     3845.583       13.983        2.061      483.068       50.282        0.011      345.540       23.140      860.976
09/12/2013  17:46:00      -38.639      387.604      -39.806      101.534      153.704       68.617    10309.115    23624.839     4708.294        9.597        1.932      389.525       73.361        0.035      345.380       22.865      861.013
09/12/2013  17:47:00      -30.357      495.461      -53.454      107.216      177.655       78.603    11495.212    31561.362     6178.480       14.924        2.462      496.390       86.862        0.031      345.298       22.725      861.033
09/12/2013  17:48:00       15.342      295.680       -5.324      105.493      209.248       93.080    11128.722    43784.773     8663.862        7.562        3.179      296.078      110.898        0.140      345.182       22.526      861.048
09/12/2013  17:49:00      -76.968      421.009      -45.880      102.560      166.266       68.911    10518.474    27644.314     4748.693       11.409        2.146      427.987       78.720        0.034      345.187       22.536      861.071
09/12/2013  17:50:00      -61.936      532.691      -67.613       91.770      128.064       61.837     8421.772    16400.375     3823.866       16.040        1.432      536.280       64.636        0.015      345.229       22.607      861.103
09/12/2013  17:51:00      -75.367      301.738      -39.232       62.576       90.155       42.143     3915.737     8127.869     1776.001        5.604        0.691      311.008       35.017        0.013      345.102       22.388      861.128
09/12/2013  17:52:00     -140.311      193.875      -29.864       64.084      104.060       43.359     4106.745    10828.491     1880.010        3.749        0.841      239.322       43.872        0.034      345.100       22.387      861.148
09/12/2013  17:53:00     -151.481      195.340      -36.741       84.490       80.381       42.488     7138.477     6461.028     1805.199        3.893        0.770      247.193       41.110        0.028      344.863       21.980      861.176
09/12/2013  17:54:00     -192.696      174.924      -16.746      124.004      125.207       74.343    15376.896    15676.864     5526.893        5.229        1.829      260.250       79.723        0.094      344.713       21.723      861.164
09/12/2013  17:55:00     -246.473      237.237      -52.148      110.116      111.625       62.743    12125.544    12460.213     3936.722        7.413        1.426      342.096       77.969        0.052      344.630       21.582      861.155
09/12/2013  17:56:00      -89.686      231.337      -42.030       82.589      100.361       48.267     6820.900    10072.350     2329.711        4.127        0.961      248.114       54.169        0.048      344.635       21.591      861.192
09/12/2013  17:57:00      -10.979      203.610      -13.065       86.374      110.401       55.382     7460.549    12188.364     3067.151        3.223        1.136      203.905       63.111        0.096      344.657       21.629      861.161
09/12/2013  17:58:00     -113.584      123.600      -19.180       86.028      110.806       53.618     7400.856    12278.035     2874.837        2.555        1.128      167.864       55.836        0.111      344.675       21.662      861.167
09/12/2013  17:59:00     -161.126      190.499      -16.396       94.088      128.495       59.515     8852.541    16510.925     3541.997        4.571        1.445      249.503       64.204        0.066      344.770       21.821      861.172
09/12/2013  18:00:00     -218.057      269.341      -46.462      105.395      138.828       65.156    11108.115    19273.275     4245.301        7.843        1.731      346.545       62.732        0.033      344.914       22.068      861.200
09/12/2013  18:01:00     -229.271      234.125      -57.936      103.754      103.271       73.851    10764.951    10664.971     5454.008        6.880        1.344      327.689       54.054        0.027      344.930       22.095      861.195
09/12/2013  18:02:00     -209.515      266.829      -47.159       93.745      100.644       67.094     8788.049    10129.231     4501.607        7.036        1.171      339.255       57.828        0.029      344.953       22.132      861.182
09/12/2013  18:03:00     -171.554      252.786      -36.146       88.228      118.024       56.330     7784.249    13929.581     3173.085        5.976        1.244      305.502       63.169        0.043      345.037       22.278      861.161
09/12/2013  18:04:00     -130.055      202.014      -30.304       82.614       76.362       52.584     6825.092     5831.092     2765.116        3.703        0.771      240.258       46.860        0.038      345.113       22.408      861.123
09/12/2013  18:05:00     -102.860      207.922      -19.827       88.841      112.227       50.186     7892.746    12594.794     2518.667        3.860        1.150      231.973       41.864        0.033      345.076       22.344      861.109
09/12/2013  18:06:00      -98.352      277.076      -23.469      105.042      115.331       61.274    11033.904    13301.322     3754.555        5.754        1.404      294.014       64.345        0.048      345.048       22.298      861.094
09/12/2013  18:07:00      -42.744      367.162      -43.364       73.453       95.205       47.949     5395.305     9064.068     2299.123        7.763        0.838      369.641       42.660        0.013      345.064       22.325      861.076
09/12/2013  18:08:00      -79.892      303.646      -31.479       85.419       83.945       53.014     7296.472     7046.753     2810.532        5.836        0.858      313.980       48.259        0.024      344.940       22.112      861.071
09/12/2013  18:09:00      -75.270      377.374      -43.851       75.073      205.973       70.398     5636.026    42424.823     4955.894       10.150        2.651      384.807       91.458        0.056      344.971       22.164      861.110
09/12/2013  18:10:00      -70.327      367.150      -47.193       61.770      165.508       49.904     3815.590    27392.739     2490.394        8.783        1.685      373.824       75.089        0.040      344.923       22.082      861.116
09/12/2013  18:11:00      -22.420      258.741      -19.927       74.746       99.592       55.188     5586.975     9918.613     3045.754        4.320        0.928      259.711       52.046        0.040      344.818       21.904      861.106
09/12/2013  18:12:00      -32.081      192.374      -13.845       85.823       92.114       46.140     7365.594     8485.019     2128.936        2.810        0.899      195.031       53.301        0.075      344.796       21.867      861.103
09/12/2013  18:13:00      -44.131      169.502      -12.417       59.496       67.108       35.168     3539.777     4503.482     1236.768        2.005        0.464      175.153       29.870        0.029      344.878       22.009      861.114
09/12/2013  18:14:00      -90.967      149.903      -16.740       70.925       77.488       46.340     5030.394     6004.326     2147.410        2.210        0.659      175.345       46.265        0.070      344.991       22.201      861.132
09/12/2013  18:15:00     -113.109       96.550      -11.925       73.253       63.922       39.173     5366.023     4086.046     1534.535        1.662        0.549      148.713       40.316        0.073      344.957       22.143      861.147
09/12/2013  18:16:00     -125.953      104.052      -13.254       68.965       76.517       49.267     4756.215     5854.792     2427.250        1.995        0.652      163.373       41.754        0.065      344.920       22.079      861.137
09/12/2013  18:17:00     -169.627      187.421      -28.314       83.458      127.498       65.963     6965.256    16255.683     4351.165        4.613        1.379      252.784       64.735        0.066      344.948       22.125      861.154
09/12/2013  18:18:00     -139.115      161.705      -22.608       76.369       84.892       45.645     5832.281     7206.595     2083.467        3.056        0.756      213.311       35.504        0.028      344.950       22.128      861.154
09/12/2013  18:19:00     -220.726      229.425      -51.411       80.606      117.125       55.134     6497.380    13718.327     3039.788        6.362        1.163      318.364       46.749        0.022      345.085       22.359      861.147
09/12/2013  18:20:00     -159.616      129.564      -15.935       79.567       72.498       53.123     6330.837     5255.945     2822.075        2.846        0.720      205.583       31.439        0.023      345.082       22.356      861.142
09/12/2013  18:21:00     -172.669      150.364      -33.835       74.976       75.420       43.853     5621.385     5688.220     1923.094        3.340        0.662      228.962       36.632        0.026      345.186       22.534      861.156
09/12/2013  18:22:00     -147.958      127.777      -22.654       59.704       58.709       36.562     3564.610     3446.797     1336.760        2.354        0.417      195.496       30.377        0.024      345.079       22.352      861.196
09/12/2013  18:23:00     -184.353      157.086      -41.836       68.468       57.601       40.311     4687.894     3317.931     1624.983        3.502        0.482      242.202       38.267        0.025      345.048       22.296      861.222
09/12/2013  18:24:00     -153.106       69.634      -16.770       77.160       63.995       39.540     5953.629     4095.395     1563.409        2.009        0.581      168.198       38.854        0.053      345.009       22.233      861.219
09/12/2013  18:25:00     -159.869      150.250      -29.550       79.319       78.626       43.575     6291.431     6181.981     1898.814        3.169        0.719      219.392       32.223        0.022      345.070       22.336      861.235
09/12/2013  18:26:00     -149.870      117.435      -27.209       91.087       75.201       46.500     8296.796     5655.176     2162.205        2.655        0.806      190.399       51.893        0.074      345.077       22.350      861.245
09/12/2013  18:27:00     -176.574      103.771      -27.329       87.580       80.148       42.739     7670.175     6423.717     1826.643        2.930        0.796      204.809       42.860        0.044      345.083       22.358      861.261
09/12/2013  18:28:00     -120.145      202.656      -29.791       62.773       96.552       51.300     3940.453     9322.240     2631.703        3.614        0.795      235.594       42.539        0.033      345.078       22.349      861.267
09/12/2013  18:29:00      -91.125      130.402      -14.878       44.434       66.619       33.283     1974.367     4438.108     1107.760        1.652        0.376      159.086       27.921        0.031      345.030       22.268      861.269
09/12/2013  18:30:00     -135.287      190.731      -27.899       98.730       90.998       55.389     9747.526     8280.662     3067.920        3.827        1.055      233.839       37.603        0.026      345.091       22.371      861.248
09/12/2013  18:31:00      -94.064      122.727       -8.149       79.091      101.428       43.829     6255.413    10287.692     1920.949        2.122        0.923      154.628       43.365        0.079      345.102       22.392      861.218
09/12/2013  18:32:00       24.911       65.906       10.036       82.211       47.094       31.631     6758.600     2217.832     1000.518        0.752        0.499       70.457       30.511        0.188      345.079       22.354      861.198
09/12/2013  18:33:00     -104.565      258.979      -34.822       94.533      120.731       57.290     8936.576    14576.054     3282.132        5.300        1.340      279.292       55.219        0.039      345.207       22.570      861.197
09/12/2013  18:34:00      -88.203      265.891      -27.012       50.639      111.461       48.141     2564.355    12423.516     2317.516        4.825        0.865      280.139       36.608        0.017      345.242       22.629      861.178
09/12/2013  18:35:00      -41.427      109.756      -10.586       32.562       73.563       27.872     1060.301     5411.472      776.832        1.056        0.362      117.314       12.166        0.011      345.202       22.562      861.182
09/12/2013  18:36:00      -90.833       94.439       -7.621       65.826       74.541       34.104     4333.056     5556.325     1163.089        1.414        0.553      131.032       21.102        0.026      345.191       22.546      861.181
09/12/2013  18:37:00     -138.517      142.272      -53.321       56.402       52.497       33.099     3181.224     2755.945     1095.553        2.465        0.352      198.566       26.445        0.018      345.210       22.576      861.193
09/12/2013  18:38:00      -59.896       68.214       -8.315       40.406       71.132       30.732     1632.659     5059.781      944.478        0.797        0.382       90.778       32.112        0.125      345.172       22.514      861.192
09/12/2013  18:39:00      -81.096       69.974      -15.753       48.629       37.477       34.150     2364.804     1404.534     1166.198        0.833        0.247      107.112       30.049        0.079      345.150       22.475      861.222
09/12/2013  18:40:00     -110.345       58.724      -16.187       59.590       61.379       32.669     3550.965     3767.337     1067.265        1.213        0.419      124.998       29.067        0.054      345.158       22.488      861.247
09/12/2013  18:41:00      -59.236      117.363      -13.345       57.637       43.226       32.928     3322.051     1868.470     1084.237        1.187        0.314      131.464       33.965        0.067      345.135       22.448      861.263
09/12/2013  18:42:00       -9.763      -27.005        8.114       27.689       34.976       17.320      766.656     1223.330      299.975        0.159        0.114       28.715       13.092        0.208      345.077       22.350      861.241
09/12/2013  18:43:00       -2.659      -49.787        8.905       45.976       27.159       27.393     2113.805      737.591      750.376        0.308        0.180       49.858       29.550        0.351      345.094       22.379      861.214
09/12/2013  18:44:00      -81.406      -61.921       11.993       79.993       53.869       28.288     6398.839     2901.869      800.207        1.035        0.505      102.279       31.375        0.094      344.899       22.046      861.213
09/12/2013  18:45:00      -92.931      -75.784       -2.662       61.600       39.007       33.273     3794.584     1521.577     1107.122        1.040        0.321      119.913       30.098        0.063      344.795       21.867      861.240
09/12/2013  18:46:00      -39.196      -57.119       -5.533       40.132       38.898       22.520     1610.605     1513.083      507.165        0.423        0.182       69.274       19.798        0.082      344.770       21.826      861.255
09/12/2013  18:47:00      -93.916      -96.361        4.594       50.555       37.441       26.793     2555.800     1401.859      717.868        1.140        0.234      134.558       32.372        0.058      344.692       21.690      861.270
09/12/2013  18:48:00     -105.075     -122.842       -0.949       64.376       54.117       31.524     4144.270     2928.665      993.733        1.710        0.403      161.650       25.836        0.026      344.657       21.631      861.279
09/12/2013  18:49:00     -110.603     -125.778        2.470       75.027       65.132       36.253     5629.107     4242.240     1314.312        1.962        0.559      167.491       40.163        0.058      344.677       21.662      861.286
09/12/2013  18:50:00     -126.557      -96.664        5.673       74.087       37.929       36.613     5488.952     1438.639     1340.507        1.683        0.413      159.250       42.938        0.073      344.671       21.652      861.276
09/12/2013  18:51:00     -154.905     -126.251       -2.050       67.354       47.437       36.401     4536.621     2250.222     1324.997        2.402        0.406      199.837       25.003        0.016      344.688       21.682      861.275
09/12/2013  18:52:00     -139.230     -151.026       -2.780       85.775       73.528       37.429     7357.366     5406.432     1400.951        2.818        0.708      205.412       33.625        0.027      344.738       21.765      861.276
09/12/2013  18:53:00      -74.698      -60.890       19.786       69.771       52.275       42.062     4868.010     2732.670     1769.243        0.952        0.468       96.371       38.211        0.157      344.769       21.821      861.279
09/12/2013  18:54:00     -105.246      -85.725       -4.090       59.107       47.724       28.863     3493.590     2277.611      833.077        1.252        0.330      135.740       21.453        0.025      344.761       21.808      861.283
09/12/2013  18:55:00      -65.631      -50.569       -0.403       34.243       40.126       23.130     1172.606     1610.079      534.998        0.509        0.166       82.853       16.256        0.038      344.746       21.784      861.284
09/12/2013  18:56:00      -62.588      -69.180       -3.667       43.776       51.336       26.726     1916.371     2635.381      714.259        0.699        0.263       93.290       27.844        0.089      344.755       21.797      861.286
09/12/2013  18:57:00      -26.431      -97.058       15.640       32.317       56.686       22.910     1044.407     3213.280      524.855        0.757        0.239      100.592       19.059        0.036      344.886       22.026      861.288
09/12/2013  18:58:00      -42.444      -59.549       -5.380       27.078       26.199       17.911      733.224      686.400      320.804        0.356        0.087       73.127       11.482        0.025      344.880       22.016      861.283
09/12/2013  18:59:00       22.451      -31.542        1.805       51.944       56.456       38.766     2698.204     3187.270     1502.810        0.444        0.369       38.716       37.033        0.915      344.834       21.934      861.275
09/12/2013  19:00:00      -12.406      -24.094        1.515       32.812       60.877       39.019     1076.651     3706.049     1522.474        0.352        0.315       27.100       37.982        1.964      344.876       22.005      861.268
09/12/2013  19:01:00       17.829      -14.382       38.287       60.966       48.781       27.440     3716.908     2379.575      752.965        0.442        0.342       22.907       27.121        1.402      344.918       22.078      861.228
09/12/2013  19:02:00        5.700       30.094       43.606       36.835       33.142       28.160     1356.810     1098.363      793.004        0.304        0.162       30.629       20.215        0.436      345.013       22.240      861.174
09/12/2013  19:03:00       -5.725       69.697       -2.613       43.471       41.738       25.899     1889.731     1742.075      670.742        0.460        0.215       69.931       19.610        0.079      344.968       22.163      861.156
09/12/2013  19:04:00      -38.448      134.292      -19.282       22.676       31.110       18.988      514.207      967.854      360.532        1.086        0.092      139.688       14.594        0.011      344.941       22.117      861.169
09/12/2013  19:05:00      -34.561       86.412       -7.026       23.497       26.279       19.044      552.128      690.568      362.690        0.516        0.080       93.067       17.803        0.037      344.935       22.107      861.173
09/12/2013  19:06:00       -4.574       82.987       -8.473        8.748       13.712        6.820       76.533      188.030       46.517        0.365        0.016       83.113        4.430        0.003      344.992       22.205      861.165
09/12/2013  19:07:00       23.023       75.901       -9.747       13.296       16.109       13.658      176.772      259.504      186.538        0.350        0.031       79.316        8.276        0.011      344.890       22.031      861.113
09/12/2013  19:08:00       55.906       88.980       -2.930       17.537       28.358       27.026      307.556      804.176      730.388        0.645        0.092      105.085       21.786        0.043      344.862       21.982      861.088
09/12/2013  19:09:00      -68.748       22.163        7.903       65.297       37.859       35.262     4263.739     1433.341     1243.422        0.611        0.347       72.232       44.463        0.379      344.849       21.961      861.093
09/12/2013  19:10:00     -133.040      -46.494       -3.928       63.950       51.640       29.888     4089.657     2666.728      893.292        1.376        0.382      140.931       16.744        0.014      344.658       21.632      861.106
09/12/2013  19:11:00      -89.636       19.143      -18.882       35.345       28.371       17.068     1249.260      804.934      291.331        0.555        0.117       91.658       17.172        0.035      344.763       21.813      861.097
09/12/2013  19:12:00      -57.852       43.659       -8.487       29.886       29.398       19.609      893.172      864.248      384.497        0.373        0.107       72.477       17.909        0.061      344.880       22.013      861.089
09/12/2013  19:13:00      -83.155       66.538      -14.625       20.729       31.020       17.433      429.693      962.253      303.910        0.663        0.085      106.499       14.998        0.020      344.960       22.150      861.092
09/12/2013  19:14:00      -56.169        4.452       -4.491       27.161       18.759       10.428      737.728      351.910      108.742        0.220        0.060       56.345        8.003        0.020      344.940       22.114      861.103
09/12/2013  19:15:00      -59.635      -14.722       -7.281       13.984       14.094        8.342      195.549      198.637       69.593        0.214        0.023       61.426        6.587        0.012      344.962       22.152      861.115
09/12/2013  19:16:00      -74.023      -39.907       -6.755       22.270       15.617        9.235      495.945      243.887       85.294        0.397        0.041       84.095        5.203        0.004      345.033       22.273      861.124
09/12/2013  19:17:00      -80.522      -12.447       -7.506       19.071        9.460        8.059      363.700       89.494       64.950        0.361        0.026       81.478        3.480        0.002      344.918       22.079      861.116
09/12/2013  19:18:00      -52.008      -12.736       -1.791       21.211        9.983        7.741      449.922       99.656       59.916        0.174        0.030       53.545        8.978        0.028      345.001       22.221      861.108
09/12/2013  19:19:00      -47.596      -19.470        1.404       13.974       13.718       10.322      195.270      188.188      106.542        0.157        0.024       51.424        7.869        0.023      345.067       22.333      861.111
09/12/2013  19:20:00      -81.830      -22.680       -6.304       10.663       13.922        8.984      113.695      193.811       80.708        0.382        0.019       84.915        5.138        0.004      344.992       22.205      861.115
09/12/2013  19:21:00      -44.502      -32.425        7.860       40.726       20.279       18.945     1658.638      411.253      358.909        0.276        0.121       55.062       21.625        0.154      344.950       22.132      861.101
09/12/2013  19:22:00      -32.928      -38.950       -1.105       29.291       15.800       16.596      857.978      249.639      275.426        0.199        0.069       51.003       15.148        0.088      345.028       22.266      861.082
09/12/2013  19:23:00      -67.539      -40.645        5.872       36.232       26.890       18.971     1312.777      723.097      359.906        0.432        0.120       78.826       16.886        0.046      345.009       22.233      861.070
09/12/2013  19:24:00      -61.080      -60.953       -2.435       30.483       22.724       16.240      929.213      516.375      263.724        0.458        0.085       86.291       16.460        0.036      345.019       22.252      861.058
09/12/2013  19:25:00      -72.095      -38.366       -5.133       14.644       18.849       11.784      214.438      355.290      138.869        0.370        0.035       81.668        9.458        0.013      345.101       22.394      861.047
09/12/2013  19:26:00      -65.506      -20.813       -5.439       10.421        9.935        8.525      108.602       98.714       72.669        0.252        0.014       68.733        5.509        0.006      345.024       22.260      861.052
09/12/2013  19:27:00      -43.209       12.986       -1.345       12.208       13.920        8.168      149.023      193.767       66.722        0.122        0.020       45.119        5.749        0.016      344.970       22.167      861.066
09/12/2013  19:28:00      -34.614       38.646       -3.539       19.970       17.729       12.138      398.809      314.315      147.339        0.178        0.043       51.881       15.565        0.090      344.885       22.021      861.075
09/12/2013  19:29:00       -7.763       13.099        5.856       11.498       10.477        9.180      132.215      109.765       84.269        0.030        0.016       15.227        8.388        0.303      344.866       21.989      861.079
09/12/2013  19:30:00       -2.420       51.302       -6.240       11.103       12.998        8.635      123.267      168.957       74.558        0.152        0.018       51.359        8.268        0.026      344.892       22.037      861.080
09/12/2013  19:31:00       11.707       62.407       -4.870       17.164       24.130       16.502      294.604      582.280      272.304        0.260        0.057       63.495       14.540        0.052      344.848       21.960      861.091
09/12/2013  19:32:00       24.152       34.344        0.854       25.011       31.464       22.560      625.569      990.012      508.976        0.194        0.106       41.986       18.936        0.203      344.868       21.993      861.104
09/12/2013  19:33:00       39.942       46.794       -8.773       27.102       26.210       16.445      734.520      686.953      270.449        0.278        0.085       61.523       14.171        0.053      344.874       22.001      861.125
09/12/2013  19:34:00       31.569       82.624      -10.530       24.908       32.553       15.111      620.386     1059.665      228.331        0.492        0.095       88.450       13.785        0.024      344.885       22.020      861.141
09/12/2013  19:35:00       18.424       68.592       -4.301       23.287       33.475       23.236      542.269     1120.579      539.927        0.363        0.110       71.023       20.933        0.087      344.866       21.989      861.157
09/12/2013  19:36:00       28.690       65.428      -11.900       12.395       26.693       12.865      153.647      712.500      165.513        0.314        0.052       71.442       14.297        0.040      344.868       21.992      861.165
09/12/2013  19:37:00       36.621       21.348        4.682       13.519       15.380       13.553      182.770      236.531      183.691        0.121        0.030       42.389       10.490        0.061      344.898       22.043      861.171
09/12/2013  19:38:00       34.029       39.034        1.387       11.215       10.777        8.968      125.776      116.144       80.427        0.150        0.016       51.784        6.725        0.017      345.062       22.326      861.159
09/12/2013  19:39:00       32.117       30.008        8.843       12.405       12.149       12.371      153.876      147.608      153.044        0.123        0.023       43.954        8.725        0.039      345.093       22.377      861.146
09/12/2013  19:40:00       13.756       18.438        1.120        8.123        8.097        6.878       65.977       65.566       47.313        0.035        0.009       23.004        2.633        0.013      345.126       22.435      861.151
09/12/2013  19:41:00       24.927       18.632        2.445       13.322       12.164        9.151      177.462      147.953       83.740        0.069        0.020       31.121        7.087        0.052      345.091       22.373      861.173
09/12/2013  19:42:00       41.103       35.769        2.162        6.662        7.364        6.591       44.379       54.223       43.442        0.156        0.007       54.487        2.532        0.002      344.975       22.172      861.206
09/12/2013  19:43:00       54.055       44.841        6.924       18.848        9.797       10.454      355.264       95.982      109.294        0.277        0.028       70.233        9.770        0.019      345.098       22.384      861.231
09/12/2013  19:44:00       68.479       32.981        5.470       24.089       16.550       11.314      580.259      273.915      128.015        0.339        0.049       76.007        9.353        0.015      345.204       22.566      861.241
09/12/2013  19:45:00       64.853       53.390       37.206       24.547       26.898       28.099      602.535      723.515      789.553        0.528        0.106       84.003       21.810        0.067      344.947       22.128      861.254
09/12/2013  19:46:00       29.397       33.427       44.411       30.377       26.096       21.010      922.759      680.992      441.434        0.300        0.102       44.515       20.475        0.212      344.934       22.106      861.266
09/12/2013  19:47:00       12.070        0.814        4.478       16.677       12.973       16.361      278.120      168.292      267.671        0.044        0.036       12.097        9.479        0.614      344.993       22.206      861.281
09/12/2013  19:48:00       -4.312       22.223       21.082       14.091       24.830       18.553      198.544      616.537      344.214        0.106        0.058       22.637       14.978        0.438      344.943       22.121      861.292
09/12/2013  19:49:00        7.181        6.447       -0.247       14.095       11.515       13.942      198.677      132.595      194.386        0.031        0.026        9.651        4.580        0.225      344.981       22.186      861.309
09/12/2013  19:50:00       22.782       14.153       26.528       20.153       23.404        9.407      406.146      547.747       88.499        0.123        0.052       26.820        6.845        0.065      345.009       22.235      861.327
09/12/2013  19:51:00       60.489       45.694       30.340       22.026       13.745       17.071      485.130      188.924      291.412        0.382        0.048       75.807       10.655        0.020      344.945       22.124      861.341
09/12/2013  19:52:00       12.211        9.886       21.575       25.210       23.216       15.910      635.546      538.972      253.136        0.107        0.071       15.711       10.961        0.487      344.972       22.172      861.341
09/12/2013  19:53:00      -21.840      -18.862       13.994       24.285       24.971       18.733      589.771      623.560      350.928        0.130        0.078       28.858       17.749        0.378      344.980       22.185      861.333
09/12/2013  19:54:00       -6.694      -10.258       12.596       11.779       21.116       16.020      138.752      445.867      256.625        0.057        0.042       12.249       11.657        0.906      344.976       22.179      861.332
09/12/2013  19:55:00       11.778      -38.537        5.844       23.583       23.053       12.835      556.140      531.453      164.737        0.145        0.063       40.296       14.366        0.127      345.054       22.311      861.321
09/12/2013  19:56:00       -1.136      -60.551        0.038       23.883       26.091       14.538      570.393      680.717      211.364        0.256        0.073       60.562       11.192        0.034      345.099       22.388      861.316
09/12/2013  19:57:00      -26.403       -3.187       -1.234       10.392       10.193        6.494      107.984      103.896       42.177        0.048        0.013       26.595        3.868        0.021      344.914       22.069      861.316
09/12/2013  19:58:00      -25.508        3.249        0.589        8.331       12.766        7.068       69.412      162.965       49.961        0.047        0.014       25.714        4.731        0.034      344.894       22.035      861.321
09/12/2013  19:59:00      -44.961      -18.381       -4.929       15.629       17.001        9.968      244.262      289.043       99.368        0.151        0.032       48.573        7.333        0.023      344.911       22.066      861.326
09/12/2013  20:00:00      -60.423      -32.463       -9.698        9.165        8.399        7.708       84.003       70.540       59.411        0.251        0.011       68.591        4.340        0.004      344.909       22.063      861.330
09/12/2013  20:01:00      -69.251      -32.711      -11.854       14.817       12.396        8.323      219.529      153.652       69.268        0.322        0.022       76.588        5.251        0.005      344.931       22.099      861.339
09/12/2013  20:02:00      -77.353      -36.305       -5.819       11.019       13.992        6.789      121.418      195.769       46.096        0.385        0.018       85.449        4.286        0.003      345.004       22.225      861.341
09/12/2013  20:03:00      -51.285      -30.646       -8.299       21.093       10.640        8.720      444.924      113.208       76.044        0.214        0.032       59.744        5.610        0.009      345.017       22.249      861.349
09/12/2013  20:04:00      -49.329      -28.167       -2.899       17.889       16.708       11.956      320.031      279.173      142.943        0.199        0.037       56.804        9.559        0.028      345.009       22.235      861.349
09/12/2013  20:05:00      -50.894      -16.431       -5.571       17.285       12.944       12.506      298.781      167.549      156.403        0.176        0.031       53.481        7.073        0.017      344.970       22.168      861.349
09/12/2013  20:06:00      -44.831      -24.963       -0.970       17.000       12.467       11.779      288.995      155.434      138.750        0.161        0.029       51.313        6.694        0.017      344.936       22.107      861.351
09/12/2013  20:07:00      -50.251      -33.704       -4.910       18.196       10.628       11.669      331.089      112.945      136.167        0.213        0.029       60.507        7.138        0.014      344.987       22.196      861.369
09/12/2013  20:08:00      -45.183      -19.326       -7.471       13.342        9.457        5.641      178.000       89.429       31.822        0.138        0.015       49.143        3.894        0.006      345.001       22.218      861.381
09/12/2013  20:09:00      -53.427        0.374       -6.478       10.291        7.945        7.812      105.900       63.117       61.027        0.156        0.012       53.429        2.327        0.002      344.959       22.147      861.406
09/12/2013  20:10:00      -46.128       28.869       -6.020       18.173       22.901       11.196      330.264      524.446      125.354        0.199        0.049       54.417       11.645        0.046      344.850       21.961      861.429
09/12/2013  20:11:00      -62.879       14.172       -6.809       23.340       15.193       11.924      544.742      230.813      142.186        0.256        0.046       64.457       12.474        0.037      344.858       21.974      861.456
09/12/2013  20:12:00      -26.814       15.803       -8.322       10.987        7.393        9.053      120.723       54.662       81.960        0.065        0.013       31.124        5.739        0.034      344.899       22.044      861.477
09/12/2013  20:13:00      -42.108        3.429       -7.048        9.414       10.573        4.773       88.626      111.779       22.777        0.103        0.011       42.247        4.616        0.012      344.936       22.109      861.501
09/12/2013  20:14:00      -50.629      -19.541       -0.854       10.505       11.783        7.166      110.362      138.834       51.358        0.162        0.015       54.269        6.429        0.014      344.729       21.752      861.521
09/12/2013  20:15:00      -78.672      -23.334       -8.731       14.448       14.095       11.863      208.754      198.677      140.731        0.368        0.027       82.060        5.573        0.005      344.697       21.701      861.542
09/12/2013  20:16:00      -73.732      -20.950       -5.245       16.496       13.912       11.719      272.104      193.557      137.346        0.325        0.030       76.651        5.096        0.004      344.740       21.774      861.560
09/12/2013  20:17:00      -69.740      -16.404       -0.891       25.882       24.053       13.166      669.878      578.559      173.355        0.328        0.071       71.644        8.434        0.014      344.727       21.750      861.569
09/12/2013  20:18:00      -71.196      -10.565       -2.391       20.921       18.534       12.439      437.694      343.517      154.727        0.306        0.047       71.976        5.891        0.007      344.640       21.602      861.571
09/12/2013  20:19:00      -77.537       -7.723       -3.731       21.540       21.825       13.390      463.979      476.347      179.288        0.360        0.056       77.920        7.016        0.008      344.515       21.389      861.566
09/12/2013  20:20:00      -70.188       -6.387       -5.282       12.391       14.617        8.845      153.535      213.646       78.238        0.272        0.022       70.478        5.361        0.006      344.564       21.472      861.553
09/12/2013  20:21:00      -59.311      -26.711       -6.724       19.200       15.333       14.028      368.622      235.088      196.782        0.254        0.040       65.048       12.006        0.034      344.632       21.587      861.547
09/12/2013  20:22:00      -88.059       -4.990       -8.899       20.628       12.090       11.644      425.524      146.168      135.579        0.428        0.035       88.200        7.951        0.008      344.623       21.573      861.540
09/12/2013  20:23:00     -104.752      -30.060      -11.618       13.263       15.031       11.064      175.913      225.930      122.420        0.627        0.026      108.980        6.855        0.004      344.621       21.569      861.535
09/12/2013  20:24:00      -73.253      -36.568       -4.078       35.562       26.051       18.956     1264.654      678.656      359.311        0.451        0.115       81.873       17.178        0.044      344.621       21.571      861.531
09/12/2013  20:25:00      -71.793      -51.714        3.464       30.125       25.291       19.419      907.522      639.614      377.114        0.488        0.096       88.479       19.461        0.048      344.700       21.704      861.531
09/12/2013  20:26:00      -95.331      -22.194       -3.899       15.402       14.651       11.067      237.236      214.661      122.480        0.508        0.029       97.880        4.859        0.002      344.659       21.632      861.532
09/12/2013  20:27:00      -88.724      -37.976       -4.484       19.653       28.116       14.942      386.255      790.520      223.268        0.537        0.070       96.509       16.008        0.028      344.697       21.697      861.543
09/12/2013  20:28:00      -45.677      -51.755        5.412       27.325       27.752       18.154      746.653      770.157      329.572        0.332        0.092       69.029       12.754        0.034      344.761       21.809      861.551
09/12/2013  20:29:00      -52.292      -53.563       -0.782       24.403       25.111       16.026      595.492      630.539      256.824        0.354        0.074       74.856       16.265        0.047      344.912       22.069      861.556
09/12/2013  20:30:00      -42.717      -64.114        1.988       23.160       26.765       16.235      536.384      716.385      263.563        0.373        0.076       77.041       12.040        0.024      344.888       22.026      861.567
09/12/2013  20:31:00      -40.969      -39.445       -2.631       21.985       40.932       13.663      483.355     1675.395      186.680        0.279        0.117       56.871       16.474        0.084      344.993       22.206      861.586
09/12/2013  20:32:00      -43.781       -9.130        6.808       42.753       27.131       17.503     1827.861      736.077      306.372        0.246        0.144       44.723       19.554        0.191      344.860       21.979      861.609
09/12/2013  20:33:00      -73.541       -2.657        5.549       34.375       42.148       25.514     1181.669     1776.444      650.979        0.453        0.180       73.589       24.894        0.114      344.819       21.907      861.620
09/12/2013  20:34:00      -67.586       -4.533       -3.234       34.371       34.379       22.001     1181.362     1181.937      484.066        0.372        0.142       67.738       20.882        0.095      344.529       21.413      861.635
09/12/2013  20:35:00      -58.397        4.009       -3.767       26.716       16.913       15.871      713.750      286.053      251.894        0.235        0.063       58.534       15.696        0.072      344.503       21.368      861.643
09/12/2013  20:36:00      -17.367        3.550        5.312       22.060        9.686        9.559      486.639       93.815       91.368        0.051        0.034       17.726       11.059        0.389      344.498       21.359      861.648
09/12/2013  20:37:00      -30.947       16.295       -2.508       22.794       24.317       11.793      519.574      591.337      139.064        0.124        0.062       34.975        6.368        0.033      344.553       21.453      861.654
09/12/2013  20:38:00       -0.774       16.574        5.655       10.042       28.753       11.067      100.842      826.719      122.480        0.068        0.053       16.592        9.985        0.362      344.527       21.408      861.653
09/12/2013  20:39:00       -6.423      -52.204      -12.871       13.835       18.632        9.635      191.406      347.166       92.839        0.178        0.032       52.598        8.677        0.027      344.695       21.698      861.666
09/12/2013  20:40:00        5.792      -50.976        6.598       40.755       28.211       30.233     1660.935      795.861      914.034        0.302        0.169       51.304       23.243        0.205      344.865       21.988      861.680
09/12/2013  20:41:00      -43.870       -9.905        5.576       43.964       28.201       20.811     1932.814      795.278      433.109        0.261        0.158       44.974       23.296        0.268      344.861       21.981      861.695
09/12/2013  20:42:00     -130.780      -18.832       -8.321       42.457       27.076       17.258     1802.560      733.084      297.845        1.018        0.142      132.129       15.202        0.013      344.735       21.765      861.713
09/12/2013  20:43:00      -71.116       -1.737       -6.832       22.030       29.468       13.543      485.338      868.351      183.404        0.332        0.077       71.137       12.304        0.030      344.554       21.453      861.724
09/12/2013  20:44:00      -73.099      -28.159       -4.326       23.384       12.550       11.329      546.823      157.499      128.339        0.349        0.042       78.335       10.561        0.018      344.702       21.707      861.734
09/12/2013  20:45:00      -72.274      -29.968       -5.012       37.925       26.035       17.812     1438.304      677.827      317.276        0.429        0.122       78.241       21.343        0.074      344.713       21.725      861.738
09/12/2013  20:46:00      -88.310        6.234       -3.087       22.043       17.422       13.538      485.911      303.532      183.284        0.441        0.049       88.530       12.168        0.019      344.708       21.716      861.750
09/12/2013  20:47:00      -63.509      -54.750        0.767       31.507       28.642       17.818      992.718      820.345      317.490        0.458        0.107       83.851       13.495        0.026      344.843       21.950      861.779
09/12/2013  20:48:00     -124.797      -44.315       -8.369       31.634       33.978       19.184     1000.733     1154.484      368.030        1.007        0.126      132.431       16.091        0.015      344.954       22.140      861.788
09/12/2013  20:49:00      -90.004      -58.300       -6.163       26.702       21.061       14.875      713.022      443.572      221.271        0.646        0.069      107.236        8.130        0.006      344.900       22.047      861.800
09/12/2013  20:50:00      -33.944      -28.458        8.623       34.160       48.776       18.845     1166.910     2379.117      355.138        0.297        0.195       44.295       15.151        0.117      345.060       22.321      861.792
09/12/2013  20:51:00      -56.992        6.846       -4.033       29.546       29.801       14.190      872.955      888.085      201.343        0.264        0.098       57.401       12.733        0.049      344.829       21.925      861.795
09/12/2013  20:52:00      -19.803      -33.556        6.549       29.956       19.944       17.943      897.348      397.776      321.939        0.159        0.081       38.964       20.006        0.264      344.932       22.103      861.807
09/12/2013  20:53:00      -41.537      -19.805       -3.525       20.901       11.852       11.468      436.858      140.465      131.525        0.142        0.035       46.017        7.716        0.028      344.864       21.985      861.818
09/12/2013  20:54:00      -41.300      -22.641       -2.982       20.249       10.339        9.608      410.012      106.887       92.308        0.142        0.030       47.099        6.450        0.019      344.890       22.029      861.822
09/12/2013  20:55:00       -1.013      -35.553        8.937       27.431       33.940       18.997      752.481     1151.928      360.876        0.180        0.113       35.567       16.280        0.210      345.006       22.228      861.819
09/12/2013  20:56:00      -19.305      -68.706        5.365       24.816       26.893       19.303      615.839      723.236      372.587        0.342        0.086       71.367       13.092        0.034      345.102       22.394      861.814
09/12/2013  20:57:00      -38.722      -27.309       -4.016       30.146       18.112       11.700      908.753      328.034      136.887        0.182        0.069       47.383        9.336        0.039      344.855       21.970      861.814
09/12/2013  20:58:00      -34.732      -14.093       -5.276       18.601        8.399        8.395      345.984       70.543       70.474        0.096        0.024       37.482       10.141        0.073      344.645       21.611      861.807
09/12/2013  20:59:00      -75.587       -1.335       -6.674       17.348       15.626       13.572      300.936      244.158      184.212        0.324        0.036       75.599       11.624        0.024      344.527       21.411      861.801
09/12/2013  21:00:00      -58.101        2.747       -7.144       17.414       15.241       12.423      303.232      232.301      154.343        0.206        0.034       58.166        9.936        0.029      344.378       21.155      861.784
09/12/2013  21:01:00      -70.384      -20.459       -5.790       35.060       20.444        7.665     1229.206      417.961       58.752        0.356        0.085       73.297        8.305        0.013      344.394       21.182      861.785
09/12/2013  21:02:00      -95.444       -6.239       -3.643       37.775       25.548       19.815     1426.952      652.679      392.619        0.582        0.124       95.647       20.869        0.048      344.402       21.196      861.785
09/12/2013  21:03:00      -61.809      -21.549       -4.900       63.766       30.256       15.867     4066.129      915.439      251.757        0.477        0.262       65.458       24.526        0.140      344.502       21.368      861.791
09/12/2013  21:04:00      -84.817      -37.102        0.099       50.257       37.961       14.218     2525.755     1441.010      202.157        0.637        0.208       92.577       20.370        0.048      344.590       21.516      861.804
09/12/2013  21:05:00     -127.022      -70.870       -4.309       64.788       85.387       34.535     4197.478     7290.963     1192.658        1.693        0.634      145.455       30.153        0.043      344.973       22.170      861.791
09/12/2013  21:06:00     -218.356      -98.687      -11.206       79.546       71.705       43.113     6327.549     5141.605     1858.715        3.543        0.666      239.622       40.480        0.029      345.038       22.280      861.795
09/12/2013  21:07:00     -141.384      -30.755      -11.480       55.156       53.570       30.885     3042.166     2869.784      953.906        1.397        0.343      144.690       21.703        0.022      344.923       22.086      861.805
09/12/2013  21:08:00     -167.413       24.236      -18.424       88.745       75.284       40.534     7875.686     5667.679     1642.984        2.207        0.759      169.158       45.548        0.073      345.033       22.272      861.798
09/12/2013  21:09:00     -131.144      -37.816       -8.307       68.535       70.316       37.978     4697.058     4944.289     1442.296        1.489        0.554      136.487       31.855        0.054      344.953       22.137      861.784
09/12/2013  21:10:00     -158.743      -30.860      -14.043       52.705       66.478       22.162     2777.869     4419.375      491.163        1.702        0.384      161.715       20.275        0.016      344.756       21.798      861.772
09/12/2013  21:11:00     -150.510      -35.839       -1.439       71.778       56.214       37.058     5152.090     3160.036     1373.260        1.681        0.484      154.718       26.272        0.029      344.445       21.267      861.764
09/12/2013  21:12:00     -140.792       85.940      -21.689       55.156       44.558       28.265     3042.204     1985.441      798.932        1.675        0.291      164.949       21.702        0.017      344.800       21.874      861.740
09/12/2013  21:13:00     -334.105      -26.697      -38.807      148.818      115.699       55.991    22146.768    13386.261     3134.953        7.625        1.933      335.170       76.597        0.052      344.973       22.168      861.735
09/12/2013  21:14:00     -178.750       42.419      -21.525       72.576       43.387       24.799     5267.270     1882.405      614.985        2.099        0.388      183.714       30.209        0.027      344.776       21.831      861.742
09/12/2013  21:15:00     -137.891       69.098      -22.956       51.542       25.596       21.714     2656.603      655.172      471.514        1.405        0.189      154.235       11.888        0.006      344.929       22.098      861.744
09/12/2013  21:16:00     -108.724      102.916      -20.033       28.738       51.326       21.043      825.860     2634.384      442.801        1.336        0.195      149.708       17.651        0.014      344.716       21.733      861.756
09/12/2013  21:17:00     -123.905       22.832      -14.319       50.728       54.023       27.481     2573.353     2918.434      755.179        1.116        0.312      125.991       24.745        0.039      344.704       21.712      861.758
09/12/2013  21:18:00     -112.061      -17.091      -14.543       54.271       70.493       26.240     2945.363     4969.263      688.529        1.083        0.430      113.357       26.797        0.056      344.694       21.692      861.756
09/12/2013  21:19:00     -125.430      -23.109      -10.818       53.437       81.836       34.073     2855.501     6697.200     1160.937        1.355        0.536      127.541       30.726        0.058      344.651       21.620      861.753
09/12/2013  21:20:00     -131.664       10.160       -2.862       75.054       50.131       35.588     5633.114     2513.134     1266.477        1.343        0.471      132.056       41.949        0.101      344.627       21.579      861.736
09/12/2013  21:21:00     -199.892       13.711      -26.355       80.520       60.755       37.349     6483.520     3691.167     1394.929        2.620        0.578      200.362       35.751        0.032      344.638       21.597      861.732
09/12/2013  21:22:00     -110.895        2.783        2.139       56.041       63.793       32.133     3140.621     4069.520     1032.509        1.027        0.412      110.930       18.670        0.028      344.571       21.484      861.732
09/12/2013  21:23:00      -59.890        3.089        5.263       54.673       29.992       25.420     2989.179      899.520      646.192        0.408        0.227       59.969       25.570        0.182      344.522       21.402      861.735
09/12/2013  21:24:00       -3.641       33.968        1.724       21.541       30.071       19.690      464.027      904.240      387.685        0.146        0.088       34.163       10.522        0.095      344.460       21.295      861.732
09/12/2013  21:25:00      -32.649       -1.989        3.140       29.948       14.030        9.299      896.882      196.835       86.472        0.113        0.059       32.710        6.995        0.046      344.457       21.290      861.728
09/12/2013  21:26:00      -98.223       10.646      -13.029       46.275       37.277       20.931     2141.400     1389.549      438.095        0.695        0.198       98.798       17.765        0.032      344.495       21.353      861.729
09/12/2013  21:27:00     -132.764      -44.637       -8.814       64.894       58.743       33.324     4211.216     3450.750     1110.478        1.423        0.439      140.067       23.350        0.028      344.454       21.285      861.737
09/12/2013  21:28:00     -202.501       32.305      -18.164       81.737       51.105       35.430     6680.930     2611.687     1255.251        2.646        0.527      205.061       38.021        0.034      344.555       21.454      861.740
09/12/2013  21:29:00     -150.299      -46.848       -5.628       63.497       83.564       33.349     4031.859     6982.876     1112.163        1.847        0.606      157.431       29.669        0.036      344.537       21.425      861.756
09/12/2013  21:30:00      -44.567      -51.788       10.091       36.090       28.303       16.983     1302.486      801.060      288.412        0.358        0.120       68.324       21.667        0.101      344.566       21.477      861.769
09/12/2013  21:31:00      -19.817      -18.717        3.281       26.325       20.184       13.103      692.990      407.387      171.679        0.101        0.064       27.259       15.282        0.314      344.475       21.320      861.777
09/12/2013  21:32:00       -9.690      -19.452       11.490       16.878       26.874       14.169      284.863      722.212      200.766        0.091        0.060       21.732       11.630        0.286      344.448       21.276      861.781
09/12/2013  21:33:00       -7.660      -30.376       -8.472       21.502       21.011       20.945      462.353      441.467      438.680        0.120        0.067       31.327       14.372        0.210      344.579       21.499      861.773
09/12/2013  21:34:00      -17.138      -17.376        6.185       24.063       30.541       26.629      579.021      932.730      709.122        0.143        0.111       24.405       17.535        0.516      344.549       21.447      861.770
09/12/2013  21:35:00       20.117        6.105        8.441       33.219       16.424       26.026     1103.517      269.743      677.352        0.128        0.103       21.023       20.356        0.938      344.346       21.099      861.773
09/12/2013  21:36:00       98.996      -51.641        8.545       51.038       44.930       35.445     2604.832     2018.715     1256.371        0.921        0.294      111.656       33.622        0.091      344.274       20.976      861.776
09/12/2013  21:37:00       27.497      -22.115       17.022       33.156       40.309       27.452     1099.328     1624.826      753.593        0.251        0.174       35.286       29.773        0.712      344.357       21.118      861.800
09/12/2013  21:38:00       13.843      -17.969        1.271       23.158       20.558       15.926      536.296      422.642      253.639        0.086        0.061       22.683       11.254        0.246      344.175       20.807      861.815
09/12/2013  21:39:00        4.260        1.963        0.785        5.260        7.620        8.104       27.670       58.063       65.673        0.009        0.008        4.690        6.046        1.662      344.278       20.985      861.820
09/12/2013  21:40:00      -22.930      -11.142       -5.076       18.619       15.834       10.764      346.649      250.723      115.858        0.069        0.036       25.494        9.981        0.153      344.512       21.384      861.824
09/12/2013  21:41:00       28.088       20.803        9.388        7.953        9.330        9.286       63.251       87.058       86.230        0.077        0.012       34.953        8.572        0.060      344.537       21.426      861.823
09/12/2013  21:42:00       27.493       24.020        6.008       10.881        6.865        8.054      118.386       47.130       64.870        0.080        0.012       36.508        5.896        0.026      344.581       21.499      861.818
09/12/2013  21:43:00       15.225       34.106       -8.272        6.076        7.402        4.440       36.912       54.795       19.710        0.079        0.006       37.350        3.132        0.007      344.602       21.537      861.820
09/12/2013  21:44:00        9.781       24.638       -4.252       12.374        8.225        5.399      153.128       67.650       29.151        0.049        0.012       26.508        6.437        0.059      344.654       21.626      861.819
09/12/2013  21:45:00      -22.272       26.584       -3.496       11.236       11.175        6.073      126.254      124.884       36.884        0.075        0.014       34.681        4.856        0.020      344.629       21.583      861.827
09/12/2013  21:46:00      -16.963       41.432       -6.625       17.031       12.086        6.763      290.054      146.072       45.744        0.126        0.024       44.769        5.482        0.015      344.693       21.690      861.844
09/12/2013  21:47:00       18.914       17.505       -0.710       44.862       23.045       19.465     2012.565      531.052      378.870        0.179        0.146       25.772       26.879        1.088      344.845       21.952      861.858
09/12/2013  21:48:00       30.186       28.919       25.671       27.279       13.859       13.758      744.119      192.059      189.279        0.177        0.056       41.803       16.380        0.154      344.826       21.921      861.862
09/12/2013  21:49:00      -31.238      -17.201      -12.314       26.482       23.931       14.921      701.310      572.672      222.631        0.146        0.075       35.661       10.844        0.092      344.725       21.749      861.876
09/12/2013  21:50:00      -38.090       18.300       -1.154       45.911       29.090       20.252     2107.778      846.236      410.149        0.257        0.168       42.258       25.012        0.350      344.646       21.612      861.871
09/12/2013  21:51:00      -85.057       37.993       -7.538       29.103       15.050       15.609      846.963      226.488      243.637        0.503        0.066       93.156       11.509        0.015      344.465       21.303      861.879
09/12/2013  21:52:00      -66.379       26.563      -11.137       19.926       18.170       13.010      397.033      330.166      169.261        0.307        0.045       71.496       12.838        0.032      344.629       21.582      861.882
09/12/2013  21:53:00      -50.597      -13.104       -5.955       32.285       15.598       11.517     1042.317      243.285      132.651        0.209        0.071       52.267       13.089        0.063      344.418       21.221      861.879
09/12/2013  21:54:00     -108.968      -31.941       -9.460       27.519       14.798       14.769      757.302      218.979      218.109        0.709        0.060      113.553       11.727        0.011      344.260       20.954      861.891
09/12/2013  21:55:00      -97.089       15.955      -13.554       39.441       37.350       18.566     1555.608     1394.998      344.701        0.658        0.165       98.391       13.683        0.019      344.649       21.618      861.890
09/12/2013  21:56:00      -84.331      -24.893        7.365       49.532       39.912       21.110     2453.394     1592.979      445.648        0.614        0.225       87.929       25.224        0.082      344.628       21.581      861.891
09/12/2013  21:57:00      -17.631      -40.306       19.833       38.567       39.168       30.827     1487.390     1534.132      950.278        0.315        0.199       43.993       22.983        0.273      344.582       21.503      861.890
09/12/2013  21:58:00     -171.009       42.296       -5.184       44.833       36.159       20.082     2010.032     1307.508      403.290        1.739        0.186      176.162       15.405        0.008      344.538       21.427      861.904
09/12/2013  21:59:00     -130.146      -50.620       -5.666       28.808       35.197       24.063      829.900     1238.861      579.030        1.109        0.132      139.643       18.688        0.018      344.369       21.139      861.910
09/12/2013  22:00:00     -122.725      -44.850       -3.679       39.383       43.797       26.736     1550.984     1918.140      714.816        1.063        0.209      130.663       25.012        0.037      344.308       21.035      861.911
09/12/2013  22:01:00     -107.901      -43.832       -1.522       47.630       37.387       20.756     2268.621     1397.760      430.791        0.883        0.205      116.464       24.456        0.044      344.275       20.978      861.919
09/12/2013  22:02:00      -87.367        8.968       -9.517       32.965       38.209       16.843     1086.686     1459.919      283.696        0.532        0.142       87.826       14.121        0.026      344.337       21.084      861.930
09/12/2013  22:03:00      -93.528       68.059      -15.102       30.303       39.830       21.677      918.274     1586.460      469.887        0.829        0.149      115.670       22.959        0.039      344.383       21.161      861.952
09/12/2013  22:04:00     -118.065       78.633      -20.625       51.272       36.368       25.531     2628.826     1322.613      651.816        1.257        0.230      141.854       27.209        0.037      344.217       20.879      861.972
09/12/2013  22:05:00     -102.408       45.642      -23.279       27.756       40.689       20.852      770.380     1655.635      434.817        0.799        0.143      112.119       14.730        0.017      344.153       20.769      861.982
09/12/2013  22:06:00      -55.366        2.632      -11.112       20.924       21.334       17.829      437.801      455.118      317.884        0.220        0.061       55.429        8.467        0.023      344.110       20.695      862.011
09/12/2013  22:07:00      -94.004      -14.636       -9.058       24.959       25.267       18.565      622.973      638.431      344.666        0.537        0.080       95.136       12.816        0.018      344.013       20.530      862.023
09/12/2013  22:08:00      -50.146       -6.768       -4.973       20.989       14.590       11.795      440.523      212.863      139.117        0.169        0.040       50.600       11.655        0.053      343.981       20.475      862.049
09/12/2013  22:09:00      -66.174      -39.065       -9.420       12.160       14.242       10.576      147.858      202.837      111.849        0.323        0.023       76.845        6.769        0.008      343.973       20.464      862.065
09/12/2013  22:10:00      -35.179      -14.427       -7.272       20.810       22.154        9.746      433.058      490.781       94.981        0.126        0.051       38.022        7.075        0.035      343.973       20.463      862.084
09/12/2013  22:11:00      -49.701       -7.621      -10.461       10.720       13.095       12.172      114.920      171.476      148.166        0.154        0.022       50.282        4.823        0.009      343.966       20.450      862.093
09/12/2013  22:12:00      -61.974      -27.632       -2.255       14.535       15.394       10.598      211.279      236.965      112.311        0.258        0.028       67.855        4.937        0.005      343.941       20.404      862.103
09/12/2013  22:13:00      -66.607      -10.652       -5.700       13.135       12.666        9.951      172.520      160.434       99.014        0.251        0.022       67.453        6.574        0.009      343.909       20.355      862.114
09/12/2013  22:14:00      -59.622      -22.532      -10.122       17.829        8.454        8.594      317.862       71.467       73.862        0.231        0.023       63.737        4.586        0.005      343.856       20.263      862.115
09/12/2013  22:15:00      -36.466      -25.424       -1.623       19.319       13.627       10.550      373.222      185.698      111.306        0.132        0.034       44.454        8.832        0.039      343.834       20.225      862.124
09/12/2013  22:16:00      -51.255      -26.645       -4.149        9.968        8.581       10.193       99.362       73.626      103.896        0.182        0.014       57.767        7.516        0.017      343.850       20.252      862.115
09/12/2013  22:17:00      -38.715      -27.378      -10.046       21.755       11.317        9.691      473.264      128.064       93.922        0.152        0.035       47.418        8.839        0.035      343.884       20.312      862.101
09/12/2013  22:18:00      -68.898      -35.016      -12.132       10.440       11.932        7.406      108.991      142.384       54.853        0.321        0.015       77.286        4.221        0.003      343.890       20.324      862.088
09/12/2013  22:19:00      -77.534       -5.409      -13.693        9.836        9.226        8.095       96.746       85.111       65.527        0.324        0.012       77.722        5.818        0.006      343.808       20.180      862.083
09/12/2013  22:20:00      -67.665       -1.752       -8.508       19.858        9.442        9.761      394.351       89.143       95.281        0.262        0.029       67.688        9.396        0.019      343.826       20.210      862.082
09/12/2013  22:21:00      -66.261       -3.941      -12.832       24.090       17.811       12.127      580.347      317.224      147.052        0.281        0.052       66.378       11.311        0.029      343.677       19.958      862.088
09/12/2013  22:22:00      -65.967      -10.515       -9.485       37.434       35.160       17.445     1401.302     1236.246      304.313        0.375        0.147       66.800       13.875        0.043      343.703       20.000      862.099
09/12/2013  22:23:00     -113.630       -1.663      -13.103       41.809       35.668       19.204     1748.010     1272.195      368.777        0.824        0.169      113.642       14.158        0.016      343.714       20.021      862.104
09/12/2013  22:24:00      -78.947      -12.091       -3.581       40.438       35.114       19.398     1635.253     1233.000      376.265        0.482        0.162       79.867       17.422        0.048      343.706       20.007      862.108
09/12/2013  22:25:00      -62.623       -5.453       -8.134       24.370       31.494       15.709      593.880      991.879      246.772        0.292        0.092       62.860       10.841        0.030      343.757       20.093      862.103
09/12/2013  22:26:00     -100.356       -4.756      -16.907       26.073       24.096       14.018      679.798      580.617      196.496        0.592        0.073      100.468       10.132        0.010      343.812       20.188      862.101
09/12/2013  22:27:00      -94.842        8.518       -9.328       29.260       30.941       16.942      856.163      957.321      287.037        0.563        0.105       95.223       14.181        0.022      343.748       20.079      862.097
09/12/2013  22:28:00      -66.601       -5.519       -6.012       26.199       20.456       15.733      686.394      418.449      247.542        0.293        0.068       66.830       14.232        0.045      343.712       20.015      862.098
09/12/2013  22:29:00      -70.521       -4.421       -5.655       34.775       20.815       18.643     1209.315      433.248      347.567        0.351        0.100       70.660       14.841        0.044      343.703       20.001      862.101
09/12/2013  22:30:00      -54.875       -3.938       -3.011       31.556       20.484       17.392      995.794      419.614      302.470        0.238        0.086       55.016       10.847        0.039      343.703       19.999      862.100
09/12/2013  22:31:00      -73.300      -30.929       -5.204       35.654       22.732       16.119     1271.241      516.766      259.816        0.420        0.102       79.558       15.230        0.037      343.710       20.013      862.102
09/12/2013  22:32:00      -58.636      -14.600        0.802       32.013       34.482       15.482     1024.828     1189.029      239.693        0.305        0.123       60.427       13.271        0.048      343.618       19.856      862.083
09/12/2013  22:33:00      -97.759      -22.778       -2.931       34.981       24.865       15.305     1223.693      618.261      234.233        0.608        0.104      100.378       14.614        0.021      343.646       19.901      862.080
09/12/2013  22:34:00      -90.701      -31.712       -5.172       22.290       28.065       15.268      496.850      787.646      233.104        0.539        0.076       96.084        9.625        0.010      343.629       19.875      862.084
09/12/2013  22:35:00      -86.101      -23.917       -4.264       37.857       31.841       19.761     1433.134     1013.830      390.498        0.542        0.142       89.361       21.230        0.056      343.624       19.867      862.081
09/12/2013  22:36:00      -66.008      -29.516        1.707       24.462       28.948       16.148      598.379      837.998      260.764        0.346        0.085       72.307       11.390        0.025      343.639       19.890      862.075
09/12/2013  22:37:00      -85.240       -3.889       -4.725       34.776       24.548       15.861     1209.384      602.583      251.587        0.468        0.103       85.329       13.279        0.024      343.553       19.744      862.070
09/12/2013  22:38:00     -101.663      -36.188       -6.682       20.704       15.887       12.732      428.659      252.397      162.099        0.627        0.042      107.912       10.110        0.009      343.602       19.831      862.064
09/12/2013  22:39:00      -89.212      -39.124       -5.034       23.268       19.313       13.209      541.387      372.996      174.489        0.530        0.054       97.414       12.479        0.016      343.650       19.909      862.063
09/12/2013  22:40:00      -65.129      -47.455       -1.749       17.688       19.946       15.005      312.857      397.828      225.144        0.372        0.047       80.584       10.370        0.017      343.697       19.991      862.050
09/12/2013  22:41:00      -47.381      -38.620       -1.623       41.820       24.293       17.784     1748.892      590.149      316.257        0.320        0.133       61.126       11.139        0.033      343.688       19.975      862.043
09/12/2013  22:42:00     -101.116      -60.176       -4.250       24.778       15.366       20.204      613.956      236.102      408.201        0.756        0.063      117.668       16.105        0.019      343.636       19.887      862.035
09/12/2013  22:43:00     -127.150      -64.246       -7.301       21.053       21.171       16.449      443.216      448.213      270.559        1.075        0.058      142.459       12.026        0.007      343.616       19.853      862.031
09/12/2013  22:44:00     -155.117      -40.683       -9.835       28.132       19.542       17.473      791.437      381.908      305.318        1.365        0.074      160.363       17.383        0.012      343.738       20.062      862.032
09/12/2013  22:45:00     -120.255      -36.578       -6.924       19.970       17.265       10.050      398.782      298.074      100.994        0.832        0.040      125.695        9.166        0.005      343.696       19.987      862.029
09/12/2013  22:46:00     -110.303      -38.024      -10.837       10.820       13.142       11.364      117.080      172.702      129.129        0.707        0.021      116.672        3.963        0.001      343.656       19.922      862.024
09/12/2013  22:47:00      -93.354      -15.955       -5.025       34.439       25.486       19.030     1186.045      649.518      362.151        0.560        0.110       94.707       19.408        0.042      343.604       19.832      862.010
09/12/2013  22:48:00     -146.040       10.913      -14.938       22.481       17.102       12.572      505.387      292.491      158.052        1.131        0.048      146.447       11.715        0.006      343.596       19.819      861.989
09/12/2013  22:49:00     -132.340       10.720      -10.922       41.661       30.723       21.284     1735.668      943.872      453.017        1.044        0.157      132.774       20.323        0.023      343.730       20.048      861.974
09/12/2013  22:50:00     -145.839       16.669      -16.425       38.747       29.509       19.756     1501.304      870.773      390.300        1.229        0.138      146.789       15.734        0.011      343.744       20.072      861.970
09/12/2013  22:51:00     -123.027       16.543      -10.279       41.893       37.644       24.662     1755.044     1417.070      608.203        0.965        0.189      124.134       22.675        0.033      343.718       20.027      861.976
09/12/2013  22:52:00     -119.643       20.412       -7.811       52.358       41.862       23.627     2741.321     1752.436      558.245        0.992        0.253      121.372        8.933        0.005      343.724       20.033      861.987
09/12/2013  22:53:00     -169.554       53.392      -16.823       31.432       31.175       23.095      987.939      971.851      533.360        1.719        0.125      177.761       10.819        0.004      343.812       20.188      862.000
09/12/2013  22:54:00     -139.752       -6.735      -13.125       41.000       38.681       20.296     1681.003     1496.219      411.947        1.167        0.179      139.914       19.707        0.020      343.795       20.159      862.008
09/12/2013  22:55:00     -141.642      -13.671      -11.473       37.725       52.016       22.281     1423.198     2705.648      496.460        1.250        0.231      142.300       17.698        0.015      343.783       20.136      862.013
09/12/2013  22:56:00     -156.058       13.129      -13.359       60.452       40.054       27.980     3654.489     1604.283      782.897        1.537        0.302      156.610       24.995        0.025      343.741       20.065      862.017
09/12/2013  22:57:00     -195.174        8.308      -26.635       38.747       47.973       22.604     1501.345     2301.441      510.933        2.159        0.216      195.351       21.505        0.012      343.746       20.072      862.010
09/12/2013  22:58:00     -119.330      -44.485       -7.706       40.401       40.228       22.499     1632.257     1618.304      506.212        1.002        0.188      127.352       17.860        0.020      343.690       19.978      862.005
09/12/2013  22:59:00     -146.122      -49.288      -10.886       42.609       41.489       29.498     1815.525     1721.360      870.140        1.415        0.220      154.211       23.033        0.022      343.693       19.982      861.998
09/12/2013  23:00:00     -151.808      -17.355      -11.808       26.018       28.945       21.725      676.944      837.793      471.969        1.274        0.099      152.797       15.512        0.010      343.715       20.022      861.981
09/12/2013  23:01:00     -132.628        3.899       -9.135       28.271       27.763       16.248      799.259      770.770      263.993        0.976        0.092      132.685       13.191        0.010      343.666       19.937      861.964
09/12/2013  23:02:00     -131.137        2.701      -12.972       21.934       19.457       12.101      481.081      378.570      146.444        0.919        0.050      131.165       11.046        0.007      343.723       20.035      861.943
09/12/2013  23:03:00     -101.768      -27.349       -8.088       20.235       25.219       15.739      409.439      635.990      247.721        0.623        0.065      105.379       10.635        0.010      343.738       20.060      861.925
09/12/2013  23:04:00     -103.815      -43.167       -2.220       21.600       23.718       13.385      466.539      562.565      179.145        0.693        0.060      112.432       11.793        0.011      343.741       20.065      861.911
09/12/2013  23:05:00     -133.203      -36.374       -9.829       31.029       24.708       15.460      962.768      610.467      239.026        1.049        0.091      138.080       15.600        0.013      343.788       20.147      861.898
09/12/2013  23:06:00      -85.772      -19.968        1.304       33.159       31.476       18.900     1099.490      990.746      357.218        0.510        0.122       88.065       18.138        0.042      343.706       20.007      861.872
09/12/2013  23:07:00     -113.318       14.689       -2.169       43.265       23.531       19.012     1871.850      553.723      361.463        0.792        0.139      114.266       19.088        0.028      343.674       19.950      861.863
09/12/2013  23:08:00     -159.043        6.450      -15.160       25.534       19.398       14.909      652.006      376.280      222.284        1.341        0.063      159.174        9.569        0.004      343.650       19.910      861.851
09/12/2013  23:09:00     -104.118      -32.312       -9.218       29.195       31.525       20.058      852.373      993.809      402.303        0.711        0.112      109.017       17.150        0.025      343.582       19.794      861.828
09/12/2013  23:10:00     -101.394      -60.029        1.854       42.204       22.689       19.292     1781.197      514.785      372.197        0.828        0.133      117.831       10.635        0.008      343.615       19.851      861.806
09/12/2013  23:11:00      -89.302      -50.546        2.086       55.448       43.362       20.646     3074.458     1880.231      426.252        0.796        0.269      102.615       18.650        0.033      343.757       20.094      861.786
09/12/2013  23:12:00      -67.339      -41.635        3.897       32.486       27.839       18.014     1055.367      774.993      324.495        0.422        0.108       79.171       14.844        0.035      343.825       20.211      861.761
09/12/2013  23:13:00      -48.750      -28.197        9.484       41.868       37.617       21.203     1752.958     1415.006      449.586        0.344        0.181       56.317       22.327        0.157      343.765       20.108      861.751
09/12/2013  23:14:00      -66.931      -19.340       -4.305       28.030       22.087       15.354      785.655      487.814      235.732        0.319        0.075       69.669       10.902        0.024      343.829       20.218      861.743
09/12/2013  23:15:00      -36.204      -30.420        5.691       24.108       21.634       16.003      581.207      468.037      256.080        0.179        0.065       47.288       12.500        0.070      343.827       20.213      861.730
09/12/2013  23:16:00      -45.627      -35.262        1.772       40.542       23.369       14.389     1643.694      546.123      207.057        0.286        0.120       57.665       13.507        0.055      343.885       20.311      861.730
09/12/2013  23:17:00      -65.595      -10.333       -5.313       18.485       22.263       15.322      341.697      495.656      234.776        0.275        0.054       66.404       13.393        0.041      343.856       20.261      861.743
09/12/2013  23:18:00      -98.189      -20.720       -4.455       29.648       21.761       16.784      879.014      473.530      281.699        0.586        0.082      100.351       13.614        0.018      343.793       20.155      861.760
09/12/2013  23:19:00      -83.706       -5.724        0.329       45.468       29.249       20.960     2067.332      855.503      439.316        0.520        0.168       83.901       23.502        0.078      343.706       20.006      861.771
09/12/2013  23:20:00      -88.689      -30.864        5.528       44.581       30.280       19.484     1987.464      916.854      379.623        0.607        0.164       93.906       12.784        0.019      343.735       20.056      861.776
09/12/2013  23:21:00      -99.105      -30.317        6.073       52.925       29.242       18.458     2801.078      855.090      340.703        0.739        0.200      103.639       20.007        0.037      343.805       20.174      861.789
09/12/2013  23:22:00     -118.928      -43.289       -1.483       27.167       30.709       21.070      738.045      943.016      443.951        0.907        0.106      126.561       16.059        0.016      343.817       20.196      861.801
09/12/2013  23:23:00     -101.607      -30.778        4.807       52.549       38.074       20.713     2761.400     1449.647      429.030        0.797        0.232      106.166       23.734        0.050      343.781       20.134      861.813
09/12/2013  23:24:00     -112.705      -34.340       -3.081       62.285       41.119       25.025     3879.469     1690.749      626.258        1.004        0.310      117.821       26.125        0.049      343.811       20.186      861.830
09/12/2013  23:25:00     -148.553      -41.774       -4.207       66.935       43.034       28.913     4480.263     1851.895      835.946        1.550        0.358      154.315       28.160        0.033      343.757       20.092      861.852
09/12/2013  23:26:00     -203.513       -0.289      -11.230       44.078       27.095       26.670     1942.896      734.132      711.265        2.247        0.169      203.513       21.696        0.011      343.776       20.124      861.867
09/12/2013  23:27:00     -208.412      -24.429      -11.852       60.602       43.238       31.927     3672.657     1869.483     1019.321        2.537        0.328      209.839       29.975        0.020      343.793       20.152      861.876
09/12/2013  23:28:00     -168.448      -61.939       -3.338       60.066       43.138       31.380     3607.873     1860.865      984.695        1.934        0.323      179.475       29.277        0.027      343.763       20.103      861.879
09/12/2013  23:29:00     -177.160      -41.699       -4.015       71.309       57.729       31.100     5084.976     3332.621      967.229        2.126        0.469      182.001       28.652        0.025      343.788       20.145      861.871
09/12/2013  23:30:00     -178.650      -30.542       -4.191       43.954       44.605       28.311     1931.992     1989.610      801.500        1.879        0.236      181.242       26.851        0.022      343.783       20.138      861.848
09/12/2013  23:31:00     -184.136      -42.447       -7.552       67.714       58.836       29.444     4585.188     3461.634      866.968        2.234        0.446      188.966       27.508        0.021      343.806       20.175      861.838
09/12/2013  23:32:00     -161.853      -45.568       -3.936       62.038       47.802       33.030     3848.750     2285.047     1090.954        1.776        0.361      168.146       22.453        0.018      343.852       20.255      861.830
09/12/2013  23:33:00     -137.375      -53.521        0.240       65.581       48.481       26.963     4300.872     2350.452      726.994        1.456        0.369      147.432       16.561        0.013      343.761       20.098      861.831
09/12/2013  23:34:00     -220.327      -72.128       -2.237       67.110       54.419       35.110     4503.777     2961.395     1232.706        3.122        0.435      231.833       32.716        0.020      343.835       20.224      861.834
09/12/2013  23:35:00     -109.328      -59.331       -0.242       42.982       40.953       26.104     1847.480     1677.113      681.394        0.984        0.210      124.390       17.326        0.019      343.834       20.224      861.840
09/12/2013  23:36:00     -157.988      -60.164       -8.233       61.417       52.220       25.172     3772.080     2726.931      633.620        1.789        0.357      169.056       10.056        0.004      343.813       20.187      861.838
09/12/2013  23:37:00     -179.836      -45.447        3.290       66.017       55.939       32.942     4358.272     3129.206     1085.166        2.149        0.429      185.489       33.396        0.032      343.892       20.321      861.843
09/12/2013  23:38:00     -165.546      -84.843       -6.648       54.438       37.702       28.429     2963.487     1421.475      808.185        1.992        0.260      186.021       24.907        0.018      343.912       20.356      861.848
09/12/2013  23:39:00     -149.492      -62.779        1.506       73.010       43.445       31.323     5330.390     1887.481      981.156        1.724        0.410      162.139       34.964        0.047      343.834       20.223      861.852
09/12/2013  23:40:00     -202.326      -59.857        2.376       63.248       55.623       39.188     4000.332     3093.899     1535.669        2.658        0.431      210.994       41.605        0.039      343.891       20.319      861.864
09/12/2013  23:41:00     -181.404      -42.733      -12.246       61.537       45.549       30.284     3786.770     2074.744      917.106        2.083        0.339      186.369       30.726        0.027      343.888       20.314      861.872
09/12/2013  23:42:00     -153.718      -61.063      -10.181       85.834       46.955       29.440     7367.392     2204.803      866.713        1.895        0.522      165.403       30.781        0.035      343.774       20.122      861.875
09/12/2013  23:43:00     -187.192        1.996      -16.877       74.039       46.573       33.263     5481.787     2169.000     1106.455        2.204        0.438      187.203       39.599        0.045      343.686       19.971      861.867
09/12/2013  23:44:00     -192.285      -39.109       -9.281       60.303       35.478       27.080     3636.487     1258.682      733.320        2.211        0.281      196.222       20.546        0.011      343.603       19.830      861.859
09/12/2013  23:45:00     -211.770      -43.573      -13.220       75.820       61.467       39.266     5748.734     3778.225     1541.823        2.899        0.553      216.206       43.346        0.040      343.571       19.773      861.852
09/12/2013  23:46:00     -220.844      -66.502       -8.613       59.712       56.368       32.363     3565.512     3177.361     1047.333        3.053        0.390      230.640       28.859        0.016      343.610       19.839      861.849
09/12/2013  23:47:00     -180.300      -39.028       -4.323       82.763       52.106       31.442     6849.710     2715.001      988.580        2.230        0.528      184.476       35.801        0.038      343.575       19.780      861.851
09/12/2013  23:48:00     -172.991      -57.350       -3.261       79.291       51.185       31.708     6287.077     2619.895     1005.384        2.157        0.496      182.249       38.913        0.046      343.632       19.879      861.846
09/12/2013  23:49:00     -180.900      -22.669      -17.155       62.401       48.119       26.029     3893.890     2315.481      677.488        2.021        0.344      182.315       29.783        0.027      343.623       19.862      861.861
09/12/2013  23:50:00     -198.175      -33.648      -24.523       59.932       37.812       21.815     3591.811     1429.750      475.898        2.325        0.275      201.011       15.785        0.006      343.559       19.753      861.862
09/12/2013  23:51:00     -142.100      -47.833       -4.120       76.692       48.442       38.487     5881.702     2346.626     1481.257        1.610        0.485      149.934       30.830        0.042      343.515       19.679      861.831
09/12/2013  23:52:00     -180.272      -71.042       -0.397       65.645       54.319       33.870     4309.301     2950.507     1147.196        2.297        0.420      193.766       30.197        0.024      343.582       19.793      861.785
09/12/2013  23:53:00      -96.612      -48.256        1.989       59.203       51.213       31.216     3505.024     2622.752      974.443        0.938        0.355      107.993       33.881        0.098      343.678       19.959      861.762
09/12/2013  23:54:00     -124.853      -47.454       -6.410       59.632       48.871       25.982     3555.995     2388.414      675.076        1.225        0.331      133.566       30.014        0.050      343.636       19.887      861.754
09/12/2013  23:55:00     -128.890      -57.598       -2.280       51.747       32.090       26.841     2677.731     1029.783      720.447        1.218        0.221      141.174       25.244        0.032      343.688       19.975      861.764
09/12/2013  23:56:00     -104.986       -6.630       -6.140       32.845       39.334       15.312     1078.768     1547.127      234.456        0.698        0.143      105.195       14.105        0.018      343.597       19.820      861.791
09/12/2013  23:57:00     -100.880       55.376       -7.007       29.689       33.586       23.832      881.456     1128.010      567.961        0.793        0.129      115.080       17.154        0.022      343.501       19.656      861.825
09/12/2013  23:58:00     -103.819       77.135       -6.668       48.675       46.686       29.297     2369.282     2179.562      858.303        1.109        0.270      129.337       24.286        0.035      343.529       19.705      861.830
09/12/2013  23:59:00      -99.260       45.856      -10.461       30.549       58.802       21.810      933.211     3457.667      475.697        0.846        0.243      109.341       18.895        0.030      343.582       19.796      861.800
